Date StartTime U_cm/s V_cm/s W_cm/s Ustd_cm/s Vstd_cm/s Wstd_cm/s Uvar_(cm/s)^2 Vvar_(cm/s)^2 Wvar_(cm/s)^2 KE_(m/s)^2 TurbulentKE_(m/s)^2 HorizWindSpeed_cm/s FrictionSpeec_cm/s DragCoef SpeedOfSound_m/s SonicTemperature_C Pressure_mb 
03/16/2014  00:00:00      -60.970      -45.501       -9.326       18.380       14.741       15.728      337.821      217.302      247.359        0.334        0.040       76.077        3.223        0.002      336.712        8.198      872.272
03/16/2014  00:01:00      -60.047      -51.884       -7.262       27.406       20.583       21.199      751.084      423.674      449.379        0.399        0.081       79.357       14.737        0.034      336.655        8.104      872.275
03/16/2014  00:02:00     -108.925      -50.787      -18.436       15.436       14.719        9.749      238.262      216.657       95.046        0.767        0.027      120.183        7.005        0.003      336.571        7.965      872.276
03/16/2014  00:03:00     -103.914      -51.006      -11.437       25.913       27.132       13.255      671.507      736.172      175.685        0.756        0.079      115.757       13.315        0.013      336.567        7.957      872.277
03/16/2014  00:04:00      -66.105      -41.611        3.767       46.726       24.472       21.173     2183.352      598.893      448.289        0.467        0.162       78.111       23.458        0.090      336.616        8.039      872.280
03/16/2014  00:05:00      -81.662      -66.543       -1.636       40.105       26.993       17.546     1608.430      728.615      307.860        0.687        0.132      105.341       13.180        0.016      336.739        8.244      872.272
03/16/2014  00:06:00      -85.264      -53.551       -0.546       41.349       27.139       20.691     1709.767      736.537      428.126        0.651        0.144      100.686       19.565        0.038      336.738        8.241      872.261
03/16/2014  00:07:00      -93.003      -48.869        4.024       31.668       17.730       16.977     1002.885      314.363      288.226        0.633        0.080      105.061       16.627        0.025      336.704        8.187      872.254
03/16/2014  00:08:00      -78.502      -56.103        2.436       33.458       22.020       16.788     1119.451      484.899      281.852        0.560        0.094       96.488       17.745        0.034      336.742        8.248      872.254
03/16/2014  00:09:00      -79.044      -45.161        1.300       24.930       20.155       18.719      621.491      406.242      350.414        0.483        0.069       91.036       15.787        0.030      336.666        8.123      872.261
03/16/2014  00:10:00      -99.246      -34.693       -4.689       17.109       19.776       12.487      292.719      391.105      155.926        0.596        0.042      105.135       10.608        0.010      336.595        8.004      872.264
03/16/2014  00:11:00     -100.654      -55.069        1.154       21.054       20.202       15.269      443.268      408.104      233.134        0.712        0.054      114.733       11.229        0.010      336.668        8.126      872.265
03/16/2014  00:12:00     -114.186      -47.651       -7.134       17.500       18.291       15.518      306.250      334.571      240.818        0.812        0.044      123.730       11.248        0.008      336.629        8.061      872.265
03/16/2014  00:13:00      -82.738      -45.098        4.989       33.733       27.951       18.629     1137.936      781.265      347.036        0.558        0.113       94.231       16.892        0.032      336.665        8.120      872.274
03/16/2014  00:14:00     -113.676      -37.189       -1.323       30.290       22.303       16.756      917.457      497.418      280.754        0.800        0.085      119.605       13.845        0.013      336.591        7.997      872.283
03/16/2014  00:15:00     -125.072      -51.851        1.091       28.187       21.642       16.745      794.513      468.370      280.405        0.994        0.077      135.394       15.657        0.013      336.586        7.989      872.308
03/16/2014  00:16:00     -123.429      -56.807       -5.560       20.585       21.666       14.852      423.756      469.424      220.582        0.980        0.056      135.874        8.508        0.004      336.546        7.922      872.321
03/16/2014  00:17:00     -118.546      -53.742       -2.726       22.856       21.852       14.650      522.401      477.531      214.618        0.908        0.061      130.159       11.656        0.008      336.563        7.949      872.320
03/16/2014  00:18:00     -108.560      -44.320       -5.787       24.594       19.147       20.820      604.873      366.616      433.470        0.759        0.070      117.258       16.349        0.019      336.523        7.882      872.314
03/16/2014  00:19:00      -87.204      -47.153      -12.489       18.341       22.002       10.879      336.390      484.110      118.356        0.546        0.047       99.136        8.788        0.008      336.517        7.872      872.314
03/16/2014  00:20:00     -106.286      -29.380      -14.312       25.944       16.012       14.026      673.081      256.394      196.736        0.675        0.056      110.272       14.975        0.018      336.531        7.895      872.313
03/16/2014  00:21:00     -124.279      -37.508      -10.866       12.153       15.946       10.020      147.693      254.269      100.405        0.874        0.025      129.815        6.480        0.002      336.581        7.979      872.314
03/16/2014  00:22:00     -105.627      -55.287       -5.862       26.837       15.834       14.677      720.227      250.721      215.401        0.772        0.059      119.221       15.534        0.017      336.562        7.948      872.315
03/16/2014  00:23:00      -93.922      -48.317       -5.096       20.312       23.380       12.752      412.576      546.641      162.604        0.615        0.056      105.621        8.420        0.006      336.591        7.997      872.317
03/16/2014  00:24:00      -86.933      -58.997       -9.643       11.721       11.500       11.759      137.385      132.241      138.280        0.577        0.020      105.062        7.669        0.005      336.654        8.100      872.318
03/16/2014  00:25:00      -51.084      -37.312        2.604       29.232       19.281       17.799      854.533      371.744      316.816        0.278        0.077       63.259       15.467        0.060      336.659        8.110      872.319
03/16/2014  00:26:00      -29.191      -27.030        8.829       25.740       15.492       15.952      662.527      240.006      254.475        0.141        0.058       39.784       13.647        0.118      336.634        8.068      872.313
03/16/2014  00:27:00      -67.880      -60.885       -4.841       29.350       25.588       20.930      861.440      654.759      438.051        0.515        0.098       91.185       18.561        0.041      336.598        8.009      872.306
03/16/2014  00:28:00      -87.702      -61.937       -1.554       26.690       30.311       18.411      712.343      918.780      338.962        0.675        0.099      107.368       16.983        0.025      336.547        7.922      872.300
03/16/2014  00:29:00     -102.346      -52.285       -3.102       38.816       20.966       21.276     1506.698      439.577      452.677        0.781        0.120      114.928       18.469        0.026      336.515        7.869      872.293
03/16/2014  00:30:00     -119.354      -53.169       -5.656       29.316       23.179       19.226      859.439      537.287      369.655        0.943        0.088      130.661       17.816        0.019      336.399        7.676      872.295
03/16/2014  00:31:00     -107.495      -46.871       -7.535       34.325       24.504       15.485     1178.210      600.444      239.788        0.791        0.101      117.269       15.634        0.018      336.405        7.684      872.298
03/16/2014  00:32:00     -101.393      -34.438        1.538       35.539       24.225       20.223     1263.011      586.844      408.973        0.686        0.113      107.082       20.188        0.036      336.392        7.662      872.300
03/16/2014  00:33:00      -87.482      -29.181        4.449       40.672       34.305       19.457     1654.194     1176.843      378.593        0.587        0.160       92.220       20.414        0.049      336.373        7.631      872.299
03/16/2014  00:34:00     -113.278      -38.070       -1.585       26.453       25.477       18.362      699.751      649.065      337.169        0.798        0.084      119.504       11.079        0.009      336.382        7.645      872.309
03/16/2014  00:35:00     -124.333      -50.868       -7.871       20.149       20.840       16.339      405.986      434.312      266.964        0.961        0.055      134.336       13.724        0.010      336.334        7.566      872.321
03/16/2014  00:36:00     -112.331      -56.015      -16.695       20.174       23.741       13.368      406.988      563.644      178.694        0.859        0.057      125.523        5.663        0.002      336.391        7.662      872.321
03/16/2014  00:37:00      -94.671      -33.442      -10.718       13.114       13.946        9.108      171.966      194.492       82.962        0.532        0.022      100.404        6.264        0.004      336.329        7.558      872.318
03/16/2014  00:38:00      -76.844      -44.995      -15.492       12.044        9.064        9.912      145.053       82.154       98.253        0.425        0.016       89.048        5.536        0.004      336.384        7.649      872.308
03/16/2014  00:39:00      -33.320      -46.897       -6.451       18.631       14.750       12.128      347.124      217.554      147.093        0.203        0.036       57.529        8.379        0.021      336.372        7.630      872.305
03/16/2014  00:40:00      -42.416      -24.218       -5.431       30.204       17.953       13.403      912.268      322.315      179.630        0.191        0.071       48.843       13.474        0.076      336.414        7.699      872.298
03/16/2014  00:41:00      -71.221      -57.752      -11.836       17.257       23.431       14.521      297.803      549.024      210.857        0.480        0.053       91.694        6.568        0.005      336.370        7.624      872.303
03/16/2014  00:42:00      -83.245      -55.007       -8.706       20.889       20.977       18.048      436.368      440.030      325.715        0.562        0.060       99.777       12.853        0.017      336.289        7.490      872.303
03/16/2014  00:43:00      -48.479      -58.751       10.241       32.678       25.694       23.235     1067.848      660.194      539.879        0.409        0.113       76.170       21.551        0.080      336.252        7.430      872.287
03/16/2014  00:44:00      -43.278      -43.602        0.257       42.288       30.983       21.447     1788.276      959.977      459.961        0.349        0.160       61.434       25.352        0.170      336.314        7.532      872.282
03/16/2014  00:45:00      -41.373      -52.267       -2.175       31.905       34.090       16.223     1017.944     1162.135      263.183        0.345        0.122       66.660       15.815        0.056      336.230        7.392      872.287
03/16/2014  00:46:00      -58.624      -72.992       -6.292       30.613       40.755       17.889      937.166     1660.966      320.022        0.586        0.146       93.619       16.863        0.032      336.190        7.326      872.294
03/16/2014  00:47:00      -74.054      -36.523       -6.902       34.380       25.768       21.845     1181.973      663.972      477.221        0.459        0.116       82.571       19.531        0.056      336.202        7.345      872.300
03/16/2014  00:48:00      -80.574      -30.435      -13.404       27.781       22.650       21.992      771.769      513.017      483.640        0.468        0.088       86.130       15.916        0.034      336.197        7.337      872.299
03/16/2014  00:49:00      -98.646      -15.692      -18.486       21.999       19.761       16.539      483.956      390.503      273.544        0.573        0.057       99.886        9.357        0.009      336.182        7.312      872.287
03/16/2014  00:50:00     -116.337      -22.132      -18.765       16.738       24.797       13.448      280.177      614.872      180.837        0.773        0.054      118.423        4.791        0.002      336.124        7.215      872.288
03/16/2014  00:51:00     -101.035      -62.642      -18.636       22.339       19.157       15.685      499.030      366.985      246.027        0.780        0.056      118.879       10.778        0.008      336.225        7.385      872.290
03/16/2014  00:52:00      -85.384      -68.234      -14.218       23.661       19.560       17.791      559.835      382.581      316.537        0.670        0.063      109.299       11.588        0.011      336.210        7.359      872.293
03/16/2014  00:53:00     -107.627      -52.831      -19.157       15.655       21.032       14.495      245.088      442.363      210.095        0.782        0.045      119.895        9.697        0.007      336.109        7.191      872.294
03/16/2014  00:54:00      -93.305      -41.788      -12.515       20.287       17.567       10.224      411.572      308.601      104.535        0.572        0.041      102.236        7.148        0.005      336.129        7.223      872.300
03/16/2014  00:55:00      -67.756      -44.711      -14.069       24.607       27.380       13.783      605.506      749.669      189.983        0.417        0.077       81.179        9.645        0.014      336.232        7.395      872.300
03/16/2014  00:56:00      -96.331      -18.184       -4.469       36.831       18.983       17.182     1356.513      360.358      295.209        0.582        0.101       98.032       16.474        0.028      336.186        7.318      872.297
03/16/2014  00:57:00      -93.912      -29.773       -5.719       30.645       24.886       16.083      939.131      619.298      258.661        0.578        0.091       98.519       15.055        0.023      336.145        7.250      872.298
03/16/2014  00:58:00      -93.445      -16.499      -17.206       28.735       23.583       14.323      825.690      556.148      205.160        0.544        0.079       94.890       10.007        0.011      336.123        7.212      872.313
03/16/2014  00:59:00     -119.017      -20.413      -17.753       21.796       16.699       14.273      475.052      278.860      203.717        0.793        0.048      120.755       15.154        0.016      336.085        7.149      872.327
03/16/2014  01:00:00     -111.410      -35.950      -11.862       25.763       24.069       15.322      663.726      579.301      234.762        0.766        0.074      117.066       11.831        0.010      336.047        7.085      872.325
03/16/2014  01:01:00     -121.010      -38.689      -19.328       31.694       26.452       14.204     1004.537      699.709      201.767        0.921        0.095      127.045       12.245        0.009      335.995        7.000      872.322
03/16/2014  01:02:00     -111.615      -23.802      -19.065       24.349       26.161       14.497      592.877      684.419      210.168        0.744        0.074      114.125       11.383        0.010      336.011        7.025      872.321
03/16/2014  01:03:00     -111.018      -36.795      -12.929       22.546       32.298       16.103      508.327     1043.133      259.312        0.783        0.091      116.956        7.931        0.005      336.003        7.012      872.313
03/16/2014  01:04:00      -96.037      -36.198      -21.515       20.246       24.521       21.855      409.913      601.300      477.650        0.624        0.074      102.632       13.107        0.016      335.987        6.986      872.299
03/16/2014  01:05:00      -87.075      -33.217      -14.955       20.542       23.150       18.231      421.955      535.930      332.367        0.510        0.065       93.196        9.075        0.009      336.091        7.159      872.284
03/16/2014  01:06:00      -88.904      -34.459      -16.383       22.119       34.876       23.629      489.259     1216.329      558.320        0.581        0.113       95.349       18.187        0.036      336.100        7.174      872.272
03/16/2014  01:07:00      -80.799      -21.675      -15.624       33.719       27.646       19.495     1136.955      764.323      380.068        0.476        0.114       83.656       14.940        0.032      336.082        7.143      872.269
03/16/2014  01:08:00      -54.556      -23.810       -1.703       34.157       20.001       23.882     1166.690      400.040      570.358        0.284        0.107       59.526       24.825        0.174      336.147        7.253      872.261
03/16/2014  01:09:00      -31.247      -17.003       -1.855       30.389       16.364       13.341      923.463      267.789      177.986        0.132        0.068       35.574       13.910        0.153      336.125        7.217      872.247
03/16/2014  01:10:00      -90.557      -43.966       -9.108       15.959       16.297       11.476      254.702      265.591      131.689        0.543        0.033      100.666        7.591        0.006      336.149        7.256      872.237
03/16/2014  01:11:00     -107.449      -37.438      -21.052       17.227       13.457       10.228      296.759      181.097      104.614        0.699        0.029      113.784        1.923        0.000      336.060        7.109      872.245
03/16/2014  01:12:00     -116.016      -54.752      -16.606       40.401       18.918       15.607     1632.242      357.899      243.593        0.948        0.112      128.287       15.200        0.014      336.082        7.144      872.242
03/16/2014  01:13:00     -107.796      -73.457       -5.942       65.983       33.390       26.420     4353.746     1114.869      697.996        1.161        0.308      130.445       31.053        0.057      336.028        7.054      872.241
03/16/2014  01:14:00     -129.665      -84.865       -4.318       36.910       30.393       19.161     1362.323      923.743      367.143        1.334        0.133      154.968       14.424        0.009      336.031        7.059      872.243
03/16/2014  01:15:00     -112.095      -52.871       -1.558       29.555       21.971       15.301      873.500      482.718      234.127        0.848        0.080      123.938       15.274        0.015      335.883        6.813      872.251
03/16/2014  01:16:00     -113.301      -60.855       -2.980       26.481       20.990       19.963      701.265      440.581      398.517        0.904        0.077      128.609       15.090        0.014      335.904        6.849      872.265
03/16/2014  01:17:00      -99.786      -50.761        4.383       45.447       31.570       21.553     2065.461      996.644      464.513        0.804        0.176      111.955       19.024        0.029      335.892        6.828      872.270
03/16/2014  01:18:00     -119.635      -70.339       -0.699       44.937       27.923       22.801     2019.346      779.677      519.880        1.129        0.166      138.780       21.026        0.023      335.914        6.864      872.274
03/16/2014  01:19:00     -141.925      -70.033        3.597       38.348       28.835       23.580     1470.533      831.454      556.006        1.396        0.143      158.263       21.388        0.018      335.944        6.914      872.287
03/16/2014  01:20:00     -130.238      -66.118        6.907       45.339       25.089       20.121     2055.620      629.474      404.866        1.223        0.154      146.060       20.913        0.021      335.982        6.976      872.306
03/16/2014  01:21:00     -131.147      -77.291       -0.046       46.682       24.747       24.836     2179.202      612.421      616.824        1.329        0.170      152.229       23.966        0.025      335.983        6.977      872.310
03/16/2014  01:22:00     -121.416      -59.866       -5.527       34.490       31.696       19.511     1189.585     1004.605      380.691        1.047        0.129      135.372       18.052        0.018      335.968        6.955      872.313
03/16/2014  01:23:00     -116.749      -65.345       -8.165       29.469       30.540       16.115      868.414      932.668      259.692        1.001        0.103      133.792       12.978        0.009      336.025        7.049      872.315
03/16/2014  01:24:00     -136.424      -29.985       -9.418       30.579       21.514       16.043      935.103      462.865      257.370        1.063        0.083      139.680        9.710        0.005      336.003        7.013      872.320
03/16/2014  01:25:00     -126.049      -42.599       -4.579       24.730       21.813       17.613      611.575      475.804      310.204        0.956        0.070      133.053       14.562        0.012      335.975        6.966      872.313
03/16/2014  01:26:00     -134.899      -11.013      -11.306       38.950       27.465       21.273     1517.086      754.312      452.547        1.058        0.136      135.348       19.098        0.020      335.914        6.864      872.307
03/16/2014  01:27:00     -153.876       13.237      -10.933       31.477       32.333       22.867      990.777     1045.426      522.888        1.327        0.128      154.444       16.744        0.012      335.839        6.740      872.305
03/16/2014  01:28:00     -144.747       26.081      -10.219       34.755       26.938       18.489     1207.901      725.637      341.838        1.201        0.114      147.078       19.022        0.017      335.829        6.724      872.314
03/16/2014  01:29:00     -167.797       29.763      -22.515       23.111       26.430       17.296      534.104      698.560      299.157        1.554        0.077      170.416       10.826        0.004      335.781        6.643      872.315
03/16/2014  01:30:00     -177.898       -1.077      -22.144       33.971       30.364       24.443     1154.027      921.965      597.478        1.741        0.134      177.901       20.786        0.014      335.808        6.687      872.303
03/16/2014  01:31:00     -166.150       -6.462      -13.362       44.339       51.125       29.300     1965.932     2613.757      858.472        1.663        0.272      166.276       25.717        0.024      335.807        6.686      872.285
03/16/2014  01:32:00     -161.731       11.473      -14.145       49.684       43.055       24.987     2468.546     1853.773      624.363        1.572        0.247      162.137       22.207        0.019      335.738        6.572      872.277
03/16/2014  01:33:00     -123.336        7.059      -12.598       41.077       44.600       23.837     1687.351     1989.196      568.214        0.983        0.212      123.538       19.774        0.026      335.715        6.534      872.265
03/16/2014  01:34:00     -140.305       -2.158      -13.595       36.183       37.557       28.660     1309.192     1410.503      821.404        1.171        0.177      140.321       24.181        0.030      335.784        6.649      872.251
03/16/2014  01:35:00      -54.031      -34.005        0.937       43.548       34.972       24.855     1896.459     1223.014      617.783        0.391        0.187       63.841       24.484        0.147      335.729        6.558      872.233
03/16/2014  01:36:00      -88.116      -28.726       -3.124       41.644       31.300       19.146     1734.218      979.666      366.554        0.584        0.154       92.680       16.512        0.032      335.752        6.596      872.237
03/16/2014  01:37:00     -106.395      -42.854       -6.515       25.045       32.692       16.733      627.232     1068.742      279.984        0.759        0.099      114.701       14.966        0.017      335.692        6.497      872.241
03/16/2014  01:38:00     -102.501      -49.866       -1.247       32.076       22.752       16.129     1028.887      517.661      260.141        0.740        0.090      113.988       12.741        0.012      335.759        6.607      872.242
03/16/2014  01:39:00     -102.794      -45.978       -6.243       16.129       17.005       11.488      260.139      289.182      131.968        0.670        0.034      112.608        8.912        0.006      335.720        6.540      872.256
03/16/2014  01:40:00     -119.762      -51.229       -7.032       14.274       14.169       13.231      203.744      200.752      175.053        0.880        0.029      130.259        3.701        0.001      335.761        6.611      872.281
03/16/2014  01:41:00     -113.477      -48.835       -5.449       14.010       15.004       12.289      196.272      225.118      151.008        0.793        0.029      123.539        8.188        0.004      335.800        6.676      872.289
03/16/2014  01:42:00     -101.459      -53.091       -1.297       25.420       22.953       16.217      646.199      526.862      262.976        0.727        0.072      114.510       12.037        0.011      335.766        6.619      872.298
03/16/2014  01:43:00      -86.990      -46.832        4.944       34.606       23.609       21.080     1197.592      557.378      444.348        0.599        0.110       98.795       19.952        0.041      335.741        6.577      872.315
03/16/2014  01:44:00      -83.965      -48.717        0.976       41.240       21.149       16.606     1700.718      447.284      275.743        0.592        0.121       97.074       16.236        0.028      335.707        6.520      872.336
03/16/2014  01:45:00      -67.036      -32.827        2.962       45.220       21.260       16.551     2044.847      451.974      273.944        0.417        0.139       74.642       16.196        0.047      335.668        6.455      872.345
03/16/2014  01:46:00      -50.441      -32.334       -0.867       37.574       22.013       16.043     1411.788      484.554      257.377        0.287        0.108       59.915       19.374        0.105      335.626        6.385      872.359
03/16/2014  01:47:00      -99.492      -45.366       -3.077       21.748       18.999       12.574      472.986      360.953      158.111        0.648        0.050      109.347        8.786        0.006      335.669        6.458      872.357
03/16/2014  01:48:00      -69.174      -41.132        0.878       38.304       28.010       17.976     1467.209      784.581      323.149        0.453        0.129       80.479       14.320        0.032      335.651        6.427      872.358
03/16/2014  01:49:00      -88.437      -69.217       -0.338       35.950       32.704       20.224     1292.425     1069.551      408.992        0.769        0.139      112.303       19.650        0.031      335.731        6.560      872.361
03/16/2014  01:50:00      -97.630      -62.145       -1.427       32.813       36.999       22.469     1076.685     1368.906      504.871        0.817        0.148      115.730       17.478        0.023      335.722        6.546      872.347
03/16/2014  01:51:00       -8.575      -18.801       13.808       27.914       27.304       23.689      779.180      745.484      561.163        0.135        0.104       20.664       21.112        1.044      335.725        6.550      872.328
03/16/2014  01:52:00      -27.896      -33.160        8.927       33.117       22.362       19.670     1096.744      500.051      386.895        0.197        0.099       43.334       20.185        0.217      335.676        6.469      872.317
03/16/2014  01:53:00      -55.957      -32.122        2.094       35.702       24.940       18.146     1274.658      621.998      329.293        0.320        0.111       64.521       18.340        0.081      335.642        6.412      872.303
03/16/2014  01:54:00      -94.682      -57.546       -4.041       24.546       17.634       15.810      602.512      310.962      249.943        0.673        0.058      110.798       11.374        0.011      335.641        6.411      872.309
03/16/2014  01:55:00      -94.116      -49.922       -4.492       16.096       16.781       14.305      259.090      281.605      204.620        0.606        0.037      106.536        8.419        0.006      335.595        6.335      872.306
03/16/2014  01:56:00      -79.907      -55.454       -5.706       19.963       23.554       13.658      398.505      554.768      186.531        0.532        0.057       97.263        9.404        0.009      335.598        6.339      872.306
03/16/2014  01:57:00      -73.162      -35.608        2.133       39.000       29.531       17.484     1520.972      872.098      305.680        0.466        0.135       81.367       17.674        0.047      335.570        6.293      872.313
03/16/2014  01:58:00      -72.993      -52.451        0.935       28.590       23.230       19.231      817.387      539.623      369.828        0.490        0.086       89.884       17.122        0.036      335.652        6.428      872.308
03/16/2014  01:59:00      -60.098      -30.274        7.275       37.119       22.564       19.122     1377.823      509.156      365.637        0.342        0.113       67.292       19.733        0.086      335.629        6.391      872.309
03/16/2014  02:00:00      -78.753      -24.547       -2.391       23.328       21.117       10.024      544.197      445.909      100.482        0.395        0.055       82.490       11.099        0.018      335.663        6.447      872.308
03/16/2014  02:01:00      -62.791      -27.267        1.049       31.361       19.198       15.213      983.492      368.547      231.434        0.314        0.079       68.456       15.038        0.048      335.699        6.508      872.300
03/16/2014  02:02:00      -57.394      -28.670        4.444       35.210       18.647       18.657     1239.738      347.720      348.094        0.304        0.097       64.156       18.991        0.088      335.790        6.659      872.305
03/16/2014  02:03:00      -70.508      -38.485        6.848       31.259       20.357       19.002      977.155      414.391      361.084        0.413        0.088       80.328       17.693        0.049      335.765        6.619      872.311
03/16/2014  02:04:00      -95.186      -40.150        5.829       36.889       23.319       17.565     1360.773      543.766      308.523        0.646        0.111      103.307       19.463        0.035      335.639        6.407      872.320
03/16/2014  02:05:00      -93.899      -43.794       -1.343       25.535       16.167       13.949      652.029      261.388      194.570        0.592        0.055      103.609       13.177        0.016      335.653        6.430      872.341
03/16/2014  02:06:00      -63.934      -42.129        1.271       21.837       23.334       16.769      476.860      544.495      281.184        0.358        0.065       76.566       13.011        0.029      335.673        6.465      872.352
03/16/2014  02:07:00      -79.635      -48.820        3.344       35.943       20.337       18.813     1291.897      413.609      353.946        0.540        0.103       93.408       18.209        0.038      335.697        6.504      872.359
03/16/2014  02:08:00      -82.884      -50.860        0.091       33.842       20.306       22.067     1145.274      412.328      486.966        0.575        0.102       97.244       20.465        0.044      335.564        6.282      872.355
03/16/2014  02:09:00      -70.023      -48.679        0.823       55.315       22.937       18.598     3059.766      526.088      345.895        0.560        0.197       85.281       25.343        0.088      335.516        6.201      872.347
03/16/2014  02:10:00      -26.156      -19.605        6.066       28.770       20.526       14.277      827.738      421.322      203.839        0.128        0.073       32.688       13.148        0.162      335.487        6.153      872.356
03/16/2014  02:11:00      -18.069      -30.381        7.444       21.722       21.339       12.338      471.854      455.349      152.216        0.119        0.054       35.348       14.271        0.163      335.543        6.247      872.364
03/16/2014  02:12:00      -71.511      -50.300       -7.968       27.842       23.996       16.109      775.183      575.821      259.514        0.466        0.081       87.430       14.604        0.028      335.565        6.282      872.351
03/16/2014  02:13:00      -67.112      -53.520       -0.983       32.154       36.767       15.238     1033.886     1351.842      232.197        0.499        0.131       85.840       11.277        0.017      335.534        6.231      872.350
03/16/2014  02:14:00      -66.982      -48.232       -2.119       36.574       26.238       16.576     1337.637      688.444      274.779        0.456        0.115       82.540       16.976        0.042      335.547        6.253      872.344
03/16/2014  02:15:00      -50.712      -42.289        1.303       32.341       22.934       20.412     1045.912      525.963      416.668        0.317        0.099       66.030       21.027        0.101      335.472        6.128      872.344
03/16/2014  02:16:00      -86.286      -49.333       -2.582       22.014       17.566       11.180      484.613      308.550      124.989        0.540        0.046       99.393        7.677        0.006      335.439        6.073      872.353
03/16/2014  02:17:00      -96.297      -59.067       -9.699       33.210       22.379       14.380     1102.921      500.812      206.790        0.733        0.091      112.969       11.243        0.010      335.485        6.150      872.355
03/16/2014  02:18:00     -116.521      -48.511       -3.582       16.945       16.844       10.028      287.124      283.736      100.556        0.831        0.034      126.217        5.115        0.002      335.452        6.094      872.360
03/16/2014  02:19:00     -115.486      -45.213       -3.050       17.714       15.322        9.366      313.782      234.768       87.730        0.801        0.032      124.021        8.411        0.005      335.483        6.147      872.366
03/16/2014  02:20:00     -119.868      -53.865       -1.645       30.100       21.659       13.631      906.015      469.110      185.807        0.942        0.078      131.414       16.080        0.015      335.402        6.010      872.365
03/16/2014  02:21:00     -137.625      -47.387       -5.771       18.130       20.422       12.384      328.705      417.040      153.363        1.106        0.045      145.554        5.006        0.001      335.315        5.866      872.346
03/16/2014  02:22:00     -142.171      -64.286       -0.501       24.934       20.548       13.424      621.704      422.216      180.204        1.278        0.061      156.030        8.489        0.003      335.421        6.043      872.331
03/16/2014  02:23:00     -107.397      -49.183        4.275       28.411       24.320       13.892      807.197      591.485      192.978        0.778        0.080      118.123        7.653        0.004      335.357        5.935      872.331
03/16/2014  02:24:00      -48.756      -38.739        9.466       46.619       28.501       21.930     2173.343      812.316      480.925        0.372        0.173       62.272       22.491        0.130      335.450        6.092      872.327
03/16/2014  02:25:00     -104.247      -52.964        3.721       48.639       30.099       22.480     2365.790      905.937      505.362        0.873        0.189      116.930       18.753        0.026      335.413        6.028      872.332
03/16/2014  02:26:00     -131.583      -44.158        1.772       34.142       31.480       21.388     1165.699      990.966      457.462        1.094        0.131      138.795       21.481        0.024      335.250        5.759      872.346
03/16/2014  02:27:00     -121.536      -27.482       -0.450       37.127       24.462       20.565     1378.428      598.387      422.918        0.896        0.120      124.605       21.401        0.029      335.203        5.680      872.355
03/16/2014  02:28:00     -135.529       -6.235      -11.135       41.906       23.492       18.734     1756.081      551.897      350.959        1.059        0.133      135.672       21.125        0.024      335.147        5.588      872.354
03/16/2014  02:29:00     -111.002        6.395       -7.032       50.781       38.490       28.522     2578.715     1481.451      813.487        0.864        0.244      111.186       30.927        0.077      335.204        5.683      872.353
03/16/2014  02:30:00     -137.530      -13.406       -8.848       51.010       44.348       29.298     2602.068     1966.769      858.365        1.230        0.271      138.182       29.655        0.046      335.289        5.823      872.344
03/16/2014  02:31:00     -141.968      -52.155       -6.768       30.241       34.398       21.383      914.540     1183.220      457.233        1.274        0.128      151.245       12.486        0.007      335.217        5.705      872.339
03/16/2014  02:32:00      -84.925      -42.721       -5.484       49.130       29.823       19.805     2413.790      889.423      392.218        0.638        0.185       95.064       17.589        0.034      335.127        5.556      872.334
03/16/2014  02:33:00      -91.498      -45.418       -4.073       37.368       28.684       17.927     1396.371      822.754      321.386        0.650        0.127      102.151       14.179        0.019      335.154        5.598      872.335
03/16/2014  02:34:00     -100.969      -72.730       -9.026       47.351       35.744       25.515     2242.118     1277.645      651.040        0.987        0.209      124.436       29.385        0.056      335.097        5.506      872.329
03/16/2014  02:35:00      -49.558      -32.452        4.749       57.354       36.084       24.491     3289.504     1302.035      599.829        0.436        0.260       59.238       25.920        0.191      335.033        5.399      872.333
03/16/2014  02:36:00      -43.087      -11.284        2.174       43.223       23.677       19.055     1868.249      560.605      363.088        0.239        0.140       44.540       19.677        0.195      334.964        5.284      872.356
03/16/2014  02:37:00      -49.857      -12.847       -7.117       12.447       16.242       12.657      154.934      263.813      160.192        0.164        0.029       51.485        6.528        0.016      335.005        5.352      872.357
03/16/2014  02:38:00      -33.048       -3.622        2.713       10.541       14.327        9.942      111.119      205.253       98.845        0.076        0.021       33.246        2.942        0.008      335.300        5.841      872.364
03/16/2014  02:39:00       -8.742      -29.876        2.538       12.260       18.554        9.308      150.313      344.237       86.636        0.078        0.029       31.129        8.074        0.067      335.388        5.987      872.376
03/16/2014  02:40:00      -26.469      -17.521       -1.524       28.669       17.807       16.017      821.937      317.081      256.545        0.120        0.070       31.743       12.368        0.152      335.104        5.515      872.367
03/16/2014  02:41:00      -83.004      -48.227       -6.768       28.882       20.176       16.339      834.155      407.060      266.954        0.538        0.075       95.997       15.111        0.025      334.987        5.322      872.353
03/16/2014  02:42:00     -105.213      -52.773       -7.331       19.122       24.181       10.246      365.652      584.733      104.978        0.748        0.053      117.706        4.952        0.002      335.003        5.349      872.354
03/16/2014  02:43:00      -99.159      -61.253      -15.086       35.021       22.367       16.666     1226.504      500.275      277.764        0.791        0.100      116.552       14.044        0.015      334.920        5.211      872.341
03/16/2014  02:44:00     -128.061      -43.744      -19.373       14.225       17.378       13.067      202.362      302.005      170.748        0.968        0.034      135.326        7.977        0.003      334.822        5.049      872.330
03/16/2014  02:45:00     -129.947      -47.173      -17.334       11.201       18.185       12.168      125.466      330.677      148.058        1.001        0.030      138.244        4.111        0.001      334.804        5.017      872.327
03/16/2014  02:46:00     -102.335      -29.102      -11.942       33.717       19.532       16.336     1136.838      381.505      266.854        0.662        0.089      106.393       19.086        0.032      334.940        5.244      872.320
03/16/2014  02:47:00     -133.791      -29.333      -12.230       28.225       21.565       17.083      796.658      465.033      291.833        1.023        0.078      136.968       14.331        0.011      334.935        5.234      872.304
03/16/2014  02:48:00     -130.131      -32.793       -7.598       25.627       17.970       17.611      656.742      322.913      310.131        0.968        0.064      134.199       16.496        0.015      335.000        5.344      872.291
03/16/2014  02:49:00     -125.692      -40.155       -9.224       14.015       14.723       12.151      196.425      216.762      147.644        0.903        0.028      131.951        6.246        0.002      335.148        5.589      872.269
03/16/2014  02:50:00     -116.902      -33.509       -9.851       17.875       22.320       14.980      319.510      498.167      224.415        0.796        0.052      121.609       10.379        0.007      335.096        5.503      872.245
03/16/2014  02:51:00     -129.711      -34.380      -11.334       13.313       16.847       10.522      177.237      283.809      110.718        0.935        0.029      134.190        5.623        0.002      335.035        5.402      872.242
03/16/2014  02:52:00     -120.787      -41.583       -4.497       14.317       15.231       11.256      204.969      231.972      126.692        0.845        0.028      127.744        6.855        0.003      335.086        5.488      872.218
03/16/2014  02:53:00     -109.242      -38.410       -4.084       22.506       19.467       12.329      506.541      378.971      152.016        0.723        0.052      115.797        9.758        0.007      335.038        5.407      872.212
03/16/2014  02:54:00      -75.296      -54.096       -0.281       33.450       17.415       13.577     1118.932      303.282      184.343        0.510        0.080       92.714       15.343        0.027      335.128        5.555      872.221
03/16/2014  02:55:00      -87.997      -48.047       -1.246       29.978       23.990       18.516      898.651      575.506      342.853        0.593        0.091      100.260       17.363        0.030      335.109        5.526      872.225
03/16/2014  02:56:00     -121.531      -59.970       -0.009       34.520       22.810       17.103     1191.619      520.277      292.519        1.018        0.100      135.522       13.563        0.010      335.053        5.432      872.223
03/16/2014  02:57:00     -128.093      -47.590      -11.787       17.498       17.712       15.298      306.166      313.709      234.036        0.983        0.043      136.648        5.974        0.002      334.994        5.334      872.232
03/16/2014  02:58:00      -98.164      -42.229       -2.584       18.428       19.090       14.583      339.588      364.430      212.665        0.617        0.046      106.862        9.817        0.008      334.886        5.155      872.219
03/16/2014  02:59:00     -118.497      -36.177       -7.549       21.094       19.799       12.601      444.968      392.009      158.781        0.820        0.050      123.896        7.427        0.004      334.853        5.098      872.201
03/16/2014  03:00:00     -138.361      -45.229       -6.668       17.329       16.771       12.626      300.299      281.255      159.418        1.099        0.037      145.566        7.663        0.003      334.831        5.063      872.203
03/16/2014  03:01:00     -145.904      -49.329       -7.661       18.433       17.573       13.325      339.765      308.808      177.556        1.230        0.041      154.017        8.739        0.003      334.788        4.992      872.202
03/16/2014  03:02:00     -127.795      -34.879      -10.206       24.236       19.370       13.839      587.393      375.194      191.505        0.940        0.058      132.469       12.406        0.009      334.793        5.000      872.197
03/16/2014  03:03:00     -106.702      -30.814       -1.590       20.181       21.354       14.999      407.269      455.986      224.956        0.671        0.054      111.062        7.918        0.005      334.833        5.066      872.210
03/16/2014  03:04:00      -91.132      -43.316        3.034       29.587       18.792       18.931      875.394      353.131      358.394        0.589        0.079      100.902       17.583        0.030      334.870        5.129      872.212
03/16/2014  03:05:00      -87.863      -36.829        5.840       25.514       21.932       13.417      650.980      480.992      180.018        0.521        0.066       95.270       13.890        0.021      334.849        5.094      872.197
03/16/2014  03:06:00      -84.440      -33.946        1.338       20.405       20.217       12.049      416.347      408.732      145.184        0.463        0.049       91.008       10.837        0.014      334.992        5.332      872.194
03/16/2014  03:07:00      -85.770      -41.020       -2.957       25.223       18.393       10.651      636.223      338.287      113.437        0.507        0.054       95.074        9.570        0.010      335.059        5.443      872.189
03/16/2014  03:08:00     -101.190      -38.624       -3.516       18.611       14.659       10.277      346.380      214.899      105.612        0.621        0.033      108.310        8.848        0.007      335.131        5.561      872.170
03/16/2014  03:09:00      -82.210      -44.434       -0.475       28.943       25.229       17.240      837.684      636.515      297.214        0.525        0.089       93.450       16.243        0.030      335.072        5.464      872.169
03/16/2014  03:10:00      -79.733      -44.095        0.284       25.274       22.562       15.940      638.780      509.066      254.093        0.485        0.070       91.114       14.828        0.026      334.977        5.306      872.173
03/16/2014  03:11:00      -97.649      -42.671       -6.544       22.746       16.325       16.189      517.399      266.505      262.079        0.622        0.052      106.565       10.738        0.010      334.943        5.249      872.159
03/16/2014  03:12:00      -97.877      -35.634       -0.300       26.905       17.504       14.373      723.860      306.381      206.583        0.604        0.062      104.162       13.092        0.016      334.963        5.284      872.155
03/16/2014  03:13:00     -110.014      -31.920       -8.725       13.988       10.246        9.627      195.676      104.973       92.672        0.680        0.020      114.551        7.249        0.004      334.971        5.295      872.144
03/16/2014  03:14:00      -97.455      -28.998      -10.390       28.303       16.390       12.758      801.087      268.623      162.776        0.584        0.062      101.678       10.851        0.011      334.998        5.339      872.128
03/16/2014  03:15:00     -104.860      -27.916       -3.368       25.185       19.572       13.088      634.266      383.061      171.305        0.649        0.059      108.513       12.659        0.014      334.928        5.224      872.113
03/16/2014  03:16:00     -120.885      -26.282       -7.999       20.491       17.051       12.913      419.892      290.748      166.748        0.812        0.044      123.709        8.591        0.005      334.933        5.232      872.108
03/16/2014  03:17:00     -124.812      -28.073      -12.285       16.631       13.733       11.966      276.575      188.589      143.176        0.856        0.030      127.930        7.584        0.004      334.933        5.232      872.106
03/16/2014  03:18:00      -97.099      -44.627       -3.826       18.918       16.737       12.665      357.898      280.136      160.411        0.612        0.040      106.864       11.703        0.012      334.848        5.091      872.097
03/16/2014  03:19:00     -107.229      -33.047      -11.047       13.924       17.297       11.243      193.865      299.169      126.408        0.667        0.031      112.206        9.086        0.007      334.792        4.997      872.088
03/16/2014  03:20:00     -120.122      -40.674      -14.257       13.754       15.807       12.016      189.162      249.861      144.394        0.844        0.029      126.822        6.787        0.003      334.737        4.906      872.080
03/16/2014  03:21:00     -110.024      -50.673      -10.435       17.658       19.665       16.871      311.806      386.715      284.626        0.788        0.049      121.132       10.046        0.007      334.737        4.907      872.088
03/16/2014  03:22:00     -118.676      -36.889      -17.299       13.342       18.118       13.651      178.007      328.247      186.343        0.822        0.035      124.277       10.618        0.007      334.683        4.817      872.096
03/16/2014  03:23:00     -112.237      -40.553      -13.611       16.628       19.646       12.800      276.505      385.948      163.842        0.763        0.041      119.338        7.722        0.004      334.630        4.728      872.105
03/16/2014  03:24:00     -124.557      -16.926      -12.060       28.163       17.949       14.968      793.138      322.158      224.044        0.864        0.067      125.702       14.348        0.013      334.660        4.778      872.105
03/16/2014  03:25:00     -128.840       -8.990      -16.012       26.124       15.456       16.046      682.485      238.899      257.468        0.906        0.059      129.153       15.047        0.014      334.621        4.714      872.097
03/16/2014  03:26:00     -129.572      -14.322      -13.707       18.011       14.455       12.628      324.382      208.956      159.467        0.894        0.035      130.361       10.782        0.007      334.609        4.693      872.083
03/16/2014  03:27:00     -107.041      -25.282      -14.701       14.677       12.139       11.153      215.409      147.357      124.382        0.640        0.024      109.986        9.186        0.007      334.734        4.901      872.075
03/16/2014  03:28:00     -101.386      -25.944       -6.940       14.772       16.872       12.176      218.218      284.659      148.255        0.583        0.033      104.653        9.143        0.008      334.659        4.777      872.069
03/16/2014  03:29:00      -94.901      -19.603       -5.219       17.881       22.698       11.468      319.739      515.179      131.514        0.519        0.048       96.905        8.765        0.008      334.623        4.718      872.078
03/16/2014  03:30:00      -97.548      -31.658       -9.531       14.361       13.361       10.816      206.248      178.518      116.983        0.556        0.025      102.557        7.291        0.005      334.612        4.700      872.092
03/16/2014  03:31:00      -76.949      -20.062       -5.264       23.543       18.837       13.125      554.261      354.815      172.263        0.372        0.054       79.521       11.574        0.021      334.647        4.758      872.092
03/16/2014  03:32:00      -73.533       -8.564       -6.515       23.896       18.783       13.130      571.032      352.788      172.407        0.331        0.055       74.030       12.019        0.026      334.584        4.654      872.089
03/16/2014  03:33:00      -70.681      -34.237      -13.170       14.695       23.836       12.019      215.947      568.173      144.461        0.363        0.046       78.536        5.510        0.005      334.527        4.559      872.098
03/16/2014  03:34:00      -84.959      -33.995       -9.893       23.112       23.847       13.305      534.187      568.703      177.013        0.488        0.064       91.508        8.545        0.009      334.527        4.557      872.109
03/16/2014  03:35:00     -104.592      -40.539      -13.477       18.863       20.807       11.253      355.799      432.927      126.636        0.684        0.046      112.173        9.216        0.007      334.412        4.368      872.108
03/16/2014  03:36:00      -91.764      -46.812      -13.028       26.076       19.551       14.321      679.937      382.246      205.104        0.602        0.063      103.014        9.080        0.008      334.392        4.334      872.097
03/16/2014  03:37:00      -92.661      -41.280      -14.781       21.449       19.266       13.960      460.060      371.164      194.886        0.577        0.051      101.440       12.723        0.016      334.364        4.289      872.091
03/16/2014  03:38:00      -74.651      -15.892      -20.630       24.921       19.340       16.306      621.074      374.034      265.888        0.376        0.063       76.324       14.982        0.039      334.475        4.473      872.094
03/16/2014  03:39:00      -86.567      -15.072      -18.039       16.416       18.375       10.566      269.495      337.648      111.633        0.438        0.036       87.869        9.112        0.011      334.464        4.455      872.092
03/16/2014  03:40:00      -78.792      -29.859       -8.312       16.821       15.279       13.164      282.944      233.448      173.296        0.393        0.034       84.260        6.735        0.006      334.445        4.422      872.079
03/16/2014  03:41:00      -86.944      -15.235       -9.758       15.661       15.486       13.643      245.255      239.812      186.136        0.428        0.034       88.269       10.434        0.014      334.493        4.502      872.070
03/16/2014  03:42:00      -91.665       -1.930      -15.610       12.344        9.146        7.928      152.370       83.646       62.859        0.447        0.015       91.686        4.222        0.002      334.640        4.747      872.070
03/16/2014  03:43:00      -89.169      -29.959       -8.798       18.111       16.838       14.505      328.020      283.517      210.400        0.487        0.041       94.068       11.888        0.016      334.524        4.554      872.070
03/16/2014  03:44:00      -87.886      -43.221       -8.329       18.367       13.889       15.518      337.351      192.914      240.799        0.522        0.039       97.938       13.996        0.020      334.548        4.592      872.067
03/16/2014  03:45:00      -83.050      -28.726      -11.597       13.224       10.681       11.471      174.880      114.092      131.585        0.414        0.021       87.878        3.846        0.002      334.578        4.642      872.066
03/16/2014  03:46:00      -91.289      -24.550      -13.360        9.667        8.526        8.495       93.442       72.688       72.159        0.468        0.012       94.533        5.529        0.003      334.598        4.676      872.062
03/16/2014  03:47:00      -77.343      -25.830      -14.955        9.490       11.990        7.837       90.060      143.756       61.425        0.358        0.015       81.542        4.439        0.003      334.588        4.661      872.058
03/16/2014  03:48:00      -79.933      -15.727      -15.057        8.136       11.147        9.337       66.197      124.249       87.181        0.357        0.014       81.465        0.872        0.000      334.595        4.671      872.044
03/16/2014  03:49:00      -89.502      -28.565      -14.751        8.442       10.761        8.364       71.263      115.803       69.962        0.465        0.013       93.950        2.371        0.001      334.617        4.707      872.027
03/16/2014  03:50:00      -90.796      -25.225      -11.610       12.829       14.167       11.998      164.576      200.716      143.954        0.476        0.025       94.235        8.798        0.009      334.671        4.797      872.005
03/16/2014  03:51:00      -75.054      -25.904       -8.198       11.987        9.208        9.465      143.692       84.788       89.579        0.334        0.016       79.398        5.707        0.005      334.764        4.952      871.998
03/16/2014  03:52:00      -57.138      -25.734       -6.165        6.168        7.041        6.233       38.050       49.581       38.854        0.205        0.006       62.666        2.164        0.001      334.801        5.015      871.994
03/16/2014  03:53:00      -58.930      -16.966      -10.459        8.107       10.307        7.241       65.720      106.227       52.433        0.205        0.011       61.324        4.417        0.005      334.794        5.002      871.989
03/16/2014  03:54:00      -74.827       -9.943      -10.652        7.392        8.200        7.230       54.641       67.238       52.268        0.299        0.009       75.485        2.826        0.001      334.712        4.865      871.990
03/16/2014  03:55:00      -91.556      -22.697      -12.890       13.074       11.154        6.930      170.940      124.419       48.030        0.470        0.017       94.327        4.349        0.002      334.615        4.705      871.995
03/16/2014  03:56:00     -113.895      -26.351      -13.785       11.513       11.533        8.642      132.540      133.005       74.688        0.710        0.017      116.904        4.337        0.001      334.642        4.747      872.005
03/16/2014  03:57:00      -97.169      -18.764       -4.275       29.907       15.066       12.813      894.452      226.972      164.172        0.555        0.064       98.964       15.284        0.024      334.676        4.805      872.017
03/16/2014  03:58:00     -101.142       -6.045      -13.369        9.314        6.836        5.698       86.745       46.734       32.466        0.531        0.008      101.323        3.116        0.001      334.689        4.828      872.024
03/16/2014  03:59:00      -94.150       -3.884      -15.686       11.341        8.982        8.480      128.616       80.680       71.915        0.470        0.014       94.230        3.245        0.001      334.638        4.743      872.014
03/16/2014  04:00:00      -81.633       -5.699      -14.084       13.443       12.971        9.691      180.723      168.239       93.918        0.367        0.022       81.831        7.290        0.008      334.685        4.821      871.996
03/16/2014  04:01:00     -102.636      -13.743      -14.982        8.859        7.519        7.077       78.481       56.528       50.078        0.557        0.009      103.552        4.090        0.002      334.716        4.872      871.982
03/16/2014  04:02:00      -52.070        2.455       -4.296       23.576       14.616       10.522      555.830      213.630      110.720        0.181        0.044       52.128        7.380        0.020      334.878        5.142      871.968
03/16/2014  04:03:00      -42.228        2.429       -8.520       12.245        5.410        6.281      149.933       29.264       39.450        0.104        0.011       42.298        2.163        0.003      334.981        5.313      871.947
03/16/2014  04:04:00      -58.093      -15.598      -12.584       13.187       17.373        9.687      173.904      301.827       93.835        0.217        0.028       60.151        7.878        0.017      334.833        5.067      871.931
03/16/2014  04:05:00      -68.830      -26.852       -9.622       10.332       14.546       10.383      106.756      211.596      107.802        0.299        0.021       73.882        7.676        0.011      334.641        4.747      871.921
03/16/2014  04:06:00      -73.294       -3.389       -8.946       25.924       19.080       20.743      672.058      364.056      430.274        0.346        0.073       73.372       16.946        0.053      334.505        4.521      871.915
03/16/2014  04:07:00      -67.202        1.319       -9.535       19.250       15.996       11.905      370.576      255.870      141.731        0.269        0.038       67.215        6.350        0.009      334.453        4.434      871.927
03/16/2014  04:08:00      -63.541      -10.722      -11.554       11.323        9.764        7.484      128.218       95.339       56.008        0.228        0.014       64.439        4.393        0.005      334.437        4.409      871.940
03/16/2014  04:09:00      -76.697      -14.909      -16.707       13.463       11.669        8.180      181.261      136.176       66.916        0.338        0.019       78.133        6.449        0.007      334.336        4.243      871.957
03/16/2014  04:10:00      -96.140       -9.359       -8.321       28.861       19.346       17.857      832.982      374.281      318.870        0.546        0.076       96.594       16.511        0.029      334.315        4.207      871.953
03/16/2014  04:11:00     -108.657       -1.398      -16.520       17.455       18.510       18.105      304.681      342.635      327.804        0.653        0.049      108.666        9.517        0.008      334.243        4.089      871.946
03/16/2014  04:12:00     -105.271        0.287      -15.107       20.816       17.638       13.689      433.305      311.102      187.377        0.612        0.047      105.271        7.990        0.006      334.192        4.003      871.931
03/16/2014  04:13:00      -85.477      -17.251      -14.839       20.881       19.509       13.841      436.007      380.590      191.569        0.442        0.050       87.200       11.768        0.018      334.228        4.063      871.923
03/16/2014  04:14:00      -77.943      -12.898       -1.940       27.160       20.971       13.960      737.640      439.798      194.895        0.381        0.069       79.003       15.476        0.038      334.247        4.095      871.931
03/16/2014  04:15:00      -85.151      -30.349      -11.685       19.768       16.216       16.393      390.776      262.955      268.716        0.462        0.046       90.398       12.056        0.018      334.282        4.153      871.929
03/16/2014  04:16:00     -100.903      -21.288      -10.119       23.598       16.721       14.021      556.855      279.588      196.583        0.588        0.052      103.124       13.424        0.017      334.281        4.149      871.916
03/16/2014  04:17:00      -76.761      -30.051       -9.873       16.073       17.695       11.231      258.326      313.109      126.125        0.379        0.035       82.433        7.499        0.008      334.284        4.156      871.908
03/16/2014  04:18:00     -107.419      -21.993      -13.091       12.063       14.602        8.938      145.515      213.221       79.893        0.632        0.022      109.647       10.016        0.008      334.371        4.302      871.900
03/16/2014  04:19:00     -114.260      -17.775      -14.222       17.908       16.255        7.769      320.701      264.233       60.356        0.711        0.032      115.634        8.235        0.005      334.420        4.382      871.891
03/16/2014  04:20:00      -88.234      -39.450      -10.181       16.490       16.526       12.025      271.921      273.115      144.608        0.507        0.034       96.651        9.826        0.010      334.503        4.519      871.900
03/16/2014  04:21:00      -90.613      -27.926       -9.545       11.893       11.044        8.370      141.454      121.981       70.059        0.471        0.017       94.819        4.552        0.002      334.505        4.523      871.894
03/16/2014  04:22:00      -70.910      -27.784       -3.586       18.482       13.546       12.675      341.570      183.482      160.658        0.325        0.034       76.159       12.211        0.026      334.575        4.637      871.882
03/16/2014  04:23:00      -66.523      -33.552        1.637       19.331       16.522       13.944      373.679      272.966      194.432        0.320        0.042       74.505       10.932        0.022      334.578        4.644      871.870
03/16/2014  04:24:00      -50.741      -32.453        3.426       35.865       21.872       19.323     1286.315      478.389      373.368        0.289        0.107       60.232       19.058        0.100      334.471        4.465      871.867
03/16/2014  04:25:00      -64.034      -41.092        3.401       40.561       18.092       20.683     1645.185      327.311      427.798        0.410        0.120       76.085       23.507        0.095      334.349        4.264      871.863
03/16/2014  04:26:00      -73.301      -40.362       -0.105       24.647       20.292       14.520      607.467      411.769      210.841        0.412        0.062       83.679       11.149        0.018      334.349        4.265      871.847
03/16/2014  04:27:00      -89.494      -52.815       -8.335       15.799       13.175       14.300      249.609      173.590      204.503        0.575        0.031      103.916        9.788        0.009      334.257        4.112      871.833
03/16/2014  04:28:00     -117.608      -42.505      -13.897       11.742       13.004       11.209      137.882      169.105      125.646        0.813        0.022      125.053        5.905        0.002      334.272        4.135      871.823
03/16/2014  04:29:00     -121.299      -38.515      -13.449       16.052       16.348       13.532      257.674      267.249      183.114        0.854        0.035      127.267        8.308        0.004      334.259        4.113      871.813
03/16/2014  04:30:00      -91.177      -56.534       -1.791       23.129       21.227       16.579      534.957      450.588      274.861        0.639        0.063      107.282       13.634        0.016      334.272        4.136      871.806
03/16/2014  04:31:00     -100.014      -27.171       -6.947       25.526       18.508       13.212      651.570      342.558      174.556        0.598        0.058      103.639       13.968        0.018      334.273        4.139      871.804
03/16/2014  04:32:00     -100.849      -37.586       -3.762       14.262       16.175       10.857      203.399      261.636      117.876        0.609        0.029      107.626        8.398        0.006      334.258        4.113      871.805
03/16/2014  04:33:00     -130.816      -44.862      -14.087       16.070       14.058       10.923      258.256      197.621      119.310        0.995        0.029      138.295        2.983        0.000      334.180        3.982      871.811
03/16/2014  04:34:00     -131.455      -36.747      -13.566       13.999       11.989       10.520      195.966      143.746      110.671        0.963        0.023      136.494        7.020        0.003      334.079        3.815      871.815
03/16/2014  04:35:00     -115.743      -43.622       -7.374       21.951       18.438       16.527      481.853      339.958      273.126        0.822        0.055      123.690       13.830        0.013      334.097        3.845      871.813
03/16/2014  04:36:00     -118.435      -16.275       -5.723       31.095       21.076       16.746      966.902      444.183      280.433        0.801        0.085      119.548       15.980        0.018      334.059        3.781      871.820
03/16/2014  04:37:00     -111.335      -23.654       -6.206       31.814       26.684       14.032     1012.124      712.021      196.888        0.746        0.096      113.820       15.208        0.018      334.126        3.893      871.820
03/16/2014  04:38:00      -63.120      -16.619        6.189       38.093       31.005       20.831     1451.042      961.314      433.937        0.357        0.142       65.271       16.874        0.067      334.211        4.034      871.809
03/16/2014  04:39:00      -88.043      -19.798       -1.957       38.467       35.160       24.283     1479.676     1236.224      589.681        0.573        0.165       90.242       22.057        0.060      334.220        4.049      871.805
03/16/2014  04:40:00      -66.433      -46.842        2.450       28.930       24.562       18.466      836.966      603.267      340.986        0.420        0.089       81.286       16.620        0.042      334.136        3.909      871.819
03/16/2014  04:41:00      -91.541      -54.070      -12.356       17.236       12.716        9.078      297.064      161.701       82.404        0.600        0.027      106.317        3.954        0.001      334.100        3.850      871.845
03/16/2014  04:42:00      -99.259      -40.768      -16.954       19.164       26.862       14.389      367.270      721.590      207.054        0.655        0.065      107.305       10.439        0.009      334.118        3.880      871.868
03/16/2014  04:43:00     -115.078      -34.570      -13.403       18.139       18.629       17.158      329.013      347.032      294.388        0.779        0.049      120.158       10.799        0.008      334.031        3.735      871.880
03/16/2014  04:44:00      -71.078      -25.844       -0.015       43.770       30.949       17.997     1915.836      957.819      323.901        0.446        0.160       75.630       22.809        0.091      334.024        3.725      871.889
03/16/2014  04:45:00      -82.775      -34.842       -4.602       30.340       21.774       16.431      920.509      474.104      269.967        0.488        0.083       89.809       16.787        0.035      334.086        3.826      871.883
03/16/2014  04:46:00      -84.093      -31.057       -6.559       27.521       17.242       16.670      757.385      297.286      277.878        0.471        0.067       89.645       18.174        0.041      334.104        3.855      871.875
03/16/2014  04:47:00     -110.870      -36.356      -12.332       20.501       16.571       15.955      420.301      274.589      254.569        0.736        0.047      116.678       10.919        0.009      334.109        3.865      871.877
03/16/2014  04:48:00     -118.568      -54.373       -4.400       23.637       19.882       19.527      558.699      395.302      381.320        0.918        0.067      130.440       15.028        0.013      334.130        3.901      871.870
03/16/2014  04:49:00      -93.803      -16.547      -18.191       34.033       26.547       16.190     1158.232      704.719      262.128        0.576        0.106       95.251       10.491        0.012      334.127        3.895      871.871
03/16/2014  04:50:00     -104.097      -36.624      -14.556       20.100       18.900       16.239      404.005      357.222      263.689        0.671        0.051      110.352        4.969        0.002      334.011        3.703      871.873
03/16/2014  04:51:00      -66.799      -47.785       -4.610       33.959       23.363       16.044     1153.199      545.825      257.397        0.436        0.098       82.131       18.038        0.048      334.022        3.721      871.878
03/16/2014  04:52:00      -67.276      -58.309       -5.869       27.133       22.671       16.970      736.225      513.970      287.973        0.475        0.077       89.028       11.110        0.016      334.059        3.782      871.887
03/16/2014  04:53:00      -41.945      -31.161       11.787       39.825       23.762       20.797     1586.013      564.610      432.506        0.273        0.129       52.253       21.546        0.170      334.069        3.799      871.885
03/16/2014  04:54:00      -84.129      -62.943       -3.242       42.507       27.647       18.489     1806.881      764.336      341.834        0.698        0.146      105.069       15.945        0.023      334.109        3.864      871.868
03/16/2014  04:55:00        5.253      -14.293        1.166       23.783       16.586       16.277      565.629      275.097      264.942        0.067        0.055       15.228       14.201        0.870      334.176        3.977      871.851
03/16/2014  04:56:00       -7.818      -27.251        2.103       32.339       14.910       11.918     1045.795      222.312      142.031        0.111        0.071       28.350        5.695        0.040      334.157        3.944      871.836
03/16/2014  04:57:00      -43.192      -15.628      -13.628       21.640       12.185       12.801      468.298      148.482      163.854        0.154        0.039       45.933       11.516        0.063      334.149        3.931      871.833
03/16/2014  04:58:00      -68.840      -31.790      -14.608       16.208       12.896       12.107      262.713      166.318      146.591        0.327        0.029       75.825        6.706        0.008      334.253        4.104      871.835
03/16/2014  04:59:00      -43.774      -28.576       -6.049       23.884       14.751       18.476      570.432      217.585      341.363        0.195        0.056       52.275        3.094        0.004      334.182        3.986      871.834
03/16/2014  05:00:00      -95.590      -15.152      -11.472       23.495       28.661       14.391      552.004      821.472      207.096        0.554        0.079       96.783       11.671        0.015      334.013        3.707      871.830
03/16/2014  05:01:00      -97.640      -12.811      -13.790       21.097       18.100       11.814      445.073      327.596      139.561        0.540        0.046       98.477        8.494        0.007      333.874        3.476      871.820
03/16/2014  05:02:00     -100.177      -29.354      -15.047       18.373       18.407       13.660      337.585      338.804      186.605        0.599        0.043      104.389        9.229        0.008      333.877        3.480      871.810
03/16/2014  05:03:00      -78.919      -19.802       -7.170       17.051       15.743       11.715      290.729      247.829      137.248        0.367        0.034       81.366       10.523        0.017      333.854        3.443      871.792
03/16/2014  05:04:00      -99.712      -13.081      -20.245       27.870       12.321       10.801      776.747      151.802      116.651        0.578        0.052      100.566       12.649        0.016      333.904        3.526      871.779
03/16/2014  05:05:00     -111.072      -10.385      -12.316       23.357       22.144       15.534      545.556      490.354      241.309        0.694        0.064      111.556       12.015        0.012      333.927        3.562      871.762
03/16/2014  05:06:00      -88.640        3.039      -10.595       16.022        8.575        9.747      256.689       73.531       95.008        0.420        0.021       88.692        7.295        0.007      334.159        3.948      871.742
03/16/2014  05:07:00      -70.983       -9.578      -14.449       12.759       10.456        9.985      162.803      109.334       99.693        0.286        0.019       71.626        6.174        0.007      334.219        4.047      871.724
03/16/2014  05:08:00      -66.638      -25.274      -17.341       12.708       16.388       10.535      161.499      268.566      110.996        0.296        0.027       71.270        5.170        0.005      334.157        3.946      871.718
03/16/2014  05:09:00      -74.331      -13.210       -8.720       20.340       20.889       10.960      413.715      436.353      120.121        0.337        0.049       75.496       10.798        0.020      334.051        3.767      871.717
03/16/2014  05:10:00      -88.585       -3.102      -16.563        8.108        9.086        7.281       65.747       82.558       53.020        0.417        0.010       88.639        2.202        0.001      334.077        3.813      871.707
03/16/2014  05:11:00      -95.878      -30.081      -13.781       15.877       12.954       10.376      252.085      167.805      107.662        0.541        0.026      100.486        2.601        0.001      333.977        3.646      871.715
03/16/2014  05:12:00     -102.634       -5.812      -18.522       15.898       13.915        9.809      252.757      193.625       96.216        0.573        0.027      102.799        3.703        0.001      333.931        3.570      871.734
03/16/2014  05:13:00      -68.981      -20.456      -17.558        9.945       12.236        7.727       98.902      149.728       59.701        0.290        0.015       71.950        3.788        0.003      334.050        3.767      871.732
03/16/2014  05:14:00     -106.779      -20.561      -11.328       37.794       28.446       15.513     1428.411      809.201      240.667        0.722        0.124      108.740       12.679        0.014      333.898        3.513      871.728
03/16/2014  05:15:00      -94.200      -10.163      -14.270       14.461       13.538        8.212      209.133      183.277       67.434        0.482        0.023       94.747        6.259        0.004      333.925        3.559      871.726
03/16/2014  05:16:00      -94.006      -48.785      -17.975       26.209       22.475       13.966      686.929      505.118      195.051        0.646        0.069      105.911       11.622        0.012      333.900        3.518      871.719
03/16/2014  05:17:00     -116.604      -43.428      -14.079       17.144       23.399       12.241      293.920      547.519      149.845        0.834        0.050      124.428        9.124        0.005      333.849        3.433      871.717
03/16/2014  05:18:00      -96.459      -21.627       -8.144       15.625       13.762       12.243      244.129      189.398      149.894        0.521        0.029       98.854        8.251        0.007      333.949        3.601      871.722
03/16/2014  05:19:00     -113.716      -28.811      -15.947       14.984       19.240       13.942      224.535      370.167      194.379        0.740        0.039      117.309        8.993        0.006      333.939        3.583      871.724
03/16/2014  05:20:00     -103.086      -35.287      -13.031       24.341       26.989       23.244      592.502      728.383      540.279        0.695        0.093      108.958       19.749        0.033      333.932        3.573      871.716
03/16/2014  05:21:00      -87.079      -16.781      -11.063       22.761       20.905       15.876      518.073      437.000      252.051        0.460        0.060       88.681       14.470        0.027      333.875        3.476      871.706
03/16/2014  05:22:00      -94.542      -34.811      -16.319       15.192       20.275       13.550      230.797      411.062      183.611        0.562        0.041      100.747       12.173        0.015      333.909        3.533      871.698
03/16/2014  05:23:00      -83.842      -35.996      -16.864       15.800       14.578       16.537      249.637      212.527      273.458        0.467        0.037       91.243        3.475        0.001      333.949        3.601      871.691
03/16/2014  05:24:00      -74.165      -31.274      -19.839       20.789       22.780       15.962      432.197      518.934      254.774        0.404        0.060       80.489       12.129        0.023      333.967        3.629      871.690
03/16/2014  05:25:00      -99.649      -29.284      -13.033       12.360       18.579        9.882      152.766      345.173       97.647        0.578        0.030      103.863        6.610        0.004      334.049        3.765      871.691
03/16/2014  05:26:00     -109.319      -24.979       -8.160       18.280       18.364       14.491      334.144      337.241      209.990        0.676        0.044      112.136        9.934        0.008      334.021        3.720      871.682
03/16/2014  05:27:00     -123.758      -30.544      -12.393       22.443       18.838       14.316      503.694      354.889      204.947        0.873        0.053      127.471        7.969        0.004      333.959        3.615      871.674
03/16/2014  05:28:00     -114.289      -38.808       -0.465       29.199       21.289       15.668      852.598      453.221      245.484        0.806        0.078      120.698       12.828        0.011      333.947        3.596      871.668
03/16/2014  05:29:00     -107.478      -43.528       -4.837       26.620       27.180       16.658      708.618      738.775      277.502        0.760        0.086      115.958       16.380        0.020      333.957        3.612      871.658
03/16/2014  05:30:00     -122.481      -35.984       -8.565       22.696       24.316       16.139      515.111      591.275      260.468        0.887        0.068      127.658       10.240        0.006      333.912        3.540      871.651
03/16/2014  05:31:00     -106.272      -48.499       -5.278       30.711       21.780       18.508      943.174      474.353      342.545        0.772        0.088      116.816       18.334        0.025      333.867        3.463      871.641
03/16/2014  05:32:00     -130.463      -18.400      -13.369       32.619       28.814       20.236     1063.968      830.268      409.505        0.992        0.115      131.754       17.223        0.017      333.730        3.236      871.639
03/16/2014  05:33:00     -101.428       -6.697       -2.083       36.094       32.624       24.235     1302.752     1064.326      587.327        0.665        0.148      101.649       22.778        0.050      333.708        3.199      871.633
03/16/2014  05:34:00     -124.094      -40.545       -4.725       38.006       29.249       17.757     1444.483      855.504      315.310        0.984        0.131      130.550       18.678        0.020      333.818        3.382      871.626
03/16/2014  05:35:00     -105.942      -39.237      -12.247       23.473       25.080       14.780      550.985      629.029      218.451        0.716        0.070      112.974       10.405        0.008      333.849        3.434      871.625
03/16/2014  05:36:00      -75.432      -44.211       -3.656       22.189       25.587       16.770      492.356      654.711      281.238        0.454        0.071       87.433        8.349        0.009      333.922        3.556      871.636
03/16/2014  05:37:00      -83.443      -55.567       -5.873       29.565       32.059       21.047      874.095     1027.774      442.963        0.621        0.117      100.252       20.686        0.043      333.884        3.493      871.637
03/16/2014  05:38:00     -123.005      -15.851      -16.343       20.348       20.471       13.841      414.026      419.070      191.585        0.834        0.051      124.022        6.816        0.003      333.820        3.386      871.631
03/16/2014  05:39:00      -81.406      -37.420       -9.188       22.614       23.995       14.321      511.407      575.742      205.093        0.470        0.065       89.595        9.464        0.011      333.857        3.447      871.615
03/16/2014  05:40:00     -107.488      -15.671       -4.417       30.371       23.979       15.527      922.384      574.987      241.079        0.678        0.087      108.625       13.771        0.016      333.784        3.326      871.609
03/16/2014  05:41:00      -80.881      -21.538       -7.323       21.718       18.720       14.307      471.688      350.439      204.676        0.404        0.051       83.700       10.848        0.017      333.757        3.280      871.607
03/16/2014  05:42:00      -40.442      -39.929      -13.905       34.438       20.027       14.816     1185.965      401.078      219.525        0.261        0.090       56.832        9.878        0.030      333.917        3.547      871.616
03/16/2014  05:43:00      -66.221      -51.549       -6.583       27.964       21.066       18.136      781.987      443.757      328.929        0.432        0.078       83.920       11.601        0.019      333.777        3.315      871.614
03/16/2014  05:44:00      -74.341      -27.331      -13.316       22.164       19.841       14.605      491.241      393.652      213.292        0.377        0.055       79.206       11.352        0.021      333.865        3.461      871.603
03/16/2014  05:45:00      -67.794      -33.348      -10.237       20.294       16.774       14.146      411.859      281.369      200.114        0.335        0.045       75.552        8.249        0.012      333.919        3.550      871.598
03/16/2014  05:46:00      -74.625      -49.946      -11.112       40.029       16.506       14.136     1602.353      272.436      199.813        0.513        0.104       89.797       12.968        0.021      333.838        3.415      871.599
03/16/2014  05:47:00     -120.501      -68.390      -16.811       20.475       16.114       11.949      419.223      259.648      142.770        1.015        0.041      138.556        8.485        0.004      333.740        3.252      871.607
03/16/2014  05:48:00     -130.131      -57.602       -9.883       26.588       19.146       15.480      706.913      366.553      239.635        1.083        0.066      142.309       12.344        0.008      333.737        3.249      871.627
03/16/2014  05:49:00      -90.237      -39.868       -6.973       18.299       19.044       15.958      334.849      362.655      254.668        0.537        0.048       98.652        6.859        0.005      333.795        3.346      871.631
03/16/2014  05:50:00      -98.938      -19.945       -7.100       32.142       22.028       20.465     1033.077      485.215      418.805        0.609        0.097      100.928       21.356        0.045      333.726        3.230      871.621
03/16/2014  05:51:00     -108.877      -37.203      -14.771       24.818       20.410       14.386      615.940      416.575      206.949        0.735        0.062      115.057       13.595        0.014      333.770        3.304      871.612
03/16/2014  05:52:00      -74.858      -40.840       -4.955       30.728       22.206       16.703      944.199      493.106      278.994        0.451        0.086       85.274       12.247        0.021      333.832        3.405      871.598
03/16/2014  05:53:00     -107.793      -19.502      -12.622       21.657       16.333       14.457      469.005      266.762      208.993        0.655        0.047      109.543       10.294        0.009      333.763        3.291      871.588
03/16/2014  05:54:00      -91.079      -22.360       -6.608       18.496       18.074       13.722      342.085      326.661      188.283        0.485        0.043       93.784        9.073        0.009      333.831        3.402      871.567
03/16/2014  05:55:00      -79.211      -34.115      -10.116       14.299       23.070       12.859      204.468      532.234      165.357        0.422        0.045       86.245        9.651        0.013      333.911        3.536      871.564
03/16/2014  05:56:00      -87.016      -16.260       -6.161       19.368       14.991       14.225      375.138      224.717      202.340        0.434        0.040       88.522       10.301        0.014      333.909        3.535      871.560
03/16/2014  05:57:00      -82.312      -27.568       -9.095       18.647       23.960       11.926      347.714      574.065      142.219        0.434        0.053       86.805        8.202        0.009      333.912        3.538      871.565
03/16/2014  05:58:00      -94.912       -6.976      -12.994       24.019       13.290        9.305      576.930      176.616       86.582        0.503        0.042       95.168        4.161        0.002      333.784        3.327      871.572
03/16/2014  05:59:00      -39.853      -22.667        4.102       17.771       17.181       13.705      315.799      295.181      187.830        0.146        0.040       45.848       10.731        0.055      333.782        3.323      871.575
03/16/2014  06:00:00      -40.709      -14.574       -9.799       14.370       12.181       10.170      206.506      148.382      103.432        0.121        0.023       43.239        5.772        0.018      333.791        3.337      871.575
03/16/2014  06:01:00      -33.179      -15.616       -3.852       14.169       10.907        8.295      200.762      118.971       68.806        0.087        0.019       36.670        3.864        0.011      333.967        3.629      871.570
03/16/2014  06:02:00      -32.523      -21.346       -2.518       12.062        8.356        6.841      145.488       69.825       46.798        0.089        0.013       38.903        3.253        0.007      333.872        3.472      871.578
03/16/2014  06:03:00      -22.380      -17.166        0.533       14.845        8.478        8.177      220.373       71.875       66.871        0.058        0.018       28.206        4.742        0.028      333.878        3.483      871.587
03/16/2014  06:04:00      -20.573      -26.195       -2.263       12.399       12.054        7.798      153.731      145.310       60.814        0.074        0.018       33.308        6.368        0.037      334.023        3.722      871.589
03/16/2014  06:05:00      -33.558      -11.004       -0.240       11.597       11.512        6.088      134.492      132.519       37.059        0.078        0.015       35.316        5.391        0.023      333.865        3.462      871.592
03/16/2014  06:06:00      -17.844       -2.954       -4.497       11.798        5.376        5.466      139.192       28.905       29.876        0.027        0.010       18.087        5.894        0.106      333.826        3.396      871.592
03/16/2014  06:07:00       -6.823       -3.409        3.488       10.898        8.134       10.228      118.757       66.169      104.609        0.018        0.014        7.627        8.905        1.363      333.978        3.648      871.588
03/16/2014  06:08:00      -14.904      -18.123       -4.076       17.547       11.845        9.400      307.898      140.294       88.354        0.055        0.027       23.464        4.496        0.037      334.003        3.689      871.590
03/16/2014  06:09:00      -20.992      -12.791       -5.174       12.771        9.195        7.040      163.095       84.548       49.561        0.046        0.015       24.582        7.173        0.085      334.073        3.806      871.596
03/16/2014  06:10:00      -41.994      -21.143       -7.730       16.959       12.388        6.445      287.605      153.463       41.543        0.138        0.024       47.017        5.754        0.015      333.899        3.518      871.603
03/16/2014  06:11:00      -21.340      -28.048       -4.951       18.155        9.981        8.470      329.587       99.628       71.733        0.088        0.025       35.243        5.998        0.029      333.872        3.473      871.609
03/16/2014  06:12:00      -34.621      -25.775       -5.705       12.895       10.479        9.278      166.281      109.800       86.078        0.113        0.018       43.163        5.080        0.014      333.760        3.287      871.600
03/16/2014  06:13:00      -42.595      -19.752      -10.071       11.976       10.106       10.355      143.436      102.133      107.229        0.133        0.018       46.952        6.284        0.018      333.870        3.468      871.605
03/16/2014  06:14:00      -43.966      -22.213      -10.453       13.487       14.915        8.548      181.907      222.458       73.061        0.151        0.024       49.258        5.897        0.014      333.928        3.565      871.593
03/16/2014  06:15:00      -53.672      -18.892      -10.613        9.687       11.476        7.026       93.831      131.693       49.367        0.181        0.014       56.899        4.028        0.005      333.909        3.533      871.586
03/16/2014  06:16:00      -65.524      -20.050      -10.530       13.507       12.144        7.424      182.444      147.466       55.115        0.260        0.019       68.523        5.553        0.007      333.831        3.403      871.572
03/16/2014  06:17:00      -88.290      -14.979      -10.661       19.064       13.968       15.789      363.452      195.119      249.291        0.447        0.040       89.552       13.447        0.023      333.748        3.267      871.571
03/16/2014  06:18:00      -77.025      -10.459      -20.339       15.327       12.493       12.298      234.922      156.078      151.247        0.350        0.027       77.732        6.883        0.008      333.678        3.149      871.579
03/16/2014  06:19:00      -67.751       -5.850      -19.743       13.874       15.066       10.193      192.484      226.987      103.901        0.277        0.026       68.003        8.691        0.016      333.663        3.123      871.583
03/16/2014  06:20:00      -55.266       -9.010      -15.370       12.556        9.916        9.176      157.661       98.332       84.202        0.186        0.017       55.996        6.803        0.015      333.726        3.230      871.586
03/16/2014  06:21:00      -50.726      -15.023       -2.951       14.261       10.837       10.332      203.376      117.450      106.742        0.162        0.021       52.904        8.128        0.024      333.854        3.443      871.586
03/16/2014  06:22:00      -34.301      -15.874       -4.031       11.609       11.787        7.141      134.774      138.933       50.988        0.088        0.016       37.796        1.974        0.003      334.135        3.910      871.597
03/16/2014  06:23:00      -47.488      -30.206       -3.624       20.615       18.243        8.410      424.966      332.805       70.725        0.200        0.041       56.280        4.065        0.005      333.955        3.609      871.609
03/16/2014  06:24:00      -75.789      -14.929      -12.766       16.115        9.406       10.563      259.703       88.467      111.585        0.329        0.023       77.246        1.861        0.001      333.832        3.405      871.608
03/16/2014  06:25:00      -64.764      -27.824       -8.784       14.745       11.565       10.076      217.409      133.757      101.535        0.275        0.023       70.488        5.686        0.007      333.796        3.346      871.602
03/16/2014  06:26:00      -68.274      -24.321       -7.398       11.605       15.940       11.897      134.669      254.093      141.535        0.292        0.027       72.477        8.838        0.015      333.774        3.311      871.598
03/16/2014  06:27:00      -77.387        3.655      -16.198       11.465       13.980       12.693      131.437      195.438      161.111        0.338        0.024       77.474        8.752        0.013      333.812        3.371      871.584
03/16/2014  06:28:00      -63.275        1.743       -5.302       12.542        9.299        8.648      157.302       86.468       74.784        0.218        0.016       63.299        4.922        0.006      333.890        3.504      871.565
03/16/2014  06:29:00      -43.496      -13.897       -8.395       11.460       14.651       10.038      131.336      214.650      100.771        0.130        0.022       45.662        4.477        0.010      334.000        3.684      871.548
03/16/2014  06:30:00      -29.680      -23.865       -3.350       20.014       13.596        9.339      400.554      184.860       87.218        0.107        0.034       38.085       11.571        0.092      334.053        3.772      871.542
03/16/2014  06:31:00      -12.473      -14.674        2.785       16.284        7.822       10.977      265.176       61.178      120.486        0.041        0.022       19.259        6.457        0.112      333.927        3.562      871.544
03/16/2014  06:32:00      -49.496      -12.242       -9.866        9.458        8.576        7.688       89.448       73.549       59.101        0.146        0.011       50.988        4.503        0.008      333.845        3.428      871.542
03/16/2014  06:33:00      -63.470      -16.539      -15.244       13.283       11.919        8.672      176.430      142.065       75.211        0.246        0.020       65.590        6.954        0.011      333.838        3.416      871.539
03/16/2014  06:34:00      -74.014      -25.277       -8.768       13.201       10.051        9.590      174.273      101.015       91.968        0.328        0.018       78.211        5.735        0.005      333.811        3.372      871.539
03/16/2014  06:35:00      -70.656      -13.006       -8.550        8.584       13.156        9.305       73.683      173.089       86.586        0.278        0.017       71.843        4.270        0.004      333.826        3.397      871.555
03/16/2014  06:36:00      -83.331      -12.442      -10.533       14.532       14.566        9.834      211.189      212.180       96.710        0.386        0.026       84.255        6.737        0.006      333.726        3.229      871.571
03/16/2014  06:37:00      -68.432      -21.276       -6.548       13.540       17.699       12.670      183.336      313.255      160.529        0.292        0.033       71.663        9.361        0.017      333.745        3.260      871.573
03/16/2014  06:38:00      -73.482      -10.064       -7.158       18.959       12.955       12.570      359.442      167.841      158.010        0.312        0.034       74.168       10.810        0.021      333.728        3.234      871.567
03/16/2014  06:39:00      -75.297       -4.224       -8.469       11.095       13.378       10.827      123.099      178.974      117.223        0.309        0.021       75.416        6.808        0.008      333.773        3.306      871.564
03/16/2014  06:40:00      -67.623       -5.942       -9.863       13.313        8.650       10.224      177.249       74.826      104.529        0.253        0.018       67.884        6.103        0.008      333.750        3.270      871.558
03/16/2014  06:41:00      -61.386       -6.651       -4.941       15.611       14.899        8.883      243.695      221.991       78.906        0.219        0.027       61.745        6.597        0.011      333.746        3.263      871.550
03/16/2014  06:42:00      -59.151        0.094       -9.449       15.823       10.264       11.281      250.365      105.359      127.270        0.204        0.024       59.151        6.204        0.011      333.738        3.249      871.550
03/16/2014  06:43:00      -44.523       -8.122      -10.019       15.652        7.550        8.088      244.987       56.999       65.423        0.126        0.018       45.257        9.220        0.042      333.811        3.370      871.554
03/16/2014  06:44:00      -27.322      -14.667       -9.847        8.991        8.345        4.815       80.842       69.647       23.182        0.062        0.009       31.010        3.583        0.013      333.837        3.413      871.557
03/16/2014  06:45:00      -29.298       -3.157       -7.035       10.001        6.375        6.427      100.021       40.639       41.308        0.055        0.009       29.468        4.320        0.021      333.845        3.429      871.557
03/16/2014  06:46:00      -19.478       -8.898       -2.382       12.727        8.517        7.346      161.979       72.537       53.962        0.038        0.014       21.414        4.439        0.043      333.774        3.310      871.565
03/16/2014  06:47:00       -5.179       -2.913       -1.930        7.430        4.628        5.796       55.199       21.415       33.596        0.007        0.006        5.942        3.566        0.360      333.930        3.567      871.567
03/16/2014  06:48:00       -3.809        0.293        2.937        4.297        4.027        3.956       18.468       16.219       15.647        0.004        0.003        3.820        2.325        0.370      333.924        3.558      871.575
03/16/2014  06:49:00       -8.711       -4.572        2.319        6.591        7.707        4.309       43.444       59.405       18.571        0.011        0.006        9.838        1.525        0.024      333.912        3.538      871.589
03/16/2014  06:50:00      -21.651      -11.783        3.621       10.302        5.921        6.453      106.127       35.064       41.643        0.040        0.009       24.650        4.960        0.040      333.860        3.451      871.598
03/16/2014  06:51:00       -1.352       -4.306        1.837        8.040        8.727        6.742       64.639       76.162       45.458        0.010        0.009        4.513        6.732        2.225      333.857        3.446      871.619
03/16/2014  06:52:00       12.987        3.149        2.897        8.531        4.020        4.126       72.784       16.158       17.025        0.015        0.005       13.363        2.629        0.039      334.201        4.018      871.621
03/16/2014  06:53:00        8.656        6.358        1.882        5.451        5.063        5.706       29.711       25.630       32.554        0.010        0.004       10.740        4.273        0.158      334.229        4.066      871.632
03/16/2014  06:54:00      -14.601       -7.101       -1.654       14.660       11.538        6.211      214.920      133.128       38.573        0.033        0.019       16.236        6.728        0.172      334.047        3.763      871.640
03/16/2014  06:55:00      -51.974       -8.624      -11.212       14.659       13.002        7.858      214.893      169.058       61.744        0.167        0.022       52.685        7.313        0.019      333.622        3.059      871.641
03/16/2014  06:56:00      -61.631       -0.437       -7.566       13.468        8.977       11.472      181.398       80.586      131.613        0.212        0.020       61.633        6.832        0.012      333.672        3.141      871.630
03/16/2014  06:57:00      -37.949       -7.779       -3.686       13.032        8.467        6.556      169.836       71.683       42.987        0.090        0.014       38.738        5.900        0.023      333.734        3.243      871.616
03/16/2014  06:58:00      -24.795       -5.471        1.944        8.777        9.264        4.938       77.034       85.818       24.382        0.042        0.009       25.392        1.800        0.005      333.864        3.459      871.612
03/16/2014  06:59:00      -39.687      -17.535      -10.201       11.799        7.601        7.863      139.228       57.782       61.824        0.112        0.013       43.388        3.662        0.007      333.785        3.327      871.620
03/16/2014  07:00:00      -35.868      -16.507      -12.515        9.450        8.507        6.678       89.304       72.372       44.592        0.096        0.010       39.484        2.457        0.004      333.787        3.331      871.634
03/16/2014  07:01:00      -56.527      -22.113       -9.335       13.330       11.233        8.952      177.700      126.182       80.133        0.208        0.019       60.698        2.814        0.002      333.617        3.050      871.641
03/16/2014  07:02:00      -43.564       -2.229       -4.808        8.753        9.192        5.857       76.620       84.500       34.304        0.106        0.010       43.621        4.355        0.010      333.857        3.447      871.650
03/16/2014  07:03:00      -47.622       -5.159       -7.446        6.725        8.857        6.917       45.221       78.451       47.852        0.126        0.009       47.900        4.447        0.009      333.780        3.320      871.650
03/16/2014  07:04:00      -56.084       -9.200       -8.472        9.641        9.945        7.374       92.955       98.906       54.376        0.177        0.012       56.834        5.152        0.008      333.713        3.209      871.655
03/16/2014  07:05:00      -75.082      -11.630      -10.847       15.580       12.160        9.439      242.733      147.861       89.085        0.318        0.024       75.977        2.634        0.001      333.520        2.888      871.680
03/16/2014  07:06:00      -98.187        4.014      -15.078       21.282       13.219       14.445      452.928      174.742      208.662        0.536        0.042       98.269        6.555        0.004      333.338        2.587      871.698
03/16/2014  07:07:00      -62.080        0.755      -12.807       16.058       11.581       13.477      257.844      134.129      181.619        0.230        0.029       62.085        8.771        0.020      333.430        2.739      871.714
03/16/2014  07:08:00      -58.102      -11.096      -17.894        9.824       10.677        6.722       96.517      114.005       45.183        0.204        0.013       59.152        5.231        0.008      333.560        2.954      871.719
03/16/2014  07:09:00      -72.020      -10.020      -18.014        9.493       12.311        7.714       90.126      151.569       59.503        0.296        0.015       72.714        7.404        0.010      333.576        2.981      871.721
03/16/2014  07:10:00      -68.114       -6.278      -15.155       10.917        9.847        9.924      119.188       96.956       98.485        0.261        0.016       68.403        6.864        0.010      333.505        2.862      871.726
03/16/2014  07:11:00      -66.316      -10.926      -16.427        8.386        8.776        6.062       70.330       77.024       36.750        0.249        0.009       67.210        3.571        0.003      333.539        2.919      871.720
03/16/2014  07:12:00      -54.650      -16.621      -10.112       10.441        8.269        6.434      109.013       68.379       41.397        0.179        0.011       57.122        4.359        0.006      333.688        3.167      871.710
03/16/2014  07:13:00      -35.409      -23.854       -5.494       10.900        6.323        5.311      118.809       39.980       28.204        0.102        0.009       42.694        2.834        0.004      333.718        3.217      871.697
03/16/2014  07:14:00      -12.615        7.258       -5.388       24.361       18.629       12.420      593.434      347.053      154.245        0.067        0.055       14.554       15.835        1.184      333.988        3.664      871.687
03/16/2014  07:15:00      -15.768        0.527       -1.889       25.467        9.470       17.005      648.549       89.676      289.164        0.064        0.051       15.777       17.688        1.257      333.936        3.578      871.679
03/16/2014  07:16:00       -5.436      -20.013       -5.260       13.619       15.851        9.118      185.472      251.254       83.137        0.049        0.026       20.738        5.917        0.081      334.059        3.782      871.684
03/16/2014  07:17:00      -56.803      -28.802      -12.375       12.040        8.793        6.272      144.973       77.314       39.340        0.224        0.013       63.687        2.604        0.002      333.642        3.091      871.698
03/16/2014  07:18:00      -76.252      -17.575      -12.558       18.817       13.146       10.084      354.072      172.804      101.678        0.345        0.031       78.251        6.928        0.008      333.500        2.854      871.708
03/16/2014  07:19:00     -110.772       -8.731      -18.521       12.389       12.215       11.213      153.477      149.195      125.730        0.656        0.021      111.116        4.835        0.002      333.363        2.630      871.720
03/16/2014  07:20:00      -94.048       -9.926      -16.912       15.744       12.772        9.693      247.880      163.120       93.962        0.487        0.025       94.570        4.903        0.003      333.308        2.538      871.735
03/16/2014  07:21:00      -79.294      -20.236      -13.255       17.157       11.307        8.863      294.347      127.851       78.553        0.369        0.025       81.836        6.202        0.006      333.417        2.718      871.749
03/16/2014  07:22:00      -87.303      -13.006      -12.739       10.235       17.345       11.660      104.749      300.836      135.965        0.425        0.027       88.266        4.730        0.003      333.515        2.880      871.762
03/16/2014  07:23:00      -70.112      -22.736      -12.070       16.398       13.891       11.200      268.910      192.952      125.444        0.308        0.029       73.707        8.524        0.013      333.491        2.840      871.769
03/16/2014  07:24:00      -72.614      -17.645       -7.331        9.525       11.802        9.669       90.720      139.295       93.496        0.298        0.016       74.727        7.391        0.010      333.508        2.868      871.768
03/16/2014  07:25:00      -62.875      -25.359       -8.002       18.461       21.006       15.518      340.804      441.271      240.810        0.284        0.051       67.797       11.114        0.027      333.492        2.842      871.771
03/16/2014  07:26:00      -68.937      -23.499      -15.700       15.977       15.507       11.281      255.267      240.466      127.264        0.309        0.031       72.832        7.084        0.009      333.493        2.841      871.777
03/16/2014  07:27:00      -88.368      -20.423      -11.227       19.721       16.384       12.884      388.936      268.425      165.995        0.459        0.041       90.698       11.735        0.017      333.435        2.746      871.784
03/16/2014  07:28:00      -94.490      -27.474      -13.104       21.692       20.258       13.430      470.547      410.385      180.353        0.546        0.053       98.403        9.101        0.009      333.381        2.658      871.795
03/16/2014  07:29:00      -89.302      -13.773       -7.601       24.673       22.364       14.817      608.764      500.144      219.530        0.478        0.066       90.358       12.456        0.019      333.311        2.544      871.801
03/16/2014  07:30:00      -96.431      -15.297      -12.592       23.290       22.027       16.645      542.433      485.186      277.068        0.550        0.065       97.637       13.504        0.019      333.310        2.541      871.808
03/16/2014  07:31:00     -101.722      -18.476      -11.266       26.135       16.123       14.250      683.031      259.955      203.062        0.598        0.057      103.386       11.807        0.013      333.285        2.500      871.802
03/16/2014  07:32:00     -112.541      -21.963      -15.902       16.807       16.847       12.546      282.470      283.836      157.396        0.706        0.036      114.664        6.359        0.003      333.399        2.687      871.801
03/16/2014  07:33:00      -71.917      -19.078      -13.363       26.922       18.954       13.823      724.767      359.245      191.067        0.349        0.064       74.404        8.952        0.014      333.539        2.918      871.803
03/16/2014  07:34:00      -65.532      -18.664      -14.980       18.721       18.268       12.439      350.464      333.713      154.731        0.285        0.042       68.138       11.083        0.026      333.543        2.925      871.807
03/16/2014  07:35:00      -76.432      -19.555       -6.459       26.546       20.904       15.521      704.693      436.993      240.912        0.382        0.069       78.894       11.477        0.021      333.453        2.778      871.815
03/16/2014  07:36:00      -79.314      -11.059       -5.908       14.402       18.770       12.627      207.409      352.296      159.433        0.358        0.036       80.081        6.153        0.006      333.502        2.857      871.820
03/16/2014  07:37:00     -107.959      -12.110      -11.132       28.432       17.429       16.026      808.380      303.770      256.830        0.665        0.068      108.636       11.319        0.011      333.503        2.861      871.826
03/16/2014  07:38:00     -110.487      -15.992       -8.497       31.240       19.389       16.819      975.942      375.941      282.872        0.708        0.082      111.638       16.907        0.023      333.519        2.888      871.837
03/16/2014  07:39:00     -103.429      -10.403       -7.857       27.774       24.346       18.965      771.391      592.731      359.683        0.630        0.086      103.951       14.326        0.019      333.520        2.888      871.840
03/16/2014  07:40:00     -111.150      -13.872      -11.540       21.591       17.656       17.648      466.170      311.752      311.454        0.688        0.054      112.012       13.578        0.015      333.569        2.970      871.834
03/16/2014  07:41:00     -105.083      -24.488      -12.924       20.916       17.005       12.667      437.487      289.184      160.462        0.635        0.044      107.899        8.372        0.006      333.673        3.141      871.836
03/16/2014  07:42:00      -87.060      -29.957       -7.445       18.519       18.372       12.427      342.960      337.514      154.421        0.468        0.042       92.070        3.916        0.002      333.692        3.174      871.830
03/16/2014  07:43:00     -113.676      -12.587       -4.050       48.758       35.508       26.592     2377.305     1260.827      707.127        0.872        0.217      114.371       26.871        0.055      333.636        3.081      871.834
03/16/2014  07:44:00     -101.065       -2.989       -1.071       38.432       25.810       21.989     1477.027      666.170      483.527        0.642        0.131      101.109       19.680        0.038      333.675        3.145      871.831
03/16/2014  07:45:00     -128.700        1.477       -4.556       44.449       29.064       25.285     1975.691      844.710      639.332        1.002        0.173      128.709       26.744        0.043      333.640        3.087      871.827
03/16/2014  07:46:00     -123.640       12.704       -3.704       47.734       30.310       24.654     2278.541      918.711      607.800        0.963        0.190      124.291       27.265        0.048      333.688        3.167      871.804
03/16/2014  07:47:00      -93.563       -1.014       -6.032       39.591       28.351       21.950     1567.437      803.751      481.810        0.582        0.143       93.568       20.013        0.046      333.695        3.179      871.794
03/16/2014  07:48:00      -92.484      -15.991       -2.315       29.034       16.845       14.444      842.980      283.770      208.636        0.507        0.067       93.857       14.280        0.023      333.736        3.247      871.794
03/16/2014  07:49:00      -84.333      -27.884       -2.681       15.074       17.054       10.116      227.234      290.836      102.331        0.426        0.031       88.823        6.117        0.005      333.925        3.560      871.788
03/16/2014  07:50:00      -87.354      -20.115       -5.274       17.369       17.195       13.657      301.699      295.671      186.527        0.442        0.039       89.640       12.663        0.020      333.912        3.539      871.779
03/16/2014  07:51:00     -106.779       -7.706       -8.500       21.769       10.569       10.631      473.889      111.714      113.011        0.612        0.035      107.056       11.794        0.012      333.882        3.488      871.771
03/16/2014  07:52:00     -109.012        1.877      -12.732       29.703       21.957       16.161      882.243      482.111      261.173        0.684        0.081      109.028       14.204        0.017      333.879        3.483      871.786
03/16/2014  07:53:00      -75.453      -21.856       -1.398       29.793       22.573       15.377      887.637      509.548      236.445        0.390        0.082       78.555       16.794        0.046      333.956        3.613      871.786
03/16/2014  07:54:00      -85.076       -9.932       -0.742       34.579       27.032       19.426     1195.733      730.749      377.379        0.482        0.115       85.654       15.620        0.033      333.953        3.608      871.792
03/16/2014  07:55:00     -122.588        8.071      -11.207       41.783       34.507       19.348     1745.831     1190.723      374.334        0.926        0.166      122.853       16.110        0.017      334.037        3.746      871.798
03/16/2014  07:56:00     -156.703       28.771       -7.652       36.677       39.148       21.310     1345.218     1532.579      454.118        1.439        0.167      159.322       16.847        0.011      334.028        3.732      871.796
03/16/2014  07:57:00     -123.354       42.812      -12.362       36.100       29.634       22.378     1303.217      878.149      500.780        0.994        0.134      130.572        8.410        0.004      334.144        3.923      871.797
03/16/2014  07:58:00      -98.518        8.537       -7.231       25.670       30.595       16.214      658.974      936.083      262.889        0.584        0.093       98.887       15.404        0.024      334.222        4.052      871.792
03/16/2014  07:59:00      -98.657       -8.453      -10.706       39.376       34.166       18.886     1550.458     1167.288      356.687        0.650        0.154       99.019       15.777        0.025      334.206        4.025      871.797
03/16/2014  08:00:00      -71.161       -7.849        0.593       43.748       40.946       23.413     1913.874     1676.591      548.152        0.463        0.207       71.593       21.197        0.088      334.138        3.913      871.797
03/16/2014  08:01:00      -96.804        1.020      -12.479       37.790       37.104       19.575     1428.068     1376.712      383.164        0.636        0.159       96.810       12.422        0.016      334.127        3.893      871.785
03/16/2014  08:02:00     -129.437       40.781      -15.883       42.654       29.346       22.850     1819.359      861.216      522.107        1.094        0.160      135.709       15.495        0.013      334.178        3.978      871.781
03/16/2014  08:03:00      -59.968       13.340       -6.665       36.017       26.895       16.405     1297.243      723.360      269.121        0.305        0.114       61.434       11.182        0.033      334.387        4.327      871.777
03/16/2014  08:04:00      -83.743       -6.691      -12.087       22.083       20.405       13.866      487.665      416.344      192.254        0.415        0.055       84.010       11.664        0.019      334.408        4.362      871.786
03/16/2014  08:05:00      -56.717      -20.676       -7.621       22.351       22.226       15.679      499.581      494.015      245.839        0.247        0.062       60.368        8.110        0.018      334.423        4.386      871.782
03/16/2014  08:06:00      -62.435      -16.445      -11.370       28.367       22.414       12.434      804.674      502.397      154.611        0.288        0.073       64.564        7.778        0.015      334.510        4.528      871.789
03/16/2014  08:07:00      -55.492      -44.695       -9.942       42.940       29.630       18.363     1843.812      877.961      337.205        0.412        0.153       71.253       15.903        0.050      334.554        4.604      871.790
03/16/2014  08:08:00      -91.981      -17.812        0.969       37.946       41.922       22.386     1439.870     1757.416      501.136        0.624        0.185       93.690       21.412        0.052      334.485        4.489      871.799
03/16/2014  08:09:00      -74.897       -6.608        3.590       36.154       23.337       17.370     1307.087      544.599      301.709        0.391        0.108       75.188       17.205        0.052      334.542        4.583      871.808
03/16/2014  08:10:00      -33.899        2.573       10.467       39.266       27.817       24.627     1541.805      773.768      606.482        0.209        0.146       33.997       26.599        0.612      334.927        5.222      871.807
03/16/2014  08:11:00      -42.098        1.180        1.888       23.885       26.767       22.471      570.507      716.467      504.928        0.178        0.090       42.114       17.600        0.175      334.773        4.967      871.819
03/16/2014  08:12:00       -4.730       -2.628       10.365       14.849       11.513       11.083      220.487      132.549      122.839        0.031        0.024        5.411        5.333        0.971      335.017        5.371      871.826
03/16/2014  08:13:00      -19.005      -11.005       -5.106        9.843        9.801        9.736       96.885       96.068       94.792        0.040        0.014       21.961        7.477        0.116      334.876        5.136      871.823
03/16/2014  08:14:00      -37.751      -13.768       -4.064       19.945       12.388        9.731      397.799      153.465       94.691        0.114        0.032       40.183        7.935        0.039      334.910        5.193      871.822
03/16/2014  08:15:00      -70.755      -19.455        3.720       24.049       28.550       17.080      578.365      815.082      291.729        0.354        0.084       73.381       14.697        0.040      334.826        5.056      871.826
03/16/2014  08:16:00      -64.542        0.732       -2.052       19.534       20.208       14.873      381.566      408.368      221.216        0.259        0.051       64.546       13.205        0.042      334.782        4.982      871.834
03/16/2014  08:17:00      -18.139       -9.278       -0.662       15.831        9.738        7.359      250.617       94.832       54.156        0.041        0.020       20.374        4.447        0.048      334.901        5.179      871.828
03/16/2014  08:18:00       -6.395       21.416        9.214       11.144       26.293       15.794      124.186      691.313      249.455        0.082        0.053       22.350       14.279        0.408      335.266        5.785      871.809
03/16/2014  08:19:00       33.645       49.466       20.253       25.142       18.932       16.539      632.134      358.413      273.548        0.263        0.063       59.824       11.820        0.039      335.208        5.690      871.802
03/16/2014  08:20:00       27.584       25.056       13.381       14.502        7.811       13.686      210.313       61.006      187.302        0.101        0.023       37.265        8.787        0.056      335.383        5.979      871.798
03/16/2014  08:21:00       30.865       35.764        7.218       20.149       19.015       17.206      405.965      361.589      296.062        0.167        0.053       47.241       12.231        0.067      335.412        6.028      871.795
03/16/2014  08:22:00       48.062       40.055        0.930       19.430       15.667       15.596      377.522      245.463      243.226        0.239        0.043       62.565       10.348        0.027      335.360        5.941      871.786
03/16/2014  08:23:00       42.150       52.173        3.926       16.520       16.478       19.955      272.923      271.517      398.195        0.273        0.047       67.072       12.604        0.035      335.381        5.976      871.770
03/16/2014  08:24:00       64.550       54.136       17.347       14.923       10.271       15.283      222.697      105.497      233.574        0.398        0.028       84.246        7.225        0.007      335.344        5.914      871.780
03/16/2014  08:25:00       49.874       41.818       10.567       13.877        9.362       15.762      192.572       87.641      248.431        0.244        0.026       65.086       12.047        0.034      335.287        5.820      871.784
03/16/2014  08:26:00       40.177       41.459        8.764       12.661       15.303       12.752      160.296      234.191      162.618        0.198        0.028       57.733        7.959        0.019      335.476        6.135      871.782
03/16/2014  08:27:00       13.355       24.527        6.414       27.541       20.403       14.446      758.532      416.301      208.688        0.110        0.069       27.928       13.467        0.233      335.468        6.122      871.793
03/16/2014  08:28:00       36.500       38.755        8.963       28.458       19.101       19.904      809.858      364.865      396.159        0.224        0.079       53.238       14.942        0.079      335.544        6.249      871.809
03/16/2014  08:29:00       49.555       36.454       -3.301       16.746       15.644       15.481      280.436      244.728      239.676        0.228        0.038       61.519        5.158        0.007      335.588        6.321      871.810
03/16/2014  08:30:00       27.361       37.796        6.162       16.364       18.329       16.145      267.797      335.953      260.653        0.154        0.043       46.660        8.921        0.037      335.720        6.541      871.809
03/16/2014  08:31:00       51.279       47.403       10.566       27.067       26.534       25.207      732.599      704.033      635.411        0.353        0.104       69.833       21.708        0.097      335.662        6.446      871.797
03/16/2014  08:32:00       46.263       49.085        0.252       33.347       21.617       23.068     1112.001      467.274      532.131        0.333        0.106       67.451       14.336        0.045      335.657        6.437      871.787
03/16/2014  08:33:00       29.674       41.325       20.897       22.773       30.354       24.431      518.614      921.383      596.871        0.253        0.102       50.875        8.263        0.026      335.791        6.660      871.783
03/16/2014  08:34:00       18.989       23.572       20.684       21.859       19.940       22.803      477.820      397.603      519.992        0.137        0.070       30.269       19.736        0.425      335.842        6.746      871.789
03/16/2014  08:35:00       15.437       23.084        5.981       20.900       21.873       16.872      436.795      478.430      284.674        0.100        0.060       27.770       13.499        0.236      335.922        6.879      871.789
03/16/2014  08:36:00       24.460       34.413        8.472       21.389       18.846       18.392      457.478      355.170      338.261        0.150        0.058       42.220        7.634        0.033      335.885        6.818      871.787
03/16/2014  08:37:00       56.244       42.355        8.024       21.100       13.886       21.564      445.194      192.823      465.002        0.306        0.055       70.408       12.893        0.034      335.612        6.363      871.772
03/16/2014  08:38:00       29.681       34.023       12.699       19.229       15.513       23.087      369.753      240.652      533.017        0.167        0.057       45.150       15.238        0.114      335.842        6.745      871.769
03/16/2014  08:39:00       52.527       30.791       12.172       18.456       17.636       19.003      340.633      311.045      361.118        0.243        0.051       60.887       10.471        0.030      335.695        6.501      871.770
03/16/2014  08:40:00       37.014        6.044        3.641       17.732       17.408       15.133      314.430      303.026      228.993        0.113        0.042       37.504       13.146        0.123      335.704        6.517      871.777
03/16/2014  08:41:00       31.884       38.103        4.351       18.250       19.835       15.118      333.055      393.440      228.550        0.172        0.048       49.683       10.191        0.042      335.942        6.910      871.774
03/16/2014  08:42:00       23.271       23.227        4.523       17.999       19.600       25.169      323.978      384.179      633.472        0.122        0.067       32.879       15.581        0.225      336.145        7.250      871.757
03/16/2014  08:43:00       16.727       46.389        2.573       24.899       21.019       22.322      619.978      441.790      498.287        0.200        0.078       49.313       17.634        0.128      336.185        7.317      871.754
03/16/2014  08:44:00       20.925       12.095        8.935       34.583       17.432       16.556     1195.975      303.889      274.115        0.122        0.089       24.169       16.539        0.468      336.134        7.232      871.759
03/16/2014  08:45:00      -37.647       24.828       -2.490       16.549       14.888       12.316      273.855      221.662      151.687        0.134        0.032       45.097        5.552        0.015      335.997        7.004      871.763
03/16/2014  08:46:00      -10.379       38.281        6.552       17.679       27.583       24.081      312.553      760.830      579.884        0.163        0.083       39.663       18.584        0.220      336.376        7.636      871.768
03/16/2014  08:47:00       -3.306       41.775        3.908       38.860       24.631       18.566     1510.123      606.705      344.696        0.212        0.123       41.905       12.407        0.088      336.266        7.452      871.777
03/16/2014  08:48:00      -46.555       -1.198        0.595       10.146       13.332        7.559      102.937      177.732       57.138        0.125        0.017       46.570        6.696        0.021      335.951        6.928      871.799
03/16/2014  08:49:00      -38.698      -11.487       15.476        8.703        9.468        8.242       75.739       89.645       67.936        0.105        0.012       40.367        3.115        0.006      336.086        7.152      871.809
03/16/2014  08:50:00      -13.034       29.678       36.400       23.443       21.998       15.600      549.568      483.920      243.365        0.183        0.064       32.414       10.257        0.100      336.441        7.746      871.812
03/16/2014  08:51:00       16.715        8.629       25.461       18.898       21.460        9.768      357.141      460.537       95.421        0.096        0.046       18.812        6.464        0.118      336.784        8.319      871.809
03/16/2014  08:52:00        0.478       20.688       35.072       15.234       21.985       20.646      232.068      483.344      426.243        0.140        0.057       20.693       15.044        0.529      336.901        8.514      871.794
03/16/2014  08:53:00       19.029       48.566       29.282       26.384       27.512       22.527      696.137      756.884      507.446        0.277        0.098       52.161       10.275        0.039      336.660        8.110      871.778
03/16/2014  08:54:00       -9.918       22.876       38.464       16.258       42.826       32.861      264.337     1834.098     1079.865        0.264        0.159       24.934       30.437        1.490      336.806        8.355      871.770
03/16/2014  08:55:00       52.054       56.283       19.279       43.061       26.940       35.961     1854.229      725.749     1293.229        0.506        0.194       76.664       28.140        0.135      336.508        7.858      871.774
03/16/2014  08:56:00       38.442       48.819        4.870       28.506       31.049       27.627      812.606      964.042      763.246        0.321        0.127       62.137       16.503        0.071      336.447        7.755      871.792
03/16/2014  08:57:00       16.876       16.394        9.233       25.368       26.376       18.403      643.532      695.694      338.659        0.116        0.084       23.528       10.977        0.218      336.574        7.967      871.804
03/16/2014  08:58:00       13.967       47.399       51.574       26.485       29.580       26.671      701.439      874.993      711.334        0.369        0.114       49.414       13.773        0.078      336.775        8.304      871.786
03/16/2014  08:59:00       20.872       52.153       50.765       27.675       31.293       19.637      765.899      979.245      385.619        0.393        0.107       56.174       12.407        0.049      336.679        8.144      871.773
03/16/2014  09:00:00       -2.305       26.629       52.238       15.846       37.443       23.284      251.089     1401.972      542.130        0.282        0.110       26.729       23.420        0.768      337.099        8.843      871.771
03/16/2014  09:01:00       42.502       51.150       31.581       43.667       36.261       31.493     1906.825     1314.847      991.820        0.482        0.211       66.503       25.765        0.150      336.764        8.285      871.765
03/16/2014  09:02:00       18.362       56.308       58.496       21.163       42.250       34.080      447.873     1785.094     1161.474        0.516        0.170       59.226       28.740        0.235      336.777        8.308      871.753
03/16/2014  09:03:00       51.275       61.209       63.328       33.958       31.816       18.719     1153.172     1012.257      350.404        0.645        0.126       79.848       17.511        0.048      336.543        7.914      871.748
03/16/2014  09:04:00       69.360       67.640       47.369       38.959       24.330       22.419     1517.805      591.925      502.596        0.712        0.131       96.881        8.901        0.008      336.436        7.738      871.763
03/16/2014  09:05:00       15.369       14.921       60.007       29.040       35.617       21.536      843.341     1268.539      463.786        0.332        0.129       21.421       21.411        0.999      336.958        8.610      871.777
03/16/2014  09:06:00       84.926       71.703       51.146       43.863       43.485       39.747     1923.983     1890.915     1579.832        1.018        0.270      111.148       33.464        0.091      336.545        7.918      871.780
03/16/2014  09:07:00      105.281       83.881       38.109       33.009       24.118       33.513     1089.572      581.673     1123.144        1.118        0.140      134.611       24.833        0.034      336.625        8.054      871.775
03/16/2014  09:08:00       34.961       26.425       62.534       41.726       72.470       34.759     1741.075     5251.836     1208.155        0.701        0.410       43.824       42.031        0.920      336.754        8.269      871.779
03/16/2014  09:09:00       79.888       39.349       36.993       50.340       38.708       40.837     2534.113     1498.343     1667.622        0.750        0.285       89.053       26.368        0.088      336.855        8.437      871.796
03/16/2014  09:10:00       99.382       97.654       67.810       48.832       40.219       41.180     2384.522     1617.542     1695.817        1.485        0.285      139.330       33.136        0.057      336.592        7.999      871.798
03/16/2014  09:11:00      152.561       89.567       29.398       35.660       26.728       32.255     1271.663      714.371     1040.366        1.759        0.151      176.910        6.979        0.002      336.335        7.569      871.783
03/16/2014  09:12:00       95.280       78.107       45.414       69.475       35.078       32.042     4826.753     1230.469     1026.686        1.216        0.354      123.203       31.275        0.064      336.675        8.137      871.766
03/16/2014  09:13:00        6.159       58.821       73.389       37.002       37.091       24.713     1369.128     1375.752      610.727        0.612        0.168       59.143       23.714        0.161      337.364        9.288      871.765
03/16/2014  09:14:00       23.722       50.424       59.345       33.784       58.626       33.789     1141.369     3436.968     1141.664        0.617        0.286       55.725       30.096        0.292      337.044        8.752      871.771
03/16/2014  09:15:00       15.639       73.899       89.724       42.533       47.834       28.629     1809.032     2288.134      819.643        0.934        0.246       75.536       22.788        0.091      336.961        8.615      871.773
03/16/2014  09:16:00       36.177       13.838       55.612       40.773       47.229       33.879     1662.416     2230.547     1147.805        0.482        0.252       38.734       31.677        0.669      337.025        8.723      871.769
03/16/2014  09:17:00       39.295       14.893       41.049       38.449       25.317       30.051     1478.297      640.959      903.034        0.324        0.151       42.023       25.106        0.357      337.184        8.988      871.766
03/16/2014  09:18:00       49.516       14.362       45.531       46.812       72.567       52.821     2191.378     5266.040     2790.019        0.749        0.512       51.557       60.026        1.356      337.044        8.753      871.749
03/16/2014  09:19:00       28.909       57.149       64.241       42.247       44.832       32.827     1784.829     2009.942     1077.614        0.655        0.244       64.045       26.157        0.167      337.138        8.911      871.741
03/16/2014  09:20:00        5.300       45.131       69.859       39.115       35.232       25.427     1529.983     1241.328      646.537        0.518        0.171       45.441       17.330        0.145      337.283        9.154      871.746
03/16/2014  09:21:00        7.293       31.456       76.585       28.287       38.936       25.517      800.150     1515.993      651.128        0.494        0.148       32.290       19.730        0.373      337.513        9.539      871.746
03/16/2014  09:22:00        3.121       35.670       79.417       29.024       49.789       28.660      842.396     2478.914      821.398        0.587        0.207       35.806       29.466        0.677      337.404        9.355      871.755
03/16/2014  09:23:00       30.181       68.530       87.601       45.351       39.428       24.336     2056.725     1554.566      592.217        0.874        0.210       74.881       27.223        0.132      337.141        8.914      871.747
03/16/2014  09:24:00       27.520       30.105       52.399       33.065       42.777       18.792     1093.302     1829.871      353.149        0.384        0.164       40.788       10.210        0.063      337.112        8.866      871.735
03/16/2014  09:25:00       31.230       36.234       50.749       37.308       28.696       26.781     1391.911      823.475      717.204        0.390        0.147       47.835       17.152        0.129      337.469        9.463      871.714
03/16/2014  09:26:00       99.050       88.506       50.175       40.503       23.865       39.661     1640.484      569.552     1573.024        1.197        0.189      132.831       21.945        0.027      336.814        8.369      871.692
03/16/2014  09:27:00      105.533       81.432       52.991       43.388       49.585       46.426     1882.514     2458.661     2155.379        1.354        0.325      133.298       27.089        0.041      337.132        8.899      871.659
03/16/2014  09:28:00       55.064       47.693       53.222       61.518       52.734       44.835     3784.427     2780.884     2010.145        0.836        0.429       72.847       40.774        0.313      337.357        9.277      871.654
03/16/2014  09:29:00       47.295       91.718       76.646       47.399       39.872       43.922     2246.643     1589.746     1929.111        1.114        0.288      103.194       35.175        0.116      337.261        9.117      871.659
03/16/2014  09:30:00       59.725       63.231       65.889       66.042       49.946       29.588     4361.578     2494.630      875.460        0.982        0.387       86.978       29.502        0.115      337.253        9.101      871.648
03/16/2014  09:31:00       12.722       47.447       63.884       34.715       28.817       33.234     1205.153      830.396     1104.526        0.482        0.157       49.123       20.753        0.178      337.793       10.007      871.628
03/16/2014  09:32:00       98.187       61.548       44.713       64.394       49.894       39.615     4146.532     2489.458     1569.340        1.182        0.410      115.883       39.458        0.116      337.344        9.255      871.614
03/16/2014  09:33:00       55.125       40.370       25.944       50.134       42.011       37.847     2513.420     1764.901     1432.395        0.553        0.286       68.327       23.166        0.115      337.441        9.416      871.609
03/16/2014  09:34:00       66.351       51.820       15.384       43.490       40.079       32.237     1891.405     1606.342     1039.241        0.593        0.227       84.189       23.574        0.078      337.522        9.553      871.595
03/16/2014  09:35:00       98.786       70.682       16.529       47.204       47.776       33.298     2228.208     2282.527     1108.759        1.032        0.281      121.469       20.326        0.028      337.388        9.328      871.584
03/16/2014  09:36:00       52.833       50.797       35.650       53.420       36.531       33.367     2853.726     1334.505     1113.355        0.597        0.265       73.291       32.848        0.201      337.616        9.710      871.583
03/16/2014  09:37:00       43.903       76.875       76.776       47.604       36.881       23.390     2266.096     1360.217      547.096        0.895        0.209       88.528       16.765        0.036      337.596        9.676      871.573
03/16/2014  09:38:00       74.083       61.177       42.000       32.200       40.050       32.334     1036.810     1604.019     1045.463        0.734        0.184       96.078       17.687        0.034      337.316        9.207      871.553
03/16/2014  09:39:00       21.093       53.655       45.388       38.914       34.424       29.752     1514.264     1185.040      885.172        0.448        0.179       57.652       19.202        0.111      337.803       10.024      871.538
03/16/2014  09:40:00       19.962       32.077       60.548       29.595       33.399       23.031      875.890     1115.511      530.413        0.381        0.126       37.781       12.349        0.107      338.087       10.501      871.524
03/16/2014  09:41:00       -9.345       38.455       55.876       19.990       33.107       33.172      399.620     1096.064     1100.371        0.364        0.130       39.574       18.828        0.226      338.129       10.570      871.515
03/16/2014  09:42:00       10.693       54.189       74.135       25.240       55.591       30.602      637.039     3090.348      936.492        0.660        0.233       55.234       35.254        0.407      337.950       10.271      871.504
03/16/2014  09:43:00        6.119       10.109       62.211       29.152       79.663       35.964      849.831     6346.259     1293.405        0.625        0.424       11.816       46.821       15.700      337.949       10.270      871.503
03/16/2014  09:44:00       56.550       91.769       56.507       42.373       26.811       35.306     1795.442      718.834     1246.486        0.929        0.188      107.793       23.959        0.049      337.573        9.637      871.496
03/16/2014  09:45:00       89.704       54.158        7.615       23.446       22.220       21.771      549.696      493.724      473.991        0.628        0.076      104.785       12.517        0.014      337.227        9.058      871.498
03/16/2014  09:46:00       34.570       37.297       33.764       26.481       29.294       29.414      701.221      858.136      865.198        0.307        0.121       50.854       25.908        0.260      337.650        9.767      871.497
03/16/2014  09:47:00       34.841       44.987       35.667       28.842       27.353       31.255      831.877      748.213      976.901        0.353        0.128       56.901       22.939        0.163      337.698        9.848      871.483
03/16/2014  09:48:00       97.850       86.383       59.154       40.929       19.078       31.996     1675.162      363.956     1023.751        1.180        0.153      130.525       28.036        0.046      337.451        9.434      871.465
03/16/2014  09:49:00       83.453       66.582       51.562       42.932       37.997       42.925     1843.127     1443.747     1842.581        0.959        0.256      106.759       19.645        0.034      337.604        9.690      871.464
03/16/2014  09:50:00       42.277       18.009       22.942       39.324       34.477       29.013     1546.349     1188.684      841.734        0.311        0.179       45.953       15.688        0.117      337.781        9.988      871.466
03/16/2014  09:51:00       75.615       65.105       56.780       32.832       27.790       29.106     1077.955      772.303      847.151        0.794        0.135       99.781       22.875        0.053      337.867       10.132      871.454
03/16/2014  09:52:00        8.809       76.411       84.061       26.052       43.834       29.583      678.725     1921.434      875.172        0.823        0.174       76.917       24.714        0.103      338.221       10.727      871.439
03/16/2014  09:53:00       13.844       -5.269       56.873       32.318       49.944       33.603     1044.474     2494.434     1129.128        0.406        0.233       14.812       30.371        4.204      338.456       11.120      871.441
03/16/2014  09:54:00       40.665      -21.577       24.263       43.694       56.232       35.538     1909.156     3162.035     1262.977        0.452        0.317       46.035       32.527        0.499      338.333       10.914      871.439
03/16/2014  09:55:00       27.328       53.287       79.635       39.307       42.638       36.228     1545.016     1818.032     1312.488        0.730        0.234       59.886       20.951        0.122      338.319       10.890      871.424
03/16/2014  09:56:00       41.290       24.066       57.519       42.197       48.986       32.896     1780.605     2399.630     1082.167        0.543        0.263       47.791       24.443        0.262      338.189       10.672      871.399
03/16/2014  09:57:00       17.791       12.644       31.881       38.013       25.185       26.460     1444.956      634.292      700.116        0.214        0.139       21.827       23.577        1.167      338.416       11.054      871.387
03/16/2014  09:58:00       -9.247       16.825       41.279       21.059       32.616       23.597      443.476     1063.805      556.796        0.207        0.103       19.199       14.945        0.606      338.725       11.573      871.365
03/16/2014  09:59:00        3.434       22.776       19.211       15.769       28.051       21.378      248.658      786.878      457.035        0.120        0.075       23.034       17.088        0.550      338.672       11.482      871.336
03/16/2014  10:00:00       27.125       51.393       52.602       55.478       68.493       46.473     3077.800     4691.236     2159.703        0.803        0.496       58.112       44.297        0.581      338.609       11.378      871.296
03/16/2014  10:01:00       49.241       85.451       76.039       48.086       36.802       40.333     2312.272     1354.376     1626.781        1.040        0.265       98.623       32.081        0.106      338.264       10.799      871.274
03/16/2014  10:02:00       20.407      112.655       95.774       31.406       43.896       28.487      986.311     1926.881      811.527        1.300        0.186      114.488       19.098        0.028      338.319       10.890      871.264
03/16/2014  10:03:00       98.749       68.098       29.741       57.824       49.935       46.476     3343.642     2493.484     2160.059        1.163        0.400      119.953       22.563        0.035      338.126       10.567      871.287
03/16/2014  10:04:00      128.969       83.992       16.224       66.160       40.852       26.727     4377.144     1668.864      714.326        1.535        0.338      153.908       17.581        0.013      337.926       10.229      871.305
03/16/2014  10:05:00      109.324       80.521       15.249       28.994       35.228       41.569      840.642     1241.020     1727.942        1.124        0.190      135.777       22.911        0.028      337.940       10.254      871.304
03/16/2014  10:06:00       73.008       62.854        8.787       34.938       28.511       27.403     1220.664      812.897      750.924        0.607        0.139       96.337       18.265        0.036      338.114       10.546      871.292
03/16/2014  10:07:00       72.834       54.400        2.715       55.795       50.173       30.319     3113.082     2517.318      919.262        0.741        0.327       90.908       25.549        0.079      338.448       11.106      871.269
03/16/2014  10:08:00       36.205       12.655       47.728       36.333       67.239       36.878     1320.059     4521.054     1359.977        0.547        0.360       38.353       35.862        0.874      338.794       11.688      871.240
03/16/2014  10:09:00       42.087       60.992       47.933       49.764       39.158       37.301     2476.446     1533.348     1391.380        0.659        0.270       74.103       28.432        0.147      338.749       11.612      871.199
03/16/2014  10:10:00       39.673       61.659       67.127       39.214       56.104       42.177     1537.742     3147.614     1778.925        0.817        0.323       73.320       43.976        0.360      338.304       10.865      871.153
03/16/2014  10:11:00       70.735       34.949        5.712       42.809       27.732       30.707     1832.611      769.077      942.916        0.490        0.177       78.898       25.181        0.102      338.506       11.204      871.140
03/16/2014  10:12:00       73.902       36.174        7.937       58.475       47.586       42.383     3419.270     2264.412     1796.337        0.716        0.374       82.280       24.863        0.091      338.690       11.512      871.135
03/16/2014  10:13:00      109.064       88.722       16.180       64.626       54.668       53.010     4176.514     2988.631     2810.061        1.500        0.499      140.593       31.256        0.049      338.430       11.076      871.126
03/16/2014  10:14:00      114.959       92.806       38.863       43.526       31.244       35.631     1894.473      976.157     1269.541        1.374        0.207      147.744       24.845        0.028      338.466       11.135      871.127
03/16/2014  10:15:00       56.477      100.359      101.402       59.804       45.604       33.327     3576.545     2079.751     1110.695        1.515        0.338      115.159       28.249        0.060      338.721       11.566      871.111
03/16/2014  10:16:00       21.297      -16.429       37.330       48.866      108.970       42.809     2387.915    11874.541     1832.581        0.910        0.805       26.898       57.350        4.546      338.808       11.712      871.122
03/16/2014  10:17:00       55.427       17.470       34.652       43.679       68.177       43.330     1907.855     4648.049     1877.477        0.650        0.422       58.115       41.128        0.501      338.731       11.582      871.127
03/16/2014  10:18:00       33.530       61.822       67.113       53.988       44.225       45.037     2914.732     1955.852     2028.350        0.817        0.345       70.330       35.370        0.253      338.870       11.816      871.116
03/16/2014  10:19:00       76.676       61.249       17.707       67.442       37.596       45.564     4548.365     1413.431     2076.043        0.899        0.402       98.136       43.554        0.197      338.903       11.871      871.089
03/16/2014  10:20:00       61.429       64.512       38.521       44.473       34.207       42.313     1977.880     1170.151     1790.416        0.718        0.247       89.080       30.522        0.117      338.856       11.792      871.072
03/16/2014  10:21:00       70.405       68.709       70.219       67.241       58.792       42.415     4521.362     3456.552     1799.034        1.219        0.489       98.376       40.579        0.170      338.768       11.644      871.054
03/16/2014  10:22:00       88.413       46.451       22.560       55.643       54.263       30.541     3096.103     2944.473      932.734        0.873        0.349       99.872       18.174        0.033      338.878       11.829      871.038
03/16/2014  10:23:00      110.621      113.208       70.960       56.766       42.879       43.563     3222.395     1838.573     1897.698        1.852        0.348      158.282       32.287        0.042      338.624       11.402      871.029
03/16/2014  10:24:00       91.832       75.270       26.208       47.152       28.140       33.406     2223.291      791.837     1115.968        0.946        0.207      118.738       27.529        0.054      338.391       11.011      871.045
03/16/2014  10:25:00       -4.126       23.159       32.240       45.912       57.025       22.136     2107.948     3251.882      489.998        0.372        0.292       23.524       20.540        0.762      338.988       12.014      871.062
03/16/2014  10:26:00       71.911       54.498       40.336       57.521       42.076       23.992     3308.699     1770.384      575.599        0.771        0.283       90.229       11.838        0.017      339.125       12.244      871.043
03/16/2014  10:27:00      109.267       70.742       24.457       36.663       35.977       31.656     1344.172     1294.340     1002.079        1.059        0.182      130.168       20.285        0.024      338.598       11.357      871.030
03/16/2014  10:28:00      128.725       68.432        7.227       45.381       37.071       38.450     2059.401     1374.237     1478.380        1.311        0.246      145.785       25.189        0.030      338.565       11.303      871.006
03/16/2014  10:29:00      129.941      102.218        5.683       60.442       33.352       40.462     3653.249     1112.330     1637.158        1.688        0.320      165.327       18.574        0.013      338.564       11.301      870.977
03/16/2014  10:30:00       99.568       61.010       -0.457       45.814       35.746       30.022     2098.912     1277.755      901.338        0.896        0.214      116.773       24.009        0.042      338.543       11.267      870.971
03/16/2014  10:31:00      115.922       83.994        0.623       30.125       34.825       25.749      907.489     1212.747      663.017        1.164        0.139      143.153       13.170        0.008      338.494       11.184      870.986
03/16/2014  10:32:00       62.163       51.147       11.482       27.533       38.854       25.426      758.066     1509.626      646.496        0.476        0.146       80.500        7.032        0.008      338.618       11.391      870.994
03/16/2014  10:33:00       75.793       57.776       -3.100       33.299       24.058       31.234     1108.826      578.790      975.583        0.588        0.133       95.303       12.026        0.016      338.808       11.712      870.982
03/16/2014  10:34:00       80.681       73.232       19.034       26.929       32.643       39.643      725.196     1065.595     1571.552        0.780        0.168      108.960       22.396        0.042      338.630       11.412      870.956
03/16/2014  10:35:00      131.078       62.839       33.262       67.654       42.901       37.270     4577.083     1840.477     1389.040        1.502        0.390      145.363       33.563        0.053      338.933       11.921      870.926
03/16/2014  10:36:00       17.417       13.510       60.875       44.659       98.671       34.895     1994.451     9736.057     1217.677        0.857        0.647       22.043       47.771        4.697      339.302       12.544      870.914
03/16/2014  10:37:00       11.341      -30.461       35.663       24.454       37.894       19.370      597.985     1435.991      375.203        0.237        0.120       32.504       16.920        0.271      339.334       12.597      870.912
03/16/2014  10:38:00        2.199        8.701       41.772       19.224       27.069       19.930      369.550      732.721      397.219        0.166        0.075        8.975       14.011        2.437      339.836       13.442      870.909
03/16/2014  10:39:00        5.917        1.947       31.049       24.539       26.314       16.605      602.180      692.401      275.725        0.129        0.079        6.229        9.308        2.233      339.852       13.469      870.903
03/16/2014  10:40:00       -3.433       -9.065       48.670       24.076       74.137       46.082      579.652     5496.326     2123.570        0.533        0.410        9.693       51.059       27.746      339.819       13.415      870.914
03/16/2014  10:41:00       62.440       69.784       62.356       55.792       65.963       42.610     3112.703     4351.163     1815.597        1.097        0.464       93.641       37.669        0.162      339.113       12.224      870.901
03/16/2014  10:42:00      124.660       96.907       80.531       65.950       56.553       51.639     4349.410     3198.232     2666.635        2.081        0.511      157.896       40.098        0.064      339.038       12.097      870.888
03/16/2014  10:43:00       79.589       46.921       50.058       63.130       47.701       48.281     3985.369     2275.349     2331.066        0.982        0.430       92.390       43.239        0.219      339.117       12.231      870.899
03/16/2014  10:44:00       -3.012       32.379       67.326       19.274       36.264       28.151      371.485     1315.092      792.481        0.403        0.124       32.519       24.954        0.589      339.769       13.331      870.880
03/16/2014  10:45:00        7.622       63.324       94.039       45.595       48.943       30.353     2078.875     2395.379      921.298        0.915        0.270       63.781       24.116        0.143      339.653       13.135      870.889
03/16/2014  10:46:00        0.038        9.256       40.015       31.729       35.172       26.506     1006.701     1237.099      702.544        0.232        0.147        9.256       17.388        3.529      339.895       13.544      870.899
03/16/2014  10:47:00       72.917       60.933        5.083       40.962       36.379       32.265     1677.925     1323.425     1041.036        0.655        0.202       95.025       22.461        0.056      339.488       12.856      870.891
03/16/2014  10:48:00       13.885       20.885       -8.846       49.216       48.230       22.871     2422.255     2326.125      523.095        0.299        0.264       25.080       19.298        0.592      339.265       12.480      870.885
03/16/2014  10:49:00      111.346      103.399       16.877       65.112       53.288       36.641     4239.580     2839.611     1342.591        1.590        0.421      151.952       26.166        0.030      339.461       12.809      870.857
03/16/2014  10:50:00      113.992       92.927       17.152       31.880       30.584       43.014     1016.343      935.408     1850.176        1.286        0.190      147.070       22.797        0.024      339.343       12.613      870.861
03/16/2014  10:51:00       72.871       52.916        5.536       44.740       23.636       22.752     2001.694      558.639      517.660        0.561        0.154       90.057        6.773        0.006      339.138       12.267      870.854
03/16/2014  10:52:00      -32.481       28.795      -20.709       37.726       22.526       19.416     1423.259      507.441      376.965        0.231        0.115       43.407       20.182        0.216      339.223       12.408      870.862
03/16/2014  10:53:00      -74.531       24.118      -12.347       15.883       24.103       18.357      252.267      580.973      336.983        0.373        0.059       78.336        5.402        0.005      339.103       12.207      870.851
03/16/2014  10:54:00       12.568        9.173        8.945       33.432       26.470       41.396     1117.715      700.654     1713.662        0.193        0.177       15.560       24.677        2.515      339.536       12.937      870.844
03/16/2014  10:55:00      -24.972      -14.050      -10.910       22.641       22.888       15.380      512.625      523.883      236.543        0.111        0.064       28.653        9.327        0.106      339.316       12.565      870.824
03/16/2014  10:56:00      -29.929       14.389        9.635       23.682       12.786       21.182      560.850      163.489      448.673        0.118        0.059       33.208       19.099        0.331      339.765       13.323      870.798
03/16/2014  10:57:00       95.461       42.478        9.994       38.477       33.917       30.397     1480.508     1150.382      923.992        0.729        0.178      104.485       14.706        0.020      339.596       13.038      870.775
03/16/2014  10:58:00       94.120       67.636       31.239       61.725       46.452       48.597     3810.016     2157.744     2361.691        1.137        0.416      115.902       37.688        0.106      339.787       13.360      870.740
03/16/2014  10:59:00      108.997       85.407       10.388       30.951       38.381       28.428      957.949     1473.129      808.140        1.126        0.162      138.473       20.134        0.021      339.382       12.676      870.714
03/16/2014  11:00:00       98.106       73.857       29.983       46.689       45.245       33.500     2179.844     2047.132     1122.244        1.066        0.267      122.799       11.104        0.008      339.662       13.149      870.705
03/16/2014  11:01:00       28.642       52.914       62.150       43.052       34.038       38.131     1853.443     1158.579     1453.982        0.597        0.223       60.169       36.053        0.359      340.062       13.824      870.701
03/16/2014  11:02:00       50.569       24.848       -1.740       44.531       27.654       20.716     1983.031      764.724      429.168        0.318        0.159       56.345       17.803        0.100      339.463       12.813      870.709
03/16/2014  11:03:00       24.175      -40.688        9.601       43.229       50.024       22.734     1868.719     2502.359      516.818        0.361        0.244       47.328       11.596        0.060      339.758       13.311      870.679
03/16/2014  11:04:00       37.917       45.594       58.338       60.455       58.115       30.389     3654.857     3377.392      923.515        0.744        0.398       59.300       32.686        0.304      340.140       13.956      870.648
03/16/2014  11:05:00      111.424      124.025       63.489       58.916       39.596       47.226     3471.134     1567.875     2230.289        1.955        0.363      166.726       32.751        0.039      339.697       13.207      870.610
03/16/2014  11:06:00       71.851       30.100       43.675       56.443       59.731       39.687     3185.855     3567.815     1575.087        0.815        0.416       77.901       32.367        0.173      339.758       13.312      870.582
03/16/2014  11:07:00       15.519       30.198       87.975       37.985       44.526       31.825     1442.861     1982.522     1012.857        0.666        0.222       33.952       33.875        0.995      340.349       14.307      870.561
03/16/2014  11:08:00      -12.724       78.867      109.536       20.543       46.483       32.866      422.025     2160.713     1080.188        1.102        0.183       79.887       32.594        0.166      340.148       13.967      870.550
03/16/2014  11:09:00       36.393       98.165       41.493       58.061       53.474       57.072     3371.113     2859.469     3257.236        1.108        0.474      104.694       40.656        0.151      340.101       13.890      870.557
03/16/2014  11:10:00       16.396       70.452        8.086       27.014       70.502       35.383      729.759     4970.577     1251.926        0.612        0.348       72.335       40.155        0.308      340.372       14.349      870.562
03/16/2014  11:11:00       59.909       54.498       -1.815       63.145       48.189       39.544     3987.347     2322.195     1563.763        0.722        0.394       80.988       11.806        0.021      340.217       14.085      870.556
03/16/2014  11:12:00      103.016       39.911       34.198       42.244       46.098       51.294     1784.526     2125.044     2631.052        0.996        0.327      110.477       28.284        0.066      339.970       13.669      870.574
03/16/2014  11:13:00       17.451       24.252      -17.673       28.478       22.096       14.757      810.996      488.215      217.759        0.136        0.076       29.878        9.584        0.103      339.905       13.559      870.566
03/16/2014  11:14:00        4.223       41.101       -2.253       27.716       30.084       19.004      768.198      905.075      361.134        0.187        0.102       41.318       11.010        0.071      340.336       14.287      870.548
03/16/2014  11:15:00       76.982       95.443       76.061       45.585       49.831       61.913     2078.010     2483.141     3833.266        1.461        0.420      122.619       30.937        0.064      340.432       14.447      870.523
03/16/2014  11:16:00       80.199       53.545       35.752       50.470       44.409       39.091     2547.254     1972.158     1528.125        0.831        0.302       96.431       26.915        0.078      340.422       14.432      870.492
03/16/2014  11:17:00       73.219       59.170        7.583       47.617       38.105       29.739     2267.370     1451.954      884.381        0.676        0.230       94.139        8.245        0.008      340.510       14.582      870.439
03/16/2014  11:18:00       44.445       80.108       92.932       54.072       53.666       43.485     2923.752     2880.023     1890.951        1.236        0.385       91.612       27.687        0.091      340.763       15.008      870.407
03/16/2014  11:19:00       48.929       72.312       45.482       56.038       41.821       47.856     3140.293     1748.965     2290.218        0.843        0.359       87.310       28.937        0.110      340.509       14.579      870.390
03/16/2014  11:20:00       54.103       53.022        1.498       66.768       35.799       29.330     4457.956     1281.535      860.273        0.617        0.330       75.752       25.179        0.110      340.359       14.326      870.398
03/16/2014  11:21:00      102.761       66.249       12.547       47.032       48.937       30.202     2211.964     2394.802      912.155        1.031        0.276      122.265       17.662        0.021      340.294       14.214      870.386
03/16/2014  11:22:00       73.706       75.413       32.247       44.808       27.354       43.438     2007.726      748.245     1886.877        0.840        0.232      105.450       27.242        0.067      340.373       14.348      870.365
03/16/2014  11:23:00      115.601      100.261       85.888      115.616       58.233       74.158    13367.007     3391.053     5499.395        2.652        1.113      153.022       76.010        0.247      340.537       14.623      870.325
03/16/2014  11:24:00      120.032       91.613       77.032       51.677       47.543       51.137     2670.473     2260.320     2614.952        1.814        0.377      150.998       26.378        0.031      340.345       14.300      870.296
03/16/2014  11:25:00      166.821      103.386       39.584       64.176       35.089       35.116     4118.506     1231.260     1233.118        2.333        0.329      196.260       27.261        0.019      340.220       14.088      870.288
03/16/2014  11:26:00      121.982      127.487       77.477       62.302       43.400       58.637     3881.520     1883.570     3438.353        2.317        0.460      176.444       33.523        0.036      340.638       14.796      870.270
03/16/2014  11:27:00       19.665       59.718       77.028       42.920       47.381       33.647     1842.157     2244.989     1132.127        0.755        0.261       62.873       26.976        0.184      340.959       15.339      870.265
03/16/2014  11:28:00       26.125        7.132       49.916       31.747       49.387       30.882     1007.878     2439.054      953.715        0.381        0.220       27.081       32.828        1.469      340.937       15.302      870.258
03/16/2014  11:29:00       54.664       98.120       96.016       74.527       50.706       56.732     5554.271     2571.098     3218.533        1.659        0.567      112.319       52.872        0.222      340.701       14.903      870.227
03/16/2014  11:30:00       53.235       44.143       44.008       52.186       37.049       39.032     2723.374     1372.635     1523.523        0.617        0.281       69.156       25.853        0.140      340.814       15.094      870.213
03/16/2014  11:31:00       12.856       33.519       65.901       41.195       72.370       44.198     1697.027     5237.485     1953.503        0.726        0.444       35.900       45.364        1.597      341.296       15.910      870.170
03/16/2014  11:32:00       61.744       76.587       87.871       52.496      101.164       56.002     2755.785    10234.154     3136.231        1.676        0.806       98.376       63.544        0.417      340.912       15.260      870.145
03/16/2014  11:33:00       17.990        7.665       37.566       36.756       49.504       43.431     1350.999     2450.677     1886.251        0.374        0.284       19.554       16.128        0.680      341.287       15.894      870.117
03/16/2014  11:34:00       56.813       19.151       61.285       68.518       61.179       49.951     4694.665     3742.901     2495.115        0.914        0.547       59.954       39.383        0.431      341.247       15.827      870.107
03/16/2014  11:35:00       21.396      -20.204       27.751       35.000       49.902       33.458     1224.991     2490.195     1119.447        0.323        0.242       29.428       11.959        0.165      341.211       15.766      870.096
03/16/2014  11:36:00       42.963       78.369       91.706       68.258       50.444       47.605     4659.169     2544.575     2266.234        1.293        0.473       89.373       38.468        0.185      341.119       15.612      870.085
03/16/2014  11:37:00       27.129      -12.629       59.438       45.430       58.804       49.324     2063.929     3457.951     2432.896        0.619        0.398       29.925       34.796        1.352      341.313       15.939      870.070
03/16/2014  11:38:00       60.901      -73.025       15.669       51.537       87.443       46.350     2656.059     7646.219     2148.339        1.087        0.623       95.088       58.977        0.385      341.063       15.516      870.043
03/16/2014  11:39:00       30.806       52.988       79.828       58.450       63.385       37.333     3416.347     4017.622     1393.774        0.948        0.441       61.292       39.504        0.415      341.357       16.014      870.030
03/16/2014  11:40:00      147.936       92.726       19.863       46.043       41.904       34.529     2119.988     1755.911     1192.255        1.797        0.253      174.594       20.021        0.013      340.559       14.663      870.037
03/16/2014  11:41:00      140.374      114.568       46.792       62.813       58.859       61.539     3945.480     3464.389     3787.087        2.311        0.560      181.192       45.058        0.062      341.220       15.780      870.027
03/16/2014  11:42:00      126.508       70.170       55.939       66.749       55.777       42.826     4455.426     3111.019     1834.032        1.673        0.470      144.665       33.758        0.054      341.003       15.413      870.032
03/16/2014  11:43:00       93.224       80.799       58.065       83.358       73.665       44.221     6948.620     5426.469     1955.479        1.646        0.717      123.366       40.727        0.109      340.964       15.346      870.031
03/16/2014  11:44:00       34.607       46.574       47.895       82.730       61.792       37.836     6844.272     3818.233     1431.532        0.887        0.605       58.024       32.830        0.320      341.643       16.499      870.021
03/16/2014  11:45:00       77.267       88.420       80.524       96.011       80.952       76.070     9218.204     6553.164     5786.586        2.091        1.078      117.423       65.197        0.308      341.058       15.505      870.010
03/16/2014  11:46:00       84.438       75.218       76.745       65.031       73.693       60.267     4229.042     5430.605     3632.151        1.598        0.665      113.082       54.212        0.230      341.095       15.570      870.023
03/16/2014  11:47:00       31.501       93.145      110.363       58.401       69.496       58.794     3410.729     4829.657     3456.702        1.677        0.585       98.328       56.780        0.333      341.225       15.789      870.020
03/16/2014  11:48:00      123.038       95.327       54.020       63.832       44.235       53.270     4074.480     1956.713     2837.741        1.800        0.443      155.646       42.385        0.074      341.032       15.463      870.007
03/16/2014  11:49:00      127.221      108.719       13.376       53.768       48.182       40.726     2891.051     2321.498     1658.629        1.753        0.344      167.347       20.023        0.014      340.985       15.382      869.989
03/16/2014  11:50:00      152.147       94.817       31.158       68.009       70.189       49.985     4625.280     4926.561     2498.481        2.258        0.603      179.273       41.235        0.053      341.297       15.910      869.966
03/16/2014  11:51:00       89.501       93.830       67.601      109.171       86.435       88.156    11918.346     7470.966     7771.397        2.427        1.358      129.670       83.757        0.417      341.536       16.315      869.937
03/16/2014  11:52:00       36.014      -52.571       25.870       83.348      111.086       68.592     6946.888    12340.161     4704.795        1.436        1.200       63.724       72.986        1.312      341.741       16.664      869.909
03/16/2014  11:53:00       78.418     -175.022      -12.737       58.576       63.301       39.373     3431.111     4007.065     1550.271        2.296        0.449      191.787       30.145        0.025      341.371       16.036      869.911
03/16/2014  11:54:00       70.319     -119.282        1.378       68.284       74.129       39.508     4662.653     5495.164     1560.873        1.544        0.586      138.466       40.712        0.086      341.505       16.263      869.912
03/16/2014  11:55:00       25.118     -189.163        8.320       70.827       67.554       50.343     5016.413     4563.572     2534.465        2.430        0.606      190.824       34.757        0.033      341.462       16.190      869.918
03/16/2014  11:56:00       22.642      -45.113       38.166       69.197       78.941       46.298     4788.162     6231.675     2143.546        0.858        0.658       50.476       50.583        1.004      341.674       16.552      869.920
03/16/2014  11:57:00       35.645     -130.692        2.331       59.334       73.183       44.408     3520.519     5355.792     1972.041        1.460        0.542      135.466       43.065        0.101      341.659       16.523      869.895
03/16/2014  11:58:00       84.195      -95.526      -13.398       69.976       72.806       48.887     4896.677     5300.698     2389.946        1.449        0.629      127.334       52.686        0.171      341.294       15.906      869.863
03/16/2014  11:59:00       13.192       14.420       59.228       47.275       64.906       46.168     2234.955     4212.737     2131.472        0.623        0.429       19.544       44.451        5.173      341.870       16.884      869.816
03/16/2014  12:00:00       22.389       29.618       92.541       48.396      112.709       74.676     2342.185    12703.386     5576.448        1.528        1.031       37.128       76.703        4.268      341.996       17.096      869.781
03/16/2014  12:01:00       62.123      -28.441       48.011       74.877      118.918       85.466     5606.627    14141.482     7304.458        1.701        1.353       68.324       95.834        1.967      341.727       16.639      869.773
03/16/2014  12:02:00       85.294     -147.096      -15.331       78.227       60.845       42.032     6119.531     3702.173     1766.703        2.037        0.579      170.036       38.701        0.052      341.524       16.295      869.757
03/16/2014  12:03:00       68.756      -95.395        4.439       51.877       86.201       44.395     2691.264     7430.613     1970.876        1.297        0.605      117.591       50.883        0.187      341.803       16.768      869.751
03/16/2014  12:04:00       26.123      -42.210       24.743       41.784       59.166       47.213     1745.934     3500.650     2229.097        0.527        0.374       49.640       45.905        0.855      342.212       17.463      869.755
03/16/2014  12:05:00        9.433      -50.010       24.440       54.485       78.317       43.488     2968.643     6133.539     1891.220        0.709        0.550       50.892       44.615        0.769      342.066       17.216      869.733
03/16/2014  12:06:00       12.739      -16.278       43.557       45.658       65.925       41.262     2084.684     4346.075     1702.552        0.523        0.407       20.670       25.043        1.468      342.221       17.479      869.716
03/16/2014  12:07:00       10.762       36.852       63.020       45.083       50.830       45.539     2032.432     2583.648     2073.768        0.607        0.334       38.391       38.734        1.018      342.308       17.627      869.701
03/16/2014  12:08:00      -10.452      -38.807       24.570       31.332       72.868       39.990      981.695     5309.817     1599.166        0.505        0.395       40.190       42.618        1.124      342.528       18.001      869.676
03/16/2014  12:09:00       66.832     -126.019       -9.352       83.559       70.051       34.809     6982.038     4907.079     1211.676        1.677        0.655      142.644       34.323        0.058      341.721       16.629      869.674
03/16/2014  12:10:00       65.577      -74.775       16.916       51.142       44.280       41.630     2615.545     1960.701     1733.050        0.824        0.315       99.457       29.588        0.089      341.972       17.057      869.676
03/16/2014  12:11:00       78.449     -111.589       -1.184       86.135       91.544       61.965     7419.257     8380.282     3839.636        1.912        0.982      136.405       72.616        0.283      341.925       16.974      869.642
03/16/2014  12:12:00       51.061     -127.983      -26.377       53.794       71.598       46.824     2893.793     5126.281     2192.499        1.495        0.511      137.793       36.205        0.069      341.925       16.976      869.625
03/16/2014  12:13:00       80.575      -13.012       26.431       60.023       96.759       53.543     3602.808     9362.210     2866.840        1.159        0.792       81.619       60.590        0.551      341.941       17.004      869.620
03/16/2014  12:14:00       17.581       31.015       56.068       32.432       39.313       23.100     1051.853     1545.481      533.614        0.377        0.157       35.651       14.699        0.170      342.033       17.160      869.602
03/16/2014  12:15:00       14.638       18.679       14.605       17.202       25.045       25.970      295.907      627.264      674.422        0.119        0.080       23.731       12.935        0.297      342.145       17.351      869.585
03/16/2014  12:16:00       31.332       30.783       51.946       39.704       63.197       58.868     1576.410     3993.874     3465.428        0.683        0.452       43.923       54.028        1.513      342.400       17.782      869.561
03/16/2014  12:17:00       -6.163        5.558       52.914       31.146       76.428       51.644      970.099     5841.208     2667.128        0.617        0.474        8.299       31.595       14.492      342.413       17.805      869.532
03/16/2014  12:18:00       84.212       46.012       44.467       68.397      103.941       60.006     4678.108    10803.791     3600.681        1.513        0.954       95.962       53.382        0.309      341.967       17.047      869.517
03/16/2014  12:19:00       56.710       68.891       30.108       43.128       37.230       38.873     1860.029     1386.099     1511.122        0.681        0.238       89.230       11.826        0.018      342.203       17.448      869.510
03/16/2014  12:20:00       27.594      -45.088        8.702       30.859       36.617       25.680      952.253     1340.778      659.451        0.291        0.148       52.862       17.222        0.106      342.458       17.882      869.500
03/16/2014  12:21:00       37.831        0.335       33.467       50.099       36.785       32.376     2509.958     1353.159     1048.186        0.373        0.246       37.832       23.345        0.381      342.677       18.255      869.474
03/16/2014  12:22:00       67.598      -72.319       26.524       79.976      105.408       64.221     6396.133    11110.932     4124.361        1.606        1.082       98.993       84.892        0.735      342.392       17.769      869.467
03/16/2014  12:23:00      127.588     -190.130      -24.133       46.224       44.643       35.681     2136.639     1992.991     1273.167        2.921        0.270      228.972       29.565        0.017      341.947       17.009      869.442
03/16/2014  12:24:00      -15.313       23.977       30.025       25.080       37.603       41.494      628.990     1414.011     1721.775        0.274        0.188       28.450       23.868        0.704      342.583       18.095      869.455
03/16/2014  12:25:00       50.991       45.722       23.281       53.937       34.370       36.746     2909.208     1181.293     1350.278        0.534        0.272       68.488       20.926        0.093      342.517       17.982      869.443
03/16/2014  12:26:00       74.127       40.110       -6.724       39.130       30.736       30.408     1531.160      944.674      924.651        0.527        0.170       84.283       11.956        0.020      342.068       17.219      869.440
03/16/2014  12:27:00       14.521       48.352        0.643       30.257       40.188       18.705      915.485     1615.059      349.866        0.271        0.144       50.485       10.631        0.044      342.494       17.942      869.437
03/16/2014  12:28:00       42.186      102.645      -11.383       35.802       51.827       31.962     1281.780     2686.054     1021.575        0.872        0.249      110.976       29.457        0.070      342.369       17.730      869.440
03/16/2014  12:29:00       15.843       44.598       -1.137       30.612       46.520       26.740      937.110     2164.151      715.015        0.303        0.191       47.328       23.725        0.251      342.631       18.177      869.450
03/16/2014  12:30:00       91.330       88.161       15.186       55.670       55.237       44.286     3099.151     3051.087     1961.235        1.223        0.406      126.939       39.412        0.096      342.395       17.772      869.431
03/16/2014  12:31:00      111.481       60.304       20.893       62.014       53.723       36.204     3845.741     2886.129     1310.759        1.227        0.402      126.746       30.921        0.060      342.521       17.989      869.421
03/16/2014  12:32:00       44.836       50.163        7.223       43.508       26.730       30.602     1892.982      714.479      936.466        0.406        0.177       67.280       17.855        0.070      342.479       17.918      869.407
03/16/2014  12:33:00       81.719       68.901       22.611      107.146       50.755       41.911    11480.371     2576.100     1756.527        1.387        0.791      106.890       32.145        0.090      342.768       18.409      869.387
03/16/2014  12:34:00       84.162       94.282       44.443       70.148       47.164       47.256     4920.780     2224.429     2233.099        1.366        0.469      126.382       32.001        0.064      342.979       18.768      869.380
03/16/2014  12:35:00       36.259       53.115       34.356       52.353       42.231       39.027     2740.818     1783.471     1523.076        0.568        0.302       64.311       29.700        0.213      343.102       18.978      869.368
03/16/2014  12:36:00       66.909       47.368        9.332       48.721       46.289       36.480     2373.755     2142.691     1330.765        0.633        0.292       81.978       26.532        0.105      342.981       18.770      869.365
03/16/2014  12:37:00       74.162       40.881      -11.313       44.320       32.685       27.445     1964.266     1068.310      753.245        0.554        0.189       84.684       14.871        0.031      342.512       17.972      869.348
03/16/2014  12:38:00       -9.821      -14.648       -2.319       37.258       34.119       35.619     1388.175     1164.081     1268.679        0.207        0.191       17.636       26.362        2.235      342.700       18.295      869.324
03/16/2014  12:39:00       70.299       41.513       40.130       55.794       43.697       42.425     3112.926     1909.452     1799.908        0.755        0.341       81.641       33.742        0.171      342.978       18.767      869.286
03/16/2014  12:40:00      119.508       82.699       22.084       45.459       32.465       29.009     2066.560     1053.993      841.538        1.278        0.198      145.332        4.264        0.001      342.500       17.952      869.240
03/16/2014  12:41:00       24.366       70.344       10.979       43.629       39.782       27.608     1903.478     1582.595      762.216        0.495        0.212       74.444       23.435        0.099      342.763       18.401      869.232
03/16/2014  12:42:00       -4.511        6.497       -8.591       30.317       46.033       25.651      919.141     2119.048      657.993        0.192        0.185        7.909       11.569        2.139      343.232       19.199      869.205
03/16/2014  12:43:00       52.346      -40.256       31.575       64.907       78.379       38.895     4212.980     6143.267     1512.786        0.861        0.593       66.035       52.349        0.628      343.336       19.376      869.182
03/16/2014  12:44:00       45.667       80.836       91.368       67.219       76.679       56.590     4518.361     5879.706     3202.419        1.528        0.680       92.844       58.488        0.397      343.345       19.391      869.137
03/16/2014  12:45:00       23.277       -0.760       42.696       36.790       45.710       30.822     1353.520     2089.430      949.981        0.338        0.220       23.289       29.334        1.586      343.650       19.912      869.115
03/16/2014  12:46:00       68.920      -71.337       19.530       64.649       74.715       50.698     4179.540     5582.267     2570.317        1.127        0.617       99.191       47.379        0.228      343.377       19.444      869.079
03/16/2014  12:47:00       24.025       33.632       88.562       57.448      100.439       66.137     3300.300    10088.043     4374.164        1.365        0.888       41.332       75.303        3.319      343.487       19.634      869.052
03/16/2014  12:48:00       11.362       35.443       69.895       43.537       51.470       42.252     1895.435     2649.200     1785.241        0.630        0.316       37.219       32.245        0.751      343.783       20.139      869.021
03/16/2014  12:49:00       52.947      -36.866       39.175       64.124       88.473       63.844     4111.903     7827.504     4076.061        1.085        0.801       64.517       73.168        1.286      343.445       19.562      868.985
03/16/2014  12:50:00       50.478      -97.646      -16.732       33.277       40.469       31.707     1107.385     1637.768     1005.340        0.806        0.188      109.922       10.610        0.009      343.090       18.958      868.981
03/16/2014  12:51:00        9.382      -80.516      -16.492       59.161       33.902       17.992     3500.030     1149.340      323.727        0.591        0.249       81.061       20.175        0.062      342.943       18.707      868.962
03/16/2014  12:52:00      -47.712      -21.843       -6.533       54.533       20.856       27.478     2973.864      434.974      755.034        0.348        0.208       52.474       32.794        0.391      342.943       18.707      868.932
03/16/2014  12:53:00       11.633        5.392       51.400       29.914       33.093       28.189      894.820     1095.177      794.616        0.279        0.139       12.822       19.603        2.337      343.873       20.292      868.882
03/16/2014  12:54:00       12.868       73.140      101.408       38.211       46.131       22.668     1460.071     2128.079      513.820        0.995        0.205       74.263       18.846        0.064      343.663       19.934      868.855
03/16/2014  12:55:00       31.387        2.258       46.821       47.051       82.384       38.342     2213.801     6787.138     1470.143        0.682        0.524       31.468       46.196        2.155      343.493       19.643      868.841
03/16/2014  12:56:00       25.081      -79.009       22.477       44.216       78.934       49.411     1955.082     6230.533     2441.448        0.900        0.531       82.894       42.845        0.267      343.555       19.750      868.834
03/16/2014  12:57:00       77.053     -129.517        2.818       48.716      102.685       55.341     2373.232    10544.295     3062.637        1.935        0.799      150.705       62.024        0.169      343.622       19.863      868.843
03/16/2014  12:58:00      170.826     -226.970      -47.804       90.937       86.049       46.955     8269.557     7404.420     2204.805        5.043        0.894      284.071       49.550        0.030      343.232       19.196      868.823
03/16/2014  12:59:00       60.289      -49.612       22.930       73.989       99.447       62.446     5474.443     9889.753     3899.455        1.294        0.963       78.078       60.897        0.608      343.551       19.741      868.790
03/16/2014  13:00:00       58.460      -46.499       37.032       57.367      104.627       67.059     3290.986    10946.772     4496.850        1.284        0.937       74.698       74.255        0.988      343.461       19.589      868.758
03/16/2014  13:01:00       48.248     -120.091      -18.926       58.488       48.670       31.178     3420.881     2368.781      972.050        1.193        0.338      129.420       27.669        0.046      343.325       19.357      868.753
03/16/2014  13:02:00       84.404      -65.857      -13.976       37.503       45.468       31.995     1406.512     2067.348     1023.651        0.808        0.225      107.057       26.468        0.061      343.492       19.641      868.756
03/16/2014  13:03:00       56.938       -7.294       29.664       48.642       58.776       43.734     2366.043     3454.669     1912.630        0.595        0.387       57.403       40.710        0.503      343.794       20.157      868.726
03/16/2014  13:04:00      -16.698      -59.282        3.091       48.413       46.400       42.483     2343.773     2152.996     1804.823        0.505        0.315       61.589       25.370        0.170      344.031       20.562      868.710
03/16/2014  13:05:00        6.517        5.541       11.380       55.477       50.434       34.810     3077.718     2543.632     1211.766        0.352        0.342        8.554       25.681        9.013      343.954       20.430      868.673
03/16/2014  13:06:00       37.488      -41.559       22.362       51.853       71.709       51.506     2688.758     5142.174     2652.844        0.706        0.524       55.969       48.052        0.737      344.086       20.656      868.655
03/16/2014  13:07:00       51.644       71.302       79.291       47.669       73.932       47.283     2272.330     5465.953     2235.653        1.200        0.499       88.040       53.438        0.368      343.873       20.292      868.601
03/16/2014  13:08:00      -22.789     -142.998      -22.906       80.901       51.248       36.572     6544.933     2626.401     1337.506        1.600        0.525      144.802       33.431        0.053      344.010       20.524      868.583
03/16/2014  13:09:00       19.240        4.958       58.793       58.280       54.926       41.540     3396.525     3016.891     1725.551        0.599        0.407       19.869       32.336        2.649      344.265       20.962      868.561
03/16/2014  13:10:00        8.523      -80.538       14.902       77.001       57.363       46.030     5929.159     3290.473     2118.722        0.906        0.567       80.988       40.019        0.244      344.306       21.032      868.554
03/16/2014  13:11:00        0.584     -136.857       -5.987       78.864       65.031       47.683     6219.594     4228.969     2273.699        1.574        0.636      136.858       30.210        0.049      344.213       20.872      868.553
03/16/2014  13:12:00       29.724     -129.621      -18.600       85.665       53.218       37.014     7338.551     2832.143     1370.001        1.478        0.577      132.985       30.961        0.054      343.971       20.459      868.559
03/16/2014  13:13:00     -107.440      -27.547      -16.104       60.733       44.410       22.794     3688.499     1972.250      519.573        0.937        0.309      110.916       18.367        0.027      343.818       20.196      868.562
03/16/2014  13:14:00      -18.778     -163.611      -16.179       72.671       58.236       41.197     5281.079     3391.407     1697.184        1.887        0.518      164.685       30.433        0.034      344.074       20.633      868.551
03/16/2014  13:15:00      -78.049     -106.474       -7.345       58.565       46.904       26.721     3429.826     2200.007      714.002        1.191        0.317      132.017       20.304        0.024      343.978       20.471      868.533
03/16/2014  13:16:00     -255.216      -74.633       -3.217      112.084      112.473       59.232    12562.842    12650.113     3508.435        4.971        1.436      265.905       46.070        0.030      344.032       20.561      868.483
03/16/2014  13:17:00     -146.527      -32.757       -9.655      104.245       40.076       29.147    10867.091     1606.097      849.543        1.798        0.666      150.144       13.496        0.008      343.829       20.214      868.453
03/16/2014  13:18:00       15.535     -115.711       12.760       43.106       33.946       23.064     1858.140     1152.299      531.935        0.867        0.177      116.749       13.626        0.014      343.814       20.190      868.427
03/16/2014  13:19:00      -42.894     -147.433       -2.760       37.294       48.296       24.263     1390.859     2332.552      588.706        1.395        0.216      153.546       10.196        0.004      344.121       20.715      868.421
03/16/2014  13:20:00      -24.204      -13.541       29.143       39.950       53.672       34.926     1596.018     2880.704     1219.853        0.366        0.285       27.734       17.444        0.396      344.894       22.037      868.367
03/16/2014  13:21:00      103.101     -130.076      -14.953       73.457       90.509       57.812     5395.930     8191.958     3342.249        2.235        0.847      165.981       62.316        0.141      344.365       21.128      868.334
03/16/2014  13:22:00      -17.845      -62.386       -9.318       58.445       77.563       30.814     3415.763     6016.012      949.508        0.734        0.519       64.888       40.482        0.389      344.564       21.473      868.313
03/16/2014  13:23:00      -86.268       25.980       17.209       37.520       37.132       34.069     1407.730     1378.750     1160.698        0.618        0.197       90.095       28.376        0.099      344.243       20.925      868.280
03/16/2014  13:24:00      -44.932       77.698       -8.462       53.590       61.366       40.012     2871.835     3765.730     1600.949        0.818        0.412       89.754       27.321        0.093      344.066       20.621      868.263
03/16/2014  13:25:00     -117.700      -95.449      -10.885       91.412      106.319       36.421     8356.079    11303.817     1326.454        2.203        1.049      151.538       25.644        0.029      344.011       20.524      868.233
03/16/2014  13:26:00     -101.650     -101.181       -8.103       60.209       66.231       34.923     3625.132     4386.483     1219.632        1.493        0.462      143.424       34.255        0.057      343.971       20.459      868.198
03/16/2014  13:27:00      -55.402      -82.029        2.650       63.575       50.190       46.900     4041.813     2519.045     2199.623        0.928        0.438       98.985       38.715        0.153      343.993       20.497      868.183
03/16/2014  13:28:00       -2.473      -92.933        7.143       34.752       38.166       29.618     1207.731     1456.668      877.204        0.612        0.177       92.966       24.726        0.071      344.031       20.563      868.138
03/16/2014  13:29:00      -10.832       23.347       25.594       48.947       56.532       36.099     2395.770     3195.919     1303.160        0.410        0.345       25.738       14.824        0.332      344.580       21.499      868.085
03/16/2014  13:30:00      -47.437      -84.383        0.800      130.677       70.428       40.377    17076.493     4960.058     1630.303        1.651        1.183       96.803       24.465        0.064      344.611       21.550      868.093
03/16/2014  13:31:00     -228.592     -151.214       -4.851      134.050       81.611       58.644    17969.308     6660.308     3439.067        5.160        1.403      274.080       55.523        0.041      344.384       21.163      868.113
03/16/2014  13:32:00     -212.031      -83.616       -2.922      111.601       98.738       52.972    12454.885     9749.247     2806.051        3.848        1.251      227.923       56.091        0.061      344.672       21.655      868.096
03/16/2014  13:33:00     -191.751     -124.223       13.439      141.602      106.164       56.517    20050.992    11270.796     3194.216        4.344        1.726      228.473       58.081        0.065      344.668       21.647      868.056
03/16/2014  13:34:00     -155.034     -162.787       -6.027      124.473      122.550       61.600    15493.429    15018.610     3794.549        4.243        1.715      224.800       36.921        0.027      344.533       21.415      868.031
03/16/2014  13:35:00     -228.874     -264.071        5.352      152.114      151.011       70.899    23138.655    22804.318     5026.631        8.655        2.548      349.452       66.044        0.036      344.593       21.519      868.040
03/16/2014  13:36:00     -374.149     -256.864      -19.839      168.859      155.584       84.233    28513.521    24206.413     7095.149       13.308        2.991      453.835       71.265        0.025      344.456       21.284      868.013
03/16/2014  13:37:00     -201.145     -177.191       -3.735      128.067       75.944       55.392    16401.093     5767.476     3068.253        4.855        1.262      268.060       46.975        0.031      344.728       21.749      867.982
03/16/2014  13:38:00     -151.248     -267.592        3.955      111.778      130.036       67.807    12494.211    16909.273     4597.807        6.424        1.700      307.378       63.176        0.042      344.639       21.598      867.993
03/16/2014  13:39:00     -205.155     -183.408       -0.999      145.146      126.130       66.867    21067.252    15908.670     4471.237        5.858        2.072      275.185       73.288        0.071      344.740       21.771      867.922
03/16/2014  13:40:00     -277.442     -241.892       -8.873      199.446      164.089       66.937    39778.872    26925.213     4480.540       10.336        3.559      368.084       91.396        0.062      344.653       21.622      867.938
03/16/2014  13:41:00     -216.806     -235.388        3.111      187.108      200.890       83.925    35009.332    40356.742     7043.395        9.240        4.120      320.019       99.570        0.097      344.773       21.828      867.908
03/16/2014  13:42:00     -247.086     -230.782       12.567      150.978      140.340       80.043    22794.288    19695.376     6406.918        8.167        2.445      338.100       69.816        0.043      344.631       21.583      867.886
03/16/2014  13:43:00     -175.562     -116.811       11.421      148.315      107.161       70.237    21997.325    11483.460     4933.244        4.150        1.921      210.871       59.420        0.079      344.995       22.208      867.856
03/16/2014  13:44:00     -141.601     -202.997      -10.945       98.823      126.651       60.842     9766.019    16040.477     3701.743        4.544        1.475      247.505       46.834        0.036      344.913       22.067      867.845
03/16/2014  13:45:00     -172.204     -135.127        3.397      132.338      122.882       63.876    17513.249    15100.046     4080.202        4.230        1.835      218.891       60.819        0.077      345.138       22.451      867.816
03/16/2014  13:46:00     -187.412     -132.104       10.157      150.289      128.344       70.769    22586.891    16472.230     5008.318        4.836        2.203      229.292       76.113        0.110      345.130       22.437      867.806
03/16/2014  13:47:00     -311.976     -265.548      -19.902      200.314      214.190       72.125    40125.578    45877.325     5202.038       12.970        4.560      409.688       84.343        0.042      344.929       22.093      867.823
03/16/2014  13:48:00     -262.827     -191.256       12.775      175.682      145.013       69.564    30864.144    21028.807     4839.200        8.126        2.837      325.049       74.853        0.053      344.758       21.799      867.821
03/16/2014  13:49:00     -226.720     -131.162        7.606      121.028      102.203       66.892    14647.766    10445.402     4474.587        4.911        1.478      261.927       72.266        0.076      344.787       21.850      867.765
03/16/2014  13:50:00     -205.644     -118.695        4.847      116.875      102.648       47.408    13659.734    10536.535     2247.503        4.142        1.322      237.440       54.789        0.053      344.859       21.973      867.683
03/16/2014  13:51:00     -170.415      -83.257       16.972      125.968      101.663       62.231    15867.831    10335.308     3872.694        3.316        1.504      189.665       56.922        0.090      344.848       21.954      867.640
03/16/2014  13:52:00     -269.282     -258.804      -17.170      153.253      117.939       64.297    23486.337    13909.616     4134.072        9.065        2.077      373.487       71.829        0.037      344.853       21.963      867.655
03/16/2014  13:53:00     -133.347     -177.189       14.827      178.524      120.421       62.151    31870.659    14501.221     3862.697        4.981        2.512      221.759       73.423        0.110      345.004       22.222      867.638
03/16/2014  13:54:00     -106.106     -363.026        7.944      150.675      157.182       63.507    22703.082    24706.238     4033.097        9.727        2.572      378.214       66.633        0.031      344.905       22.052      867.595
03/16/2014  13:55:00     -100.101     -172.617       10.701      150.652      128.747       64.028    22696.026    16575.883     4099.647        4.164        2.169      199.542       73.548        0.136      345.231       22.612      867.588
03/16/2014  13:56:00     -164.697     -249.805       16.049      146.081      155.549       74.484    21339.720    24195.616     5547.901        7.042        2.554      299.212       84.667        0.080      344.975       22.173      867.616
03/16/2014  13:57:00      -30.817     -242.384        4.329      112.179      148.738       60.962    12584.064    22122.925     3716.320        4.906        1.921      244.335       49.307        0.041      344.778       21.836      867.584
03/16/2014  13:58:00     -173.583     -145.830        7.058      178.105      142.787       64.806    31721.419    20387.988     4199.843        5.387        2.815      226.710       63.150        0.078      345.171       22.508      867.560
03/16/2014  13:59:00     -369.807     -311.245       -0.363      201.933      190.620      111.443    40776.849    36336.102    12419.574       16.156        4.477      483.354      119.399        0.061      344.794       21.863      867.570
03/16/2014  14:00:00     -560.467     -380.561      -33.429      219.481      215.593      106.750    48172.080    46480.134    11395.669       28.304        5.302      677.458      117.844        0.030      344.558       21.457      867.564
03/16/2014  14:01:00     -430.504     -300.578        6.321      230.663      196.169      109.452    53205.345    38482.332    11979.649       18.967        5.183      525.053      112.317        0.046      344.496       21.353      867.620
03/16/2014  14:02:00     -270.360      -88.174       14.155      206.510      151.999       79.315    42646.522    23103.780     6290.923        7.654        3.602      284.375       92.720        0.106      344.703       21.707      867.586
03/16/2014  14:03:00     -384.958     -288.881       -4.880      243.671      213.829      105.595    59375.380    45722.788    11150.408       17.394        5.812      481.295      112.119        0.054      344.475       21.317      867.551
03/16/2014  14:04:00     -167.367     -280.262      -12.655      125.476      199.858       62.515    15744.163    39943.057     3908.077        8.314        2.980      326.433       75.492        0.053      344.415       21.214      867.545
03/16/2014  14:05:00     -203.303      -81.054        8.412      151.760       85.504       63.119    23031.036     7310.956     3984.059        4.114        1.716      218.865       60.914        0.077      344.691       21.689      867.508
03/16/2014  14:06:00     -140.282     -106.585        2.623      139.384       84.969       50.151    19427.871     7219.693     2515.106        3.010        1.458      176.180       53.658        0.093      344.675       21.659      867.484
03/16/2014  14:07:00     -139.721     -109.622        3.090       70.380       63.546       47.535     4953.339     4038.112     2259.571        2.140        0.563      177.592       43.176        0.059      344.840       21.943      867.480
03/16/2014  14:08:00     -120.608     -226.949       -4.176      157.601      217.572       66.132    24837.953    47337.449     4373.464        7.129        3.827      257.006       68.156        0.070      344.899       22.043      867.426
03/16/2014  14:09:00     -160.392      -63.561        4.760      122.422      169.474       69.430    14987.260    28721.581     4820.461        3.915        2.426      172.527       61.476        0.127      344.726       21.745      867.383
03/16/2014  14:10:00     -384.109     -240.008      -11.964      231.213      188.739       83.882    53459.471    35622.463     7036.184       15.068        4.806      452.928      108.129        0.057      344.770       21.821      867.342
03/16/2014  14:11:00     -250.314     -110.098        9.447      196.705      134.326       76.895    38692.869    18043.461     5912.821        6.875        3.132      273.457       91.864        0.113      344.848       21.954      867.340
03/16/2014  14:12:00     -220.653     -150.336      -12.849      120.615       99.051       58.761    14547.962     9811.138     3452.903        4.963        1.391      266.999       54.950        0.042      344.575       21.488      867.315
03/16/2014  14:13:00     -276.538      -80.808       -8.896      159.741      134.650       65.707    25517.077    18130.659     4317.358        6.551        2.398      288.102       73.740        0.066      344.783       21.844      867.299
03/16/2014  14:14:00     -270.448     -121.026       -9.934      166.904      117.825       74.770    27857.086    13882.746     5590.556        6.760        2.367      296.293       89.585        0.091      344.602       21.534      867.272
03/16/2014  14:15:00     -208.310     -150.290       -5.853      129.746       96.348       60.584    16834.073     9283.025     3670.379        4.789        1.489      256.865       52.586        0.042      344.664       21.641      867.250
03/16/2014  14:16:00     -129.018     -279.396        7.057      276.554      187.593       75.345    76481.869    35191.287     5676.831       10.603        5.867      307.746       79.531        0.067      344.821       21.908      867.222
03/16/2014  14:17:00     -443.290     -309.102      -19.249      272.556      219.457       89.682    74286.958    48161.231     8042.933       21.143        6.525      540.416      107.994        0.040      344.621       21.568      867.166
03/16/2014  14:18:00     -179.626     -305.424        0.190      145.923      196.436       87.214    21293.572    38587.094     7606.292        9.650        3.374      354.329       91.388        0.067      344.857       21.972      867.175
03/16/2014  14:19:00     -125.685     -287.568        9.207      126.678      185.794       64.629    16047.388    34519.596     4176.890        7.665        2.737      313.834       65.998        0.044      344.877       22.004      867.180
03/16/2014  14:20:00     -241.858     -424.331      -12.921      187.830      176.284       74.968    35279.967    31075.966     5620.238       15.533        3.599      488.419       67.949        0.019      344.655       21.625      867.175
03/16/2014  14:21:00     -367.542     -159.440       -8.886      131.727      136.970       74.523    17351.895    18760.834     5553.637       10.112        2.083      400.635       71.346        0.032      344.770       21.821      867.158
03/16/2014  14:22:00     -246.827     -199.105       -7.593      144.485      113.466       66.544    20876.047    12874.474     4428.081        6.939        1.909      317.122       63.829        0.041      344.889       22.025      867.177
03/16/2014  14:23:00     -411.639     -296.414      -28.664      196.036      142.532       79.961    38430.304    20315.287     6393.821       16.162        3.257      507.255       87.529        0.030      344.634       21.588      867.163
03/16/2014  14:24:00     -390.213     -246.824      -12.446      162.474      122.247       79.864    26397.831    14944.307     6378.323       13.052        2.386      461.723       80.633        0.030      344.442       21.261      867.144
03/16/2014  14:25:00     -238.583     -128.918       12.225      136.217      124.285       75.945    18555.068    15446.806     5767.670        5.672        1.988      271.186       73.661        0.074      344.686       21.678      867.100
03/16/2014  14:26:00      -53.108      -60.803       -1.930      130.293       72.074       46.873    16976.287     5194.654     2197.033        1.544        1.218       80.730       62.100        0.592      344.895       22.037      867.081
03/16/2014  14:27:00     -129.385     -199.521       -1.907      116.804      145.023       47.324    13643.143    21031.656     2239.526        4.673        1.846      237.801       59.423        0.062      344.905       22.053      867.089
03/16/2014  14:28:00     -335.711     -131.829       -2.602      137.521      153.987       83.219    18911.982    23711.876     6925.454        8.981        2.477      360.667       63.342        0.031      344.844       21.947      867.034
03/16/2014  14:29:00     -207.717     -333.129      -11.560      163.692      159.947       83.847    26794.913    25583.158     7030.248       10.682        2.970      392.583       76.527        0.038      344.697       21.695      867.071
03/16/2014  14:30:00     -197.168     -326.518      -14.760      131.383      177.571       86.460    17261.503    31531.545     7475.261       10.098        2.813      381.431       93.234        0.060      344.663       21.637      867.049
03/16/2014  14:31:00     -202.867     -315.871      -15.706      170.111      149.666       74.353    28937.609    22399.955     5528.374        9.901        2.843      375.406       54.295        0.021      344.525       21.401      867.058
03/16/2014  14:32:00     -160.463     -275.537       -6.478      105.910      199.655       84.935    11216.858    39862.117     7213.986        7.999        2.915      318.856       73.160        0.053      344.642       21.602      867.019
03/16/2014  14:33:00     -254.193     -197.588      -18.928      148.527      131.912       66.687    22060.156    17400.670     4447.135        7.395        2.195      321.955       62.106        0.037      344.833       21.930      866.986
03/16/2014  14:34:00     -197.686     -266.828        7.320      188.706      127.080       78.138    35609.969    16149.222     6105.549        8.409        2.893      332.080       65.322        0.039      344.866       21.985      866.993
03/16/2014  14:35:00     -416.169     -281.454       -3.419      198.355      140.007       92.201    39344.591    19602.082     8501.057       15.992        3.372      502.407      103.662        0.043      344.567       21.472      866.988
03/16/2014  14:36:00     -351.504     -127.771      -22.511      144.126      101.921       60.995    20772.411    10387.854     3720.403        8.763        1.744      374.006       56.793        0.023      344.531       21.413      866.983
03/16/2014  14:37:00     -117.682     -170.577       12.829      131.430      168.277       65.380    17273.921    28317.106     4274.545        4.648        2.493      207.233       69.403        0.112      344.752       21.792      866.976
03/16/2014  14:38:00     -230.055     -345.256      -15.963      155.822      191.922       74.551    24280.484    36833.878     5557.800       11.951        3.334      414.882       66.003        0.025      344.781       21.838      866.938
03/16/2014  14:39:00     -295.660     -189.061       -4.030      141.227      135.471       61.196    19944.928    18352.284     3744.904        8.260        2.102      350.940       62.384        0.032      344.800       21.873      866.925
03/16/2014  14:40:00     -225.278     -196.225      -20.898      180.977      133.090       81.430    32752.689    17712.846     6630.802        7.338        2.855      298.755       64.355        0.046      344.767       21.816      866.868
03/16/2014  14:41:00     -392.456     -242.537      -10.221      256.147      125.618       97.324    65611.512    15779.829     9472.016       15.189        4.543      461.352      121.597        0.069      344.631       21.585      866.863
03/16/2014  14:42:00     -208.265     -232.533       -4.014      152.122      142.652       84.556    23140.999    20349.707     7149.763        7.404        2.532      312.164       75.559        0.059      344.677       21.662      866.839
03/16/2014  14:43:00     -205.422     -176.321       12.045      143.699      149.960       78.661    20649.412    22487.913     6187.481        6.137        2.466      270.716       76.914        0.081      344.832       21.928      866.794
03/16/2014  14:44:00     -364.047     -322.607       -3.983      232.915      216.658      117.806    54249.370    46940.493    13878.221       17.582        5.753      486.421      131.702        0.073      344.768       21.818      866.781
03/16/2014  14:45:00     -524.776     -328.806      -18.190      266.085      216.767       97.514    70801.432    46987.946     9509.022       25.554        6.365      619.276      115.312        0.035      344.444       21.264      866.714
03/16/2014  14:46:00     -404.461     -265.087        7.965      240.405      196.988      116.288    57794.411    38804.133    13522.914       17.200        5.506      483.591      129.212        0.071      344.511       21.377      866.758
03/16/2014  14:47:00     -527.870     -335.014       -1.342      266.240      195.251      106.565    70883.728    38122.814    11356.033       25.560        6.018      625.205      115.108        0.034      344.428       21.236      866.747
03/16/2014  14:48:00     -328.761     -128.171       11.908      185.688      175.796       88.960    34479.982    30904.162     7913.893        9.896        3.665      352.862       94.449        0.072      344.568       21.476      866.729
03/16/2014  14:49:00     -457.190     -375.517      -36.009      173.949      234.363       92.773    30258.426    54925.993     8606.742       22.254        4.690      591.638       94.865        0.026      344.529       21.408      866.751
03/16/2014  14:50:00     -540.874     -174.062      -21.857      275.162      216.402      101.015    75714.150    46829.790    10204.049       22.801        6.637      568.192      117.087        0.042      344.545       21.436      866.687
03/16/2014  14:51:00     -322.765     -200.221       -1.780      192.016      175.379       78.201    36870.031    30757.930     6115.473       10.899        3.687      379.823       78.871        0.043      344.567       21.474      866.698
03/16/2014  14:52:00     -115.754     -245.511       14.341      126.946      179.871       71.680    16115.380    32353.520     5138.078        6.373        2.680      271.430       56.008        0.043      344.663       21.637      866.677
03/16/2014  14:53:00     -319.659     -269.081      -19.374      146.631      114.297       66.428    21500.653    13063.884     4412.657       10.696        1.949      417.835       66.024        0.025      344.557       21.456      866.641
03/16/2014  14:54:00     -167.842     -133.082       -2.864      120.642       77.120       49.178    14554.459     5947.513     2418.496        3.440        1.146      214.200       57.252        0.071      344.933       22.100      866.665
03/16/2014  14:55:00     -358.478      -99.908      -16.791      176.900      158.270       83.953    31293.567    25049.450     7048.183       10.107        3.170      372.140       76.957        0.043      344.851       21.959      866.670
03/16/2014  14:56:00     -457.922     -325.510       -4.948      235.077      174.081      109.627    55261.177    30304.304    12018.128       20.661        4.879      561.826      114.357        0.041      344.606       21.540      866.669
03/16/2014  14:57:00     -399.406     -270.840        0.917      316.195      195.659      111.084    99978.981    38282.486    12339.554       19.171        7.530      482.576      147.302        0.093      344.616       21.557      866.610
03/16/2014  14:58:00     -370.329     -221.641       13.696      266.316      210.569       97.761    70924.298    44339.399     9557.286       15.561        6.241      431.588      124.834        0.084      344.703       21.707      866.621
03/16/2014  14:59:00     -442.103     -253.858       -5.816      229.940      182.555      100.878    52872.600    33326.488    10176.392       17.814        4.819      509.803      115.013        0.051      344.752       21.792      866.601
03/16/2014  15:00:00     -387.171     -331.252       10.388      264.293      265.167      105.961    69850.726    70313.644    11227.734       20.553        7.570      509.538      133.553        0.069      344.635       21.591      866.621
03/16/2014  15:01:00     -384.503     -253.399        7.679      240.054      180.496      116.508    57625.854    32578.760    13574.026       15.793        5.189      460.493      135.079        0.086      344.598       21.527      866.627
03/16/2014  15:02:00     -501.530     -260.545      -12.802      210.637      164.620       98.623    44368.036    27099.830     9726.579       20.037        4.060      565.169       92.345        0.027      344.533       21.416      866.614
03/16/2014  15:03:00     -458.250     -253.309        7.306      231.214      190.027      106.749    53460.027    36110.390    11395.329       18.757        5.048      523.601      120.140        0.053      344.571       21.481      866.610
03/16/2014  15:04:00     -533.504     -286.320        3.857      361.259      260.025      122.865   130507.842    67613.082    15095.804       28.988       10.661      605.480      169.181        0.078      344.523       21.398      866.573
03/16/2014  15:05:00     -533.462     -356.969      -18.539      243.923      253.376      123.651    59498.454    64199.642    15289.657       27.564        6.949      641.879      127.952        0.040      344.483       21.330      866.551
03/16/2014  15:06:00     -308.621     -233.115       14.958      224.479      182.739      102.313    50390.909    33393.559    10468.019       12.201        4.713      386.768      119.979        0.096      344.567       21.473      866.571
03/16/2014  15:07:00     -451.881     -158.759      -15.850      266.557      233.847      107.012    71052.660    54684.585    11451.641       18.339        6.859      478.958      125.925        0.069      344.598       21.529      866.558
03/16/2014  15:08:00     -477.958     -268.196      -13.285      237.756      199.369      115.538    56527.806    39748.164    13348.930       20.507        5.481      548.063      112.949        0.042      344.465       21.299      866.565
03/16/2014  15:09:00     -529.448     -433.478      -14.757      224.423      187.678      116.842    50365.519    35223.206    13652.117       28.382        4.962      684.265      110.228        0.026      344.369       21.134      866.522
03/16/2014  15:10:00     -427.351     -321.927       -9.582      243.215      169.085      110.584    59153.697    28589.843    12228.757       19.315        4.999      535.038      113.258        0.045      344.512       21.378      866.492
03/16/2014  15:11:00     -502.106     -199.639      -22.792      164.546      194.648       86.708    27075.461    37887.933     7518.346       18.247        3.624      540.339       93.275        0.030      344.675       21.657      866.503
03/16/2014  15:12:00     -364.049     -285.283      -18.973      200.843      164.261      115.102    40337.996    26981.525    13248.512       14.741        4.028      462.513      122.935        0.071      344.788       21.852      866.540
03/16/2014  15:13:00     -473.800     -254.378      -24.055      217.067      145.105       98.025    47118.172    21055.322     9608.803       18.376        3.889      537.768      111.729        0.043      344.712       21.723      866.513
03/16/2014  15:14:00     -266.142     -205.925       25.118      232.527      181.475       94.951    54068.613    32933.073     9015.735       10.492        4.801      336.506       97.254        0.084      344.748       21.784      866.479
03/16/2014  15:15:00     -487.660     -272.978      -11.576      311.672      261.185      123.703    97139.421    68217.456    15302.348       24.653        9.033      558.864      135.708        0.059      344.599       21.528      866.453
03/16/2014  15:16:00     -494.867     -145.081       -7.905      271.998      222.510      123.265    73983.127    49510.715    15194.153       20.232        6.934      515.695      136.260        0.070      344.610       21.547      866.475
03/16/2014  15:17:00     -440.383     -160.057        1.846      215.352      177.902      106.231    46376.603    31648.976    11285.001       15.442        4.466      468.567      103.542        0.049      344.592       21.517      866.435
03/16/2014  15:18:00     -443.033     -243.715        3.262      299.997      183.773      113.683    89998.246    33772.614    12923.910       19.616        6.835      505.644      135.855        0.072      344.540       21.427      866.445
03/16/2014  15:19:00     -614.434     -468.006      -21.636      294.098      264.946      139.613    86493.551    70196.465    19491.833       38.657        8.809      772.372      158.594        0.042      344.408       21.202      866.424
03/16/2014  15:20:00     -658.513     -477.427       -2.709      326.458      241.120      149.592   106574.848    58138.710    22377.898       42.430        9.355      813.374      183.834        0.051      344.320       21.052      866.381
03/16/2014  15:21:00     -475.876     -388.354      -16.532      263.015      264.041      115.869    69176.784    69717.909    13425.699       26.490        7.616      614.229      138.739        0.051      344.333       21.073      866.411
03/16/2014  15:22:00     -472.052     -365.673      -13.376      265.236      212.063      130.151    70350.215    44970.805    16939.360       24.447        6.613      597.118      131.511        0.049      344.379       21.152      866.386
03/16/2014  15:23:00     -398.638     -332.817      -15.173      263.911      195.035      115.503    69649.269    38038.697    13340.924       19.545        6.051      519.307      116.852        0.051      344.458       21.287      866.386
03/16/2014  15:24:00     -516.835     -303.155        2.248      293.173      221.860      103.275    85950.504    49221.972    10665.693       25.240        7.292      599.184      117.111        0.038      344.466       21.302      866.375
03/16/2014  15:25:00     -527.429     -339.274       -9.870      271.553      187.986      101.023    73741.040    35338.789    10205.650       25.631        5.964      627.127       98.115        0.024      344.411       21.206      866.347
03/16/2014  15:26:00     -498.930     -339.770       -7.889      285.532      206.585      110.699    81528.711    42677.246    12254.280       25.042        6.823      603.634      139.072        0.053      344.546       21.438      866.305
03/16/2014  15:27:00     -529.423     -331.098      -15.091      286.343      179.154      118.651    81992.424    32095.990    14078.061       25.913        6.408      624.432      125.797        0.041      344.587       21.508      866.282
03/16/2014  15:28:00     -191.040     -191.421       12.192      195.238      211.649      100.607    38117.811    44795.281    10121.802        8.314        4.652      270.441       89.904        0.111      344.721       21.737      866.301
03/16/2014  15:29:00     -484.775     -278.143        7.106      316.873      219.303      120.218   100408.400    48093.599    14452.369       23.766        8.148      558.901      141.398        0.064      344.599       21.528      866.297
03/16/2014  15:30:00     -539.490     -344.937        0.591      284.629      237.210      120.915    81013.639    56268.379    14620.527       28.094        7.595      640.337      128.860        0.040      344.439       21.255      866.265
03/16/2014  15:31:00     -480.924     -351.823       25.707      331.378      220.764      139.460   109811.647    48736.855    19449.137       26.683        8.900      595.875      172.069        0.083      344.478       21.321      866.223
03/16/2014  15:32:00     -530.629     -341.907      -17.080      264.529      226.647      119.395    69975.533    51368.753    14255.162       26.715        6.780      631.243      107.233        0.029      344.434       21.245      866.253
03/16/2014  15:33:00     -479.576     -292.216       19.646      375.284      266.400      120.236   140837.796    70969.180    14456.801       27.097       11.313      561.590      157.660        0.079      344.461       21.293      866.211
03/16/2014  15:34:00     -491.513     -331.759       -2.948      225.815      211.681      115.151    50992.412    44808.785    13259.749       23.034        5.453      593.000      105.078        0.031      344.445       21.265      866.225
03/16/2014  15:35:00     -562.762     -363.986      -21.661      307.238      276.238      144.266    94394.985    76307.494    20812.808       32.055        9.576      670.214      155.510        0.054      344.359       21.118      866.195
03/16/2014  15:36:00     -488.083     -271.216       -4.175      292.459      221.713      113.053    85532.507    49156.510    12781.030       22.961        7.374      558.376      136.754        0.060      344.358       21.116      866.199
03/16/2014  15:37:00     -590.468     -334.587      -20.106      258.625      238.249      120.464    66886.970    56762.500    14511.694       29.956        6.908      678.676      138.695        0.042      344.435       21.248      866.203
03/16/2014  15:38:00     -639.682     -349.390      -38.875      168.729      178.501       95.972    28469.597    31862.676     9210.630       30.115        3.477      728.881       77.147        0.011      344.353       21.108      866.200
03/16/2014  15:39:00     -325.391     -304.753       -8.035      227.785      217.157       90.591    51886.129    47156.955     8206.646       15.301        5.362      445.819      109.754        0.061      344.463       21.295      866.185
03/16/2014  15:40:00     -530.082     -418.099       -4.693      278.271      225.383      128.577    77434.668    50797.565    16532.060       30.026        7.238      675.125      127.090        0.035      344.335       21.078      866.160
03/16/2014  15:41:00     -421.781     -267.250       18.901      300.584      189.367       92.557    90350.965    35859.996     8566.846       19.220        6.739      499.322      120.149        0.058      344.537       21.423      866.118
03/16/2014  15:42:00     -485.516     -327.256      -15.843      197.939      191.761      103.030    39179.969    36772.324    10615.249       21.480        4.328      585.510      106.431        0.033      344.529       21.409      866.107
03/16/2014  15:43:00     -544.541     -351.005       -1.527      319.077      229.689      122.491   101810.033    52756.860    15004.065       29.462        8.479      647.865      152.556        0.055      344.454       21.279      866.107
03/16/2014  15:44:00     -451.438     -384.640      -12.198      308.000      217.850      137.329    94864.252    47458.796    18859.234       25.650        8.059      593.080      153.544        0.067      344.423       21.226      866.108
03/16/2014  15:45:00     -649.441     -488.910      -17.448      316.851      230.148      133.000   100394.635    52967.887    17688.942       41.605        8.553      812.900      145.133        0.032      344.287       20.994      866.099
03/16/2014  15:46:00     -659.050     -429.072        4.666      298.096      283.676      152.080    88861.425    80472.012    23128.292       40.543        9.623      786.416      171.380        0.047      344.241       20.917      866.074
03/16/2014  15:47:00     -539.293     -360.776      -27.534      292.207      200.055      112.075    85385.019    40022.063    12560.897       27.983        6.898      648.842      129.660        0.040      344.360       21.122      866.099
03/16/2014  15:48:00     -471.105     -245.593       -4.712      299.909      232.299      103.825    89945.335    53962.673    10779.623       21.845        7.734      531.278      126.000        0.056      344.439       21.254      866.131
03/16/2014  15:49:00     -450.475     -164.308        6.986      223.028      194.854       96.322    49741.387    37968.203     9277.991       16.346        4.849      479.505      106.067        0.049      344.421       21.224      866.102
03/16/2014  15:50:00     -378.101     -130.135      -18.998      178.676      147.132       84.124    31925.286    21647.825     7076.827       11.044        3.032      399.870       80.356        0.040      344.672       21.653      866.107
03/16/2014  15:51:00     -676.127     -363.082      -25.514      305.012      213.575      111.846    93032.537    45614.069    12509.537       37.036        7.558      767.448      140.800        0.034      344.462       21.293      866.092
03/16/2014  15:52:00     -409.208     -226.367        9.616      280.026      235.842      100.033    78414.323    55621.304    10006.571       18.139        7.202      467.647      107.464        0.053      344.466       21.301      866.056
03/16/2014  15:53:00     -380.353     -295.369       -7.175      180.493      184.773       88.065    32577.576    34141.206     7755.430       15.320        3.724      481.571       81.884        0.029      344.477       21.320      866.060
03/16/2014  15:54:00     -478.016     -209.248      -18.636      291.630      221.888      120.657    85047.974    49234.302    14558.192       21.071        7.442      521.809      138.384        0.070      344.433       21.245      866.029
03/16/2014  15:55:00     -379.663     -120.650       -9.611      249.631      174.625       94.596    62315.628    30493.873     8948.380       13.025        5.088      398.372      100.354        0.063      344.499       21.357      866.037
03/16/2014  15:56:00     -367.566     -269.986      -10.913      234.427      200.791       91.071    54956.042    40316.958     8293.930       15.582        5.178      456.067      105.437        0.053      344.400       21.189      866.048
03/16/2014  15:57:00     -363.599     -256.622       -7.935      219.328      155.455      101.469    48104.579    24166.246    10295.888       14.033        4.128      445.038      112.972        0.064      344.384       21.162      866.005
03/16/2014  15:58:00     -118.289     -121.028       20.599      171.789      121.033       81.686    29511.314    14648.887     6672.652        3.994        2.542      169.234       79.603        0.221      344.600       21.532      866.002
03/16/2014  15:59:00     -188.889      -44.376       17.624      200.365      124.281       69.729    40146.247    15445.819     4862.096        4.919        3.023      194.031       87.619        0.204      344.744       21.778      865.973
03/16/2014  16:00:00     -394.837     -283.650       -4.419      257.669      228.077      102.826    66393.493    52019.164    10573.098       18.265        6.449      486.162      112.139        0.053      344.594       21.521      865.973
03/16/2014  16:01:00     -442.741     -249.226        5.192      192.198      152.951       90.789    36940.149    23394.037     8242.615       16.335        3.429      508.068       83.889        0.027      344.444       21.264      865.966
03/16/2014  16:02:00     -265.477     -209.371        8.481      199.593      186.536       93.454    39837.463    34795.529     8733.735        9.886        4.168      338.103      107.673        0.101      344.646       21.610      865.944
03/16/2014  16:03:00     -306.103     -113.543       -3.058      156.491      129.884       69.988    24489.282    16869.788     4898.384        7.642        2.313      326.483       73.407        0.051      344.613       21.553      865.957
03/16/2014  16:04:00     -406.645     -243.815        5.881      288.888      209.128      116.018    83455.999    43734.374    13460.185       18.272        7.033      474.138      112.506        0.056      344.450       21.274      865.933
03/16/2014  16:05:00     -594.065     -342.061       -9.312      275.741      242.139      129.076    76032.978    58631.404    16660.670       31.064        7.566      685.507      138.079        0.041      344.341       21.088      865.909
03/16/2014  16:06:00     -452.527     -334.874       -6.285      353.621      249.183      117.562   125048.047    62092.026    13820.717       25.892       10.048      562.957      154.367        0.075      344.292       21.005      865.891
03/16/2014  16:07:00     -469.409     -291.826      -24.160      261.259      206.310      122.118    68256.241    42563.933    14912.710       21.589        6.287      552.728      132.240        0.057      344.351       21.105      865.904
03/16/2014  16:08:00     -525.268     -277.276      -26.772      307.937      234.218      116.511    94824.993    54857.869    13574.715       25.835        8.163      593.960      144.318        0.059      344.372       21.139      865.930
03/16/2014  16:09:00     -519.033     -339.248      -26.956      259.559      179.390      115.089    67371.108    32180.613    13245.533       24.898        5.640      620.068      120.924        0.038      344.336       21.078      865.907
03/16/2014  16:10:00     -336.454     -110.381      -15.603      151.888      158.551       82.807    23069.824    25138.441     6857.074        9.034        2.753      354.098       68.959        0.038      344.488       21.337      865.939
03/16/2014  16:11:00     -460.319     -160.495       -7.680      347.744      223.244      121.290   120925.828    49837.901    14711.329       21.156        9.274      487.496      153.910        0.100      344.501       21.361      865.927
03/16/2014  16:12:00     -625.245     -369.411      -23.029      284.174      213.243      113.032    80754.821    45472.579    12776.248       33.344        6.950      726.220      133.247        0.034      344.222       20.884      865.909
03/16/2014  16:13:00     -429.809     -194.725       17.894      298.026      210.096      116.663    88819.666    44140.501    13610.339       18.474        7.329      471.862      145.749        0.095      344.382       21.159      865.893
03/16/2014  16:14:00     -499.734     -433.672        4.157      275.550      231.508      138.963    75928.034    53595.862    19310.728       29.330        7.442      661.669      154.962        0.055      344.213       20.869      865.884
03/16/2014  16:15:00     -601.155     -502.468      -30.228      286.168      244.107      130.993    81892.142    59588.282    17159.284       38.668        7.932      783.494      121.275        0.024      344.118       20.706      865.869
03/16/2014  16:16:00     -603.908     -392.539      -24.277      239.870      165.731      115.973    57537.731    27466.783    13449.779       30.890        4.923      720.272      123.277        0.029      344.273       20.972      865.890
03/16/2014  16:17:00     -420.681     -270.996       14.435      279.768      215.855      131.839    78269.942    46593.420    17381.574       19.640        7.112      500.411      148.184        0.088      344.268       20.963      865.866
03/16/2014  16:18:00     -548.247     -344.865      -28.824      248.200      195.497      110.775    61603.313    38219.015    12271.057       26.619        5.605      647.693      112.281        0.030      344.328       21.066      865.883
03/16/2014  16:19:00     -425.246     -277.505        8.387      226.784      214.378      116.176    51430.892    45957.969    13496.867       18.438        5.544      507.783      129.246        0.065      344.371       21.139      865.827
03/16/2014  16:20:00     -462.381     -331.022       -6.489      362.234      257.899      117.813   131213.285    66511.808    13879.860       26.747       10.580      568.658      140.430        0.061      344.458       21.288      865.829
03/16/2014  16:21:00     -708.034     -515.987      -34.690      335.641      274.951      143.208   112654.587    75597.898    20508.556       48.872       10.438      876.102      151.183        0.030      344.149       20.760      865.770
03/16/2014  16:22:00     -623.638     -236.401       -4.562      334.580      184.761      125.125   111943.494    34136.646    15656.273       30.325        8.087      666.940      138.023        0.043      344.230       20.897      865.840
03/16/2014  16:23:00     -518.485     -340.401      -10.797      288.704      228.560      143.946    83349.931    52239.792    20720.471       27.053        7.816      620.242      165.074        0.071      344.197       20.843      865.854
03/16/2014  16:24:00     -519.427     -349.261      -18.812      315.303      241.590      143.320    99415.684    58365.524    20540.485       28.520        8.916      625.929      160.756        0.066      344.179       20.812      865.869
03/16/2014  16:25:00     -494.248     -370.878      -19.473      264.251      248.240      120.888    69828.546    61623.137    14613.869       26.411        7.303      617.925      143.310        0.054      344.133       20.732      865.859
03/16/2014  16:26:00     -550.757     -291.614        0.400      292.008      264.022      132.396    85268.913    69707.707    17528.828       28.040        8.625      623.195      155.219        0.062      344.133       20.733      865.857
03/16/2014  16:27:00     -478.425     -314.513       -1.065      239.590      224.166      108.336    57403.495    50250.186    11736.606       22.358        5.970      572.546      120.421        0.044      344.170       20.796      865.854
03/16/2014  16:28:00     -384.439     -194.690       -4.449      210.539      177.614       96.412    44326.529    31546.694     9295.280       13.543        4.258      430.926      108.860        0.064      344.313       21.040      865.861
03/16/2014  16:29:00     -313.695     -109.081       -3.502      199.772      132.056       78.905    39908.968    17438.682     6225.980        8.693        3.179      332.119       88.018        0.070      344.385       21.164      865.881
03/16/2014  16:30:00     -384.543     -296.299        0.590      264.877      204.960      122.005    70159.739    42008.477    14885.162       18.134        6.353      485.455      124.573        0.066      344.276       20.977      865.843
03/16/2014  16:31:00     -326.680     -180.121       15.607      199.600      185.591      109.044    39840.097    34443.958    11890.550       11.277        4.309      373.047      122.807        0.108      344.341       21.088      865.837
03/16/2014  16:32:00     -328.260     -179.347       15.145      276.379      137.184       89.244    76385.168    18819.455     7964.467       12.164        5.158      374.059      114.760        0.094      344.285       20.993      865.861
03/16/2014  16:33:00     -498.531      -77.609       -9.982      253.941      186.423      107.242    64486.071    34753.572    11500.802       18.268        5.537      504.536      125.057        0.061      344.264       20.956      865.843
03/16/2014  16:34:00     -321.614     -232.342        1.391      231.257      180.507      101.166    53479.949    32582.756    10234.652       12.684        4.815      396.760      117.853        0.088      344.311       21.039      865.835
03/16/2014  16:35:00     -430.487     -242.405       12.190      232.753      237.874      117.668    54173.921    56584.069    13845.857       18.439        6.230      494.044      118.563        0.058      344.207       20.858      865.838
03/16/2014  16:36:00     -570.224     -182.768      -24.136      328.968      233.846      124.877   108219.943    54683.931    15594.164       26.878        8.925      598.799      140.107        0.055      344.112       20.696      865.845
03/16/2014  16:37:00     -521.145     -155.475      -18.141      345.219      234.340      129.844   119176.061    54915.228    16859.353       24.348        9.548      543.842      164.334        0.091      344.137       20.738      865.851
03/16/2014  16:38:00     -476.541     -292.632      -11.292      215.124      187.198      108.350    46278.291    35043.264    11739.731       20.294        4.653      559.218      118.216        0.045      344.138       20.741      865.866
03/16/2014  16:39:00     -320.712     -253.444       22.361      234.679      197.347      112.804    55074.302    38946.009    12724.820       13.715        5.337      408.766      122.854        0.090      344.182       20.817      865.849
03/16/2014  16:40:00     -517.524     -318.119       -9.100      336.926      208.843      121.735   113519.279    43615.597    14819.409       27.050        8.598      607.479      145.438        0.057      344.097       20.670      865.821
03/16/2014  16:41:00     -456.930     -232.240      -15.542      306.854      221.093      133.723    94159.327    48881.896    17881.915       21.191        8.046      512.562      160.376        0.098      344.075       20.634      865.825
03/16/2014  16:42:00     -495.933     -257.215      -22.062      272.230      224.594      125.708    74109.349    50442.617    15802.427       22.645        7.018      558.667      127.780        0.052      343.941       20.405      865.799
03/16/2014  16:43:00     -524.858     -307.008       -2.814      329.158      237.117      142.791   108344.757    56224.407    20389.195       27.731        9.248      608.054      171.663        0.080      344.016       20.534      865.819
03/16/2014  16:44:00     -526.892     -245.212      -15.818      266.607      238.704      120.973    71079.291    56979.400    14634.566       24.032        7.135      581.158      137.128        0.056      344.004       20.512      865.805
03/16/2014  16:45:00     -420.208     -253.178        2.703      321.920      257.302      123.100   103632.769    66204.292    15153.554       21.280        9.250      490.586      164.812        0.113      344.063       20.613      865.829
03/16/2014  16:46:00     -613.726     -148.261       -9.978      268.138      211.535      105.145    71898.173    44746.993    11055.484       26.319        6.385      631.381      113.952        0.033      344.008       20.518      865.820
03/16/2014  16:47:00     -382.011     -115.618       11.027      224.801      162.545       87.590    50535.539    26420.867     7671.994       12.201        4.231      399.124       97.906        0.060      344.137       20.740      865.855
03/16/2014  16:48:00     -492.278     -345.253      -15.510      247.996      228.567      107.162    61502.064    52242.777    11483.681       24.348        6.261      601.280      112.134        0.035      344.074       20.631      865.863
03/16/2014  16:49:00     -396.702     -206.397       -6.140      289.830      192.810      104.062    84001.378    37175.765    10828.973       16.598        6.600      447.183      127.442        0.081      343.997       20.501      865.855
03/16/2014  16:50:00     -374.678     -140.490      -12.948      238.289      206.021       90.364    56781.606    42444.791     8165.615       13.382        5.370      400.152      102.678        0.066      344.082       20.645      865.828
03/16/2014  16:51:00     -290.891     -234.663       12.985      227.328      187.871      118.878    51678.125    35295.676    14131.965       12.046        5.055      373.743      112.229        0.090      344.067       20.620      865.837
03/16/2014  16:52:00     -604.591     -297.087      -19.595      295.594      207.138      115.930    87376.026    42906.171    13439.702       29.892        7.186      673.640      123.183        0.033      343.910       20.352      865.796
03/16/2014  16:53:00     -544.110     -323.357       -7.291      268.979      200.385      118.940    72349.936    40153.989    14146.665       26.363        6.333      632.942      123.276        0.038      343.860       20.265      865.811
03/16/2014  16:54:00     -381.637      -59.513      -28.641      220.443      141.745       86.901    48595.075    20091.650     7551.807       11.311        3.812      386.249       96.777        0.063      344.070       20.625      865.819
03/16/2014  16:55:00     -439.453     -173.437       -2.621      207.057      258.044      107.313    42872.415    66586.559    11516.061       17.207        6.049      472.440      103.055        0.048      344.007       20.517      865.817
03/16/2014  16:56:00     -455.574     -172.222       -1.152      298.478      224.675      108.419    89089.351    50478.883    11754.728       19.424        7.566      487.040      126.269        0.067      343.962       20.440      865.832
03/16/2014  16:57:00     -456.956     -346.018        4.660      226.604      210.520      127.107    51349.481    44318.519    16156.226       22.017        5.591      573.182      130.258        0.052      343.897       20.328      865.821
03/16/2014  16:58:00     -463.189     -234.506      -11.092      280.587      192.960      123.599    78728.990    37233.664    15276.609       20.042        6.562      519.170      144.778        0.078      343.875       20.290      865.813
03/16/2014  16:59:00     -403.911     -194.527      -11.174      284.176      225.962      113.588    80756.247    51059.022    12902.154       17.288        7.236      448.313      139.045        0.096      343.929       20.383      865.775
03/16/2014  17:00:00     -393.215     -210.502        9.178      232.922      185.037      106.303    54252.867    34238.719    11300.307       14.938        4.990      446.015      131.498        0.087      343.934       20.392      865.815
03/16/2014  17:01:00     -419.959     -283.922       -4.529      243.926      212.378      102.207    59499.845    45104.600    10446.223       18.600        5.753      506.930      115.400        0.052      343.911       20.354      865.802
03/16/2014  17:02:00     -501.408     -206.466      -20.108      205.100      198.687       98.509    42065.866    39476.535     9703.934       19.283        4.562      542.253      111.455        0.042      343.900       20.334      865.797
03/16/2014  17:03:00     -376.641     -164.941       -2.697      245.418      165.814      110.390    60230.228    27494.218    12185.904       13.447        4.996      411.174      133.381        0.105      343.937       20.397      865.777
03/16/2014  17:04:00     -432.060     -308.649      -12.897      250.967      185.712      113.989    62984.412    34488.801    12993.567       19.626        5.523      530.980      124.882        0.055      343.875       20.292      865.711
03/16/2014  17:05:00     -316.652     -242.285       -3.291      221.859      169.200      105.356    49221.545    28628.481    11099.786       12.395        4.447      398.711      107.426        0.073      344.019       20.537      865.725
03/16/2014  17:06:00     -322.277     -143.147      -19.564      180.579      191.044       88.965    32608.630    36497.940     7914.785       10.086        3.851      352.638       80.758        0.052      344.066       20.617      865.755
03/16/2014  17:07:00     -350.480     -205.986        5.877      204.022      164.744       93.168    41625.036    27140.616     8680.305       12.136        3.872      406.529      103.504        0.065      344.051       20.592      865.756
03/16/2014  17:08:00     -411.401     -238.759       -7.185      228.921      181.292       95.453    52404.660    32866.719     9111.337       16.033        4.719      475.665      117.477        0.061      343.983       20.476      865.773
03/16/2014  17:09:00     -416.625     -149.950        2.432      195.524      178.993       92.577    38229.608    32038.642     8570.573       13.744        3.942      442.789       92.049        0.043      344.003       20.510      865.744
03/16/2014  17:10:00     -316.665     -202.388       17.684      283.966      208.100      102.755    80636.747    43305.623    10558.661       13.800        6.725      375.816      122.906        0.107      343.959       20.435      865.730
03/16/2014  17:11:00     -273.504      -46.611       -5.240      214.568      130.441       84.322    46039.501    17014.852     7110.192        7.357        3.508      277.447      104.109        0.141      344.137       20.740      865.743
03/16/2014  17:12:00     -323.695       14.267        8.669      338.105      159.500       90.353   114315.024    25440.129     8163.733       12.646        7.396      324.009      127.715        0.155      344.102       20.680      865.691
03/16/2014  17:13:00     -360.933     -162.080      -10.742      213.859      219.797       93.656    45735.637    48310.803     8771.478       12.972        5.141      395.654      105.157        0.071      344.061       20.610      865.699
03/16/2014  17:14:00     -548.940     -153.276       -5.886      318.018      196.639      116.916   101135.372    38666.917    13669.286       23.914        7.674      569.937      132.650        0.054      343.872       20.286      865.675
03/16/2014  17:15:00     -401.275     -229.250        0.826      304.903      208.094      115.356    92965.940    43302.960    13307.010       18.155        7.479      462.144      127.041        0.076      343.792       20.150      865.639
03/16/2014  17:16:00     -533.684     -240.589      -27.612      224.818      203.452      104.856    50543.351    41392.711    10994.802       22.318        5.147      585.408      100.496        0.029      343.783       20.135      865.638
03/16/2014  17:17:00     -298.639     -143.313       26.750      264.070      219.652      105.581    69732.751    48246.813    11147.333       11.976        6.456      331.246      119.598        0.130      343.903       20.340      865.658
03/16/2014  17:18:00     -513.399      -99.604      -25.549      323.710      216.288      121.254   104788.104    46780.425    14702.542       22.018        8.314      522.972      147.030        0.079      343.773       20.117      865.611
03/16/2014  17:19:00     -439.483     -302.398      -13.953      244.805      169.715      105.894    59929.256    28803.297    11213.443       19.235        4.997      533.469      118.965        0.050      343.786       20.140      865.597
03/16/2014  17:20:00     -490.940     -112.480      -11.377      273.240      200.397      109.305    74660.323    40158.858    11947.502       19.026        6.338      503.661      126.544        0.063      343.764       20.102      865.608
03/16/2014  17:21:00     -362.036     -109.681      -12.871      296.702      169.956       99.128    88032.082    28884.888     9826.327       13.498        6.337      378.286      124.402        0.108      343.804       20.171      865.653
03/16/2014  17:22:00     -336.488       -6.312      -16.954      164.937      141.197       80.990    27204.201    19936.698     6559.307        8.362        2.685      336.547       62.067        0.034      343.841       20.234      865.648
03/16/2014  17:23:00     -265.239     -114.807        7.302      158.942      142.616       75.165    25262.692    20339.399     5649.790        6.741        2.563      289.019       75.729        0.069      343.900       20.334      865.631
03/16/2014  17:24:00     -385.467      -55.280       -4.866      209.829      129.509       81.422    44028.207    16772.686     6629.487       10.953        3.372      389.411       99.452        0.065      343.848       20.247      865.643
03/16/2014  17:25:00     -567.259      -82.379      -21.154      231.869      147.413       74.738    53763.040    21730.580     5585.778       20.503        4.054      573.209       85.430        0.022      343.736       20.054      865.625
03/16/2014  17:26:00     -614.089     -169.514      -16.044      195.847      198.331       97.730    38356.234    39335.228     9551.125       24.665        4.362      637.056       95.972        0.023      343.717       20.021      865.597
03/16/2014  17:27:00     -472.561      -67.445      -30.431      192.537      185.446       88.138    37070.649    34390.313     7768.309       15.399        3.961      477.350       90.832        0.036      343.746       20.071      865.601
03/16/2014  17:28:00     -495.792     -128.242      -38.239      149.979      145.501       86.039    22493.618    21170.553     7402.644       15.738        2.553      512.109       81.115        0.025      343.715       20.020      865.603
03/16/2014  17:29:00     -319.363      -87.696       -3.842      173.996      163.975       79.819    30274.632    26887.693     6371.151        8.660        3.177      331.185       95.111        0.082      343.763       20.101      865.604
03/16/2014  17:30:00     -384.587     -142.739      -12.259      212.280      177.540       89.107    45062.860    31520.622     7940.067       12.646        4.226      410.222       96.228        0.055      343.820       20.198      865.602
03/16/2014  17:31:00     -313.008      -32.424       18.792      274.869      160.156      103.892    75553.202    25649.984    10793.616       10.567        5.600      314.682      127.516        0.164      343.803       20.169      865.592
03/16/2014  17:32:00     -536.244     -130.926      -19.606      273.256      208.009      114.560    74668.864    43267.782    13123.903       21.805        6.553      551.995      139.607        0.064      343.707       20.006      865.539
03/16/2014  17:33:00     -496.787      -47.130      -20.819      264.154      208.285      113.591    69777.335    43382.849    12902.853       18.773        6.303      499.018      122.055        0.060      343.767       20.107      865.485
03/16/2014  17:34:00     -609.696     -227.406       -9.988      314.372      257.251      126.281    98829.936    66178.234    15947.006       30.221        9.048      650.725      164.487        0.064      343.641       19.894      865.529
03/16/2014  17:35:00     -492.911     -312.767       -7.421      312.064      214.450      127.236    97383.895    45988.984    16188.955       25.017        7.978      583.767      158.041        0.073      343.499       19.649      865.570
03/16/2014  17:36:00     -494.327     -134.995      -30.578      225.251      239.687      103.686    50737.944    57449.925    10750.718       19.120        5.947      512.428      107.449        0.044      343.527       19.698      865.562
03/16/2014  17:37:00     -646.551     -179.054      -13.931      204.221      165.890       95.125    41706.323    27519.382     9048.739       26.426        3.914      670.887       98.510        0.022      343.584       19.795      865.547
03/16/2014  17:38:00     -379.418     -209.438      -18.083      299.073      196.791      118.021    89444.704    38726.732    13929.019       16.510        7.105      433.384      143.606        0.110      343.589       19.804      865.541
03/16/2014  17:39:00     -314.561     -155.316       -7.404      201.168      156.416       94.512    40468.700    24465.915     8932.531        9.848        3.693      350.816      103.231        0.087      343.687       19.972      865.563
03/16/2014  17:40:00     -303.113      -67.169        1.178      223.626      172.392      100.935    50008.582    29719.052    10187.883        9.314        4.496      310.466      107.069        0.119      343.708       20.007      865.571
03/16/2014  17:41:00     -376.152     -149.431      -14.678      242.710      283.479       99.867    58907.967    80360.524     9973.466       15.661        7.462      404.747       97.210        0.058      343.561       19.756      865.518
03/16/2014  17:42:00     -478.563     -216.779      -12.455      272.548      208.794      118.899    74282.445    43595.104    14136.964       20.407        6.601      525.372      143.440        0.075      343.585       19.796      865.511
03/16/2014  17:43:00     -529.033     -181.978      -43.473      313.343      190.385      130.718    98183.689    36246.426    17087.214       23.317        7.576      559.456      152.851        0.075      343.502       19.655      865.538
03/16/2014  17:44:00     -307.695      -18.430      -11.543      185.596      170.550       99.143    34445.712    29087.281     9829.263        8.424        3.668      308.247       94.915        0.095      343.528       19.699      865.501
03/16/2014  17:45:00     -398.272     -112.439      -34.429      216.856      143.406       79.282    47026.372    20565.323     6285.615       12.315        3.694      413.839       74.594        0.032      343.584       19.794      865.453
03/16/2014  17:46:00     -730.521      -56.256      -24.115      336.443      225.078      125.361   113193.746    50660.140    15715.374       35.845        8.978      732.684      149.368        0.042      343.497       19.646      865.431
03/16/2014  17:47:00     -619.617     -273.106      -57.666      242.537      197.161       98.616    58824.047    38872.468     9725.195       28.461        5.371      677.135      103.103        0.023      343.477       19.613      865.506
03/16/2014  17:48:00     -411.984     -180.956      -11.971      245.915      158.725       88.228    60474.203    25193.507     7784.226       14.802        4.673      449.973      101.902        0.051      343.455       19.575      865.549
03/16/2014  17:49:00     -576.458     -139.372      -14.514      285.114      189.846      104.522    81289.861    36041.502    10924.869       24.007        6.413      593.067      121.522        0.042      343.464       19.591      865.521
03/16/2014  17:50:00     -528.288     -256.868       -9.046      260.372      171.204      110.215    67793.352    29310.835    12147.359       22.718        5.463      587.426      132.854        0.051      343.401       19.484      865.551
03/16/2014  17:51:00     -383.165        1.795      -19.215      222.058      137.598       97.700    49309.814    18933.103     9545.240       11.247        3.889      383.169      115.041        0.090      343.423       19.522      865.570
03/16/2014  17:52:00     -511.788     -139.355      -16.361      220.131      181.794       89.130    48457.689    33048.950     7944.144       18.552        4.473      530.421      104.911        0.039      343.374       19.437      865.538
03/16/2014  17:53:00     -420.121      -50.237       -8.847      222.569      155.841       85.546    49537.012    24286.428     7318.071       13.011        4.057      423.114      104.246        0.061      343.388       19.461      865.506
03/16/2014  17:54:00     -261.994      -92.386       -8.210      139.791       95.177       61.800    19541.539     9058.617     3819.291        5.482        1.621      277.806       63.252        0.052      343.454       19.574      865.472
03/16/2014  17:55:00     -227.803       -9.377       -6.914      142.853       76.229       63.657    20406.930     5810.922     4052.194        4.114        1.514      227.996       70.611        0.096      343.432       19.536      865.457
03/16/2014  17:56:00     -567.758     -162.402      -27.541      212.267      151.303       73.050    45057.156    22892.643     5336.240       21.137        3.664      590.528       68.653        0.014      343.431       19.534      865.413
03/16/2014  17:57:00     -622.104     -206.031      -41.984      221.092      206.602       95.671    48881.471    42684.576     9152.980       26.595        5.036      655.334       93.605        0.020      343.378       19.444      865.432
03/16/2014  17:58:00     -373.665     -108.644      -15.452      217.766      216.192       93.832    47422.234    46738.799     8804.530       12.730        5.148      389.139       95.913        0.061      343.418       19.513      865.382
03/16/2014  17:59:00     -391.645     -232.454      -14.159      284.912      190.741      109.012    81174.642    36382.086    11883.619       16.850        6.472      455.435      128.636        0.080      343.386       19.459      865.393
03/16/2014  18:00:00     -452.347     -102.330       -0.847      267.326      191.062      106.710    71463.139    36504.765    11386.966       16.720        5.968      463.777      117.687        0.064      343.320       19.345      865.422
03/16/2014  18:01:00     -407.917     -153.110      -19.535      254.032      203.229      101.844    64532.145    41302.085    10372.211       15.319        5.810      435.705      132.394        0.092      343.306       19.322      865.417
03/16/2014  18:02:00     -256.046     -115.956      -11.778      172.024      146.496       62.205    29592.224    21461.107     3869.448        6.702        2.746      281.079       74.530        0.070      343.391       19.467      865.431
03/16/2014  18:03:00     -381.512     -217.862      -12.269      196.291      180.293       93.072    38530.279    32505.428     8662.338       13.642        3.985      439.335       95.087        0.047      343.350       19.397      865.438
03/16/2014  18:04:00     -425.132     -129.303      -25.595      190.592      167.656       91.737    36325.278    28108.388     8415.636       13.547        3.642      444.361       94.486        0.045      343.312       19.331      865.418
03/16/2014  18:05:00     -467.660       42.668      -24.046      202.568      165.028       90.528    41033.953    27234.347     8195.382       14.877        3.823      469.603       99.556        0.045      343.311       19.330      865.425
03/16/2014  18:06:00     -620.998      -55.384      -37.779      274.872      203.263      106.276    75554.706    41315.730    11294.563       25.912        6.408      623.463      140.548        0.051      343.268       19.256      865.398
03/16/2014  18:07:00     -309.011     -199.966      -16.954      274.038      159.655       89.918    75096.612    25489.785     8085.325       12.219        5.434      368.068      101.267        0.076      343.268       19.255      865.409
03/16/2014  18:08:00     -263.405     -185.099        0.603      222.356      148.480       85.673    49442.025    22046.254     7339.842        9.122        3.941      321.938      105.533        0.107      343.252       19.230      865.396
03/16/2014  18:09:00     -308.069     -124.945       -3.053      175.258      147.738       82.233    30715.480    21826.528     6762.302        8.490        2.965      332.442       85.285        0.066      343.304       19.317      865.370
03/16/2014  18:10:00     -278.063     -115.634       -6.619      258.846      163.761       96.121    67001.140    26817.550     9239.286        9.688        5.153      301.148      116.743        0.150      343.334       19.370      865.391
03/16/2014  18:11:00     -502.131     -159.645      -26.701      191.028      214.286       94.376    36491.687    45918.364     8906.739       18.481        4.566      526.899       84.380        0.026      343.226       19.187      865.405
03/16/2014  18:12:00     -497.384     -284.408      -23.803      262.774      228.091      109.661    69050.423    52025.305    12025.439       23.095        6.655      572.957      132.324        0.053      343.169       19.088      865.397
03/16/2014  18:13:00     -284.682      -25.830       -5.790      216.363      165.297       85.427    46812.955    27322.933     7297.735        8.157        4.072      285.852       99.418        0.121      343.257       19.238      865.399
03/16/2014  18:14:00     -422.921      -55.762       -6.521      277.091      145.584       93.768    76779.524    21194.679     8792.428       14.437        5.338      426.582      114.018        0.071      343.224       19.182      865.415
03/16/2014  18:15:00     -623.282     -127.804      -40.214      271.352      178.107      114.052    73631.805    31722.114    13007.840       26.237        5.918      636.250      134.085        0.044      343.132       19.026      865.404
03/16/2014  18:16:00     -314.114      -70.810        0.939      166.380      141.522       73.604    27682.326    20028.557     5417.496        7.839        2.656      321.996       76.966        0.057      343.166       19.084      865.419
03/16/2014  18:17:00     -317.914      -76.690      -10.010      205.556      122.306       71.147    42253.299    14958.698     5061.884        8.465        3.114      327.033       80.370        0.060      343.136       19.031      865.412
03/16/2014  18:18:00     -263.968      -61.604       -0.977      273.813      180.759      104.182    74973.777    32673.646    10853.963        9.596        5.925      271.061      114.432        0.178      343.112       18.990      865.372
03/16/2014  18:19:00     -365.242       35.033      -16.058      253.377      172.499       82.395    64200.112    29755.766     6788.904       11.780        5.037      366.918      107.769        0.086      343.058       18.899      865.358
03/16/2014  18:20:00     -215.624     -140.678      -12.133      183.939      126.160       80.759    33833.685    15916.339     6522.015        6.134        2.814      257.457       84.850        0.109      343.099       18.968      865.385
03/16/2014  18:21:00     -404.432     -103.898      -23.663      189.190      136.883       72.178    35792.792    18737.079     5209.711       11.732        2.987      417.564       93.499        0.050      343.081       18.938      865.431
03/16/2014  18:22:00     -387.616      -24.254      -10.812      160.042      177.861       81.329    25613.379    31634.487     6614.335       10.739        3.193      388.374       88.264        0.052      343.099       18.969      865.453
03/16/2014  18:23:00     -362.608      -98.910       -9.997      255.872      162.832       96.703    65470.239    26514.181     9351.377       12.133        5.067      375.856      123.830        0.109      343.050       18.887      865.445
03/16/2014  18:24:00     -273.984     -108.081      -10.026      184.624      156.331       79.212    34085.854    24439.381     6274.595        7.581        3.240      294.532       83.160        0.080      343.068       18.915      865.450
03/16/2014  18:25:00     -338.355     -198.472       -0.214      245.101      255.183      104.492    60074.610    65118.610    10918.594       14.497        6.806      392.269      118.532        0.091      343.007       18.812      865.410
03/16/2014  18:26:00     -394.773     -217.435      -17.243      173.487      146.341       87.882    30097.714    21415.653     7723.316       13.132        2.962      450.692       94.212        0.044      342.972       18.753      865.401
03/16/2014  18:27:00     -384.181     -126.485      -38.420      199.833      166.804       72.756    39933.079    27823.583     5293.481       11.905        3.653      404.467       63.703        0.025      343.007       18.811      865.440
03/16/2014  18:28:00     -462.393     -141.539      -25.747      167.056      152.373       81.159    27907.558    23217.422     6586.707       14.610        2.886      483.570       77.992        0.026      342.953       18.720      865.434
03/16/2014  18:29:00     -383.226      -74.009       -9.518      216.103      123.787       77.561    46700.669    15323.142     6015.658       11.022        3.402      390.307       84.980        0.047      342.957       18.727      865.428
03/16/2014  18:30:00     -448.012     -170.623      -17.835      218.469      133.288       84.833    47728.844    17765.603     7196.701       15.140        3.635      479.402       86.716        0.033      342.917       18.659      865.394
03/16/2014  18:31:00     -498.463      -90.206      -22.218      298.476      219.766       99.842    89088.144    48297.179     9968.470       20.220        7.368      506.559      113.567        0.050      342.921       18.666      865.376
03/16/2014  18:32:00     -557.462      -89.547      -33.207      255.582      181.905      100.927    65321.906    33089.385    10186.230       21.422        5.430      564.608      121.022        0.046      342.877       18.592      865.407
03/16/2014  18:33:00     -244.823      -74.941       -4.192      213.700      191.477       86.270    45667.639    36663.285     7442.549        7.765        4.489      256.036       97.630        0.145      342.870       18.579      865.442
03/16/2014  18:34:00     -395.833     -237.670      -11.352      248.431      152.577       87.148    61717.759    23279.667     7594.824       15.293        4.630      461.704       98.501        0.046      342.850       18.545      865.407
03/16/2014  18:35:00     -249.786      -29.987       14.300      194.896      185.420      106.546    37984.333    34380.404    11352.005        7.359        4.186      251.579      112.864        0.201      342.868       18.576      865.380
03/16/2014  18:36:00     -507.519       76.397      -43.605      186.276      146.163       81.694    34698.684    21363.602     6673.946       16.401        3.137      513.237       78.460        0.023      342.803       18.463      865.361
03/16/2014  18:37:00     -494.355      -38.336      -16.191      203.646      178.833       93.416    41471.841    31981.253     8726.593       16.413        4.109      495.839       93.881        0.036      342.783       18.431      865.324
03/16/2014  18:38:00     -422.265      -22.518       -8.632      179.065      189.518       91.750    32064.399    35917.144     8418.024       12.763        3.820      422.865       85.381        0.041      342.758       18.389      865.325
03/16/2014  18:39:00     -329.343      -30.617       20.691      219.028      164.083       91.043    47973.259    26923.139     8288.878        9.649        4.159      330.763       85.370        0.067      342.768       18.406      865.323
03/16/2014  18:40:00     -156.562      -48.935       19.640      118.147       98.387       57.897    13958.810     9680.069     3352.081        2.714        1.350      164.032       58.785        0.128      342.772       18.413      865.278
03/16/2014  18:41:00     -184.716     -141.837       -5.345      117.008      102.113       55.772    13690.979    10427.065     3110.502        4.074        1.361      232.890       63.944        0.075      342.751       18.377      865.276
03/16/2014  18:42:00     -287.526      -37.649       -2.055      141.641      116.668       67.919    20062.179    13611.314     4613.017        6.118        1.914      289.981       64.003        0.049      342.744       18.365      865.299
03/16/2014  18:43:00     -270.487     -153.315       -6.089      249.439      228.249      104.231    62219.876    52097.760    10864.179       11.092        6.259      310.916      127.065        0.167      342.696       18.284      865.211
03/16/2014  18:44:00     -502.112        0.681      -31.380      270.332      167.389      105.293    73079.600    28018.987    11086.589       18.262        5.609      502.113      115.635        0.053      342.651       18.206      865.251
03/16/2014  18:45:00     -435.017     -221.217      -14.360      200.526      168.711       85.662    40210.514    28463.353     7338.052       15.718        3.801      488.033       93.004        0.036      342.640       18.189      865.256
03/16/2014  18:46:00     -482.080     -297.267      -32.934      244.235      187.847      109.632    59650.599    35286.549    12019.073       21.438        5.348      566.365      117.099        0.043      342.623       18.158      865.223
03/16/2014  18:47:00     -252.089      -80.531       15.003      212.617      197.235      108.752    45206.185    38901.618    11826.913        8.308        4.797      264.639      119.249        0.203      342.619       18.153      865.212
03/16/2014  18:48:00     -463.293      -80.804      -22.699      202.923      143.559       73.650    41177.608    20609.215     5424.251       14.443        3.361      470.286       85.621        0.033      342.583       18.092      865.205
03/16/2014  18:49:00     -384.549     -198.890      -20.300      177.318      146.864       82.555    31441.789    21569.161     6815.352       12.382        2.991      432.938       88.744        0.042      342.565       18.062      865.189
03/16/2014  18:50:00     -334.811     -138.455       -5.677      253.164      205.216       85.212    64091.791    42113.522     7261.039       12.236        5.673      362.310       97.482        0.072      342.559       18.050      865.139
03/16/2014  18:51:00     -371.997     -100.707        9.102      238.048      193.328      109.076    56667.006    37375.824    11897.483       12.725        5.297      385.388      126.444        0.108      342.545       18.025      865.108
03/16/2014  18:52:00     -605.165     -151.090      -46.307      277.696      180.885       99.624    77115.235    32719.559     9924.870       25.545        5.988      623.741      120.710        0.037      342.515       17.976      865.096
03/16/2014  18:53:00     -361.702     -172.664       -8.135      223.639      175.414       87.309    50014.515    30770.244     7622.925       12.454        4.420      400.801       91.557        0.052      342.500       17.950      865.072
03/16/2014  18:54:00     -262.770      -98.535       12.187      193.434      136.473       92.476    37416.647    18624.893     8551.721        7.174        3.230      280.637       96.687        0.119      342.487       17.928      865.071
03/16/2014  18:55:00     -297.254      -42.505        2.948      167.727      130.719       78.278    28132.493    17087.552     6127.403        7.075        2.567      300.277       93.659        0.097      342.422       17.818      865.081
03/16/2014  18:56:00     -223.999     -150.420        4.099      180.831      166.483       88.965    32699.679    27716.674     7914.753        7.056        3.417      269.818      101.720        0.142      342.437       17.843      865.073
03/16/2014  18:57:00     -620.495     -141.333      -35.608      264.014      186.798       92.134    69703.363    34893.596     8488.705       25.965        5.654      636.387       95.687        0.023      342.431       17.831      865.047
03/16/2014  18:58:00     -408.276     -121.433       -3.484      211.553      138.022       98.507    44754.740    19050.094     9703.550       12.746        3.675      425.953      114.650        0.072      342.408       17.793      865.033
03/16/2014  18:59:00     -269.148      -97.361       22.677      192.131      149.262       95.867    36914.202    22279.152     9190.388        7.540        3.419      286.217      101.987        0.127      342.400       17.780      865.023
03/16/2014  19:00:00     -375.545     -139.586      -16.735      180.891      144.648       82.078    32721.430    20922.942     6736.755       11.058        3.019      400.648       85.396        0.045      342.394       17.770      865.009
03/16/2014  19:01:00     -366.571     -144.735      -25.381      207.534      154.930       83.078    43070.513    24003.435     6901.915       11.496        3.699      394.110       86.539        0.048      342.376       17.741      865.003
03/16/2014  19:02:00     -589.959     -160.292      -15.090      210.178      171.597       88.187    44174.806    29445.631     7776.976       22.767        4.070      611.347       74.211        0.015      342.370       17.729      864.939
03/16/2014  19:03:00     -363.492     -155.390       -5.098      210.503      190.007       90.409    44311.326    36102.620     8173.745       12.243        4.429      395.313      106.778        0.073      342.362       17.715      864.998
03/16/2014  19:04:00     -378.263     -108.793       -6.666      162.824      134.006       76.456    26511.606    17957.478     5845.486       10.263        2.516      393.598       85.801        0.048      342.353       17.698      865.048
03/16/2014  19:05:00     -278.683     -101.613       -7.677      170.849       99.420       64.575    29189.344     9884.274     4169.987        6.564        2.162      296.630       73.401        0.061      342.363       17.717      865.068
03/16/2014  19:06:00     -303.137     -149.175       -3.206      166.268      131.521       78.042    27644.917    17297.821     6090.571        8.258        2.552      337.854       84.559        0.063      342.355       17.703      865.061
03/16/2014  19:07:00     -437.164       15.919      -20.532      208.091      168.199       88.709    43302.068    28290.995     7869.292       13.561        3.973      437.454       93.272        0.045      342.333       17.665      865.028
03/16/2014  19:08:00     -190.171     -113.780       13.855      136.989      149.142       70.977    18766.040    22243.415     5037.683        4.767        2.302      221.610       79.978        0.130      342.317       17.641      864.997
03/16/2014  19:09:00     -290.089     -117.018       -4.836      171.527      106.154       70.363    29421.646    11268.591     4950.940        7.175        2.282      312.802       83.308        0.071      342.303       17.615      864.996
03/16/2014  19:10:00     -376.834      -85.346      -20.408      183.402      141.181       77.444    33636.269    19932.085     5997.579       10.462        2.978      386.378       84.911        0.048      342.271       17.561      864.975
03/16/2014  19:11:00     -327.463      -63.691      -17.673      159.031      125.886       71.097    25291.016    15847.235     5054.842        7.889        2.310      333.599       75.623        0.051      342.255       17.535      864.975
03/16/2014  19:12:00     -345.416      -83.001      -10.202      232.469      144.342       75.028    54041.986    20834.593     5629.257       10.339        4.025      355.249       91.095        0.066      342.226       17.486      864.970
03/16/2014  19:13:00     -353.017      -97.772       -2.507      155.014      176.983       76.618    24029.494    31322.851     5870.384        9.769        3.061      366.306       65.339        0.032      342.232       17.494      864.985
03/16/2014  19:14:00     -407.195      -82.280       -8.728      160.539      110.972       72.220    25772.668    12314.745     5215.703       10.797        2.165      415.425       72.781        0.031      342.240       17.509      865.007
03/16/2014  19:15:00     -374.634     -171.084      -22.859      195.053      128.853       77.937    38045.771    16603.097     6074.215       11.542        3.036      411.850       98.574        0.057      342.287       17.588      865.026
03/16/2014  19:16:00     -220.948     -116.307        1.194      142.060       88.326       61.704    20181.027     7801.538     3807.347        4.706        1.589      249.690       63.845        0.065      342.232       17.495      865.016
03/16/2014  19:17:00     -262.313      -17.190       -5.931      137.644       60.725       51.036    18945.745     3687.547     2604.626        4.718        1.262      262.876       54.878        0.044      342.192       17.428      865.001
03/16/2014  19:18:00     -290.401     -113.313      -11.653      135.938      112.959       72.988    18479.101    12759.733     5327.270        6.693        1.828      311.725       66.769        0.046      342.171       17.392      864.993
03/16/2014  19:19:00     -303.825     -213.998        3.752      193.706      132.115       85.762    37521.868    17454.388     7355.146       10.021        3.117      371.624      103.748        0.078      342.287       17.588      864.988
03/16/2014  19:20:00     -270.558     -156.102        7.723      185.721      152.809       76.092    34492.118    23350.543     5789.958        8.062        3.182      312.361       91.666        0.086      342.279       17.574      864.979
03/16/2014  19:21:00     -283.392     -105.764      -15.975      142.214      134.715       57.841    20224.755    18148.139     3345.608        6.673        2.086      302.484       62.119        0.042      342.267       17.554      865.006
03/16/2014  19:22:00     -286.622      -79.484      -12.609      148.296       97.517       62.672    21991.758     9509.523     3927.750        6.202        1.771      297.438       64.666        0.047      342.185       17.413      864.991
03/16/2014  19:23:00     -231.923      -91.634      -11.805       96.242       84.488       43.472     9262.427     7138.205     1889.834        4.030        0.915      249.369       42.013        0.028      342.155       17.363      864.974
03/16/2014  19:24:00     -115.711      -84.132        7.823      129.780       85.461       56.733    16842.914     7303.562     3218.671        2.394        1.368      143.064       58.347        0.166      342.087       17.249      864.964
03/16/2014  19:25:00     -184.598      -96.608        0.852      161.536      113.568       55.200    26093.981    12897.630     3046.989        4.272        2.102      208.349       69.658        0.112      342.082       17.241      864.960
03/16/2014  19:26:00     -241.170      -93.478       -8.337      140.267      125.964       68.947    19674.905    15866.912     4753.674        5.363        2.015      258.653       83.513        0.104      342.043       17.172      864.956
03/16/2014  19:27:00     -345.694     -122.077      -21.153      125.102      128.736       60.516    15650.473    16572.993     3662.185        8.536        1.794      366.616       72.705        0.039      342.051       17.186      864.968
03/16/2014  19:28:00     -214.408     -148.495       -9.425      165.088      102.701       59.341    27254.027    10547.457     3521.299        5.471        2.066      260.810       70.227        0.073      341.989       17.081      864.930
03/16/2014  19:29:00     -121.581     -111.416       -4.370      128.263       94.878       51.464    16451.344     9001.808     2648.559        2.765        1.405      164.910       56.435        0.117      341.977       17.062      864.888
03/16/2014  19:30:00     -204.171     -129.072        6.605      169.871      119.008       65.645    28856.249    14162.998     4309.208        5.285        2.366      241.548       74.326        0.095      341.962       17.037      864.878
03/16/2014  19:31:00     -245.587     -106.715       -7.843      140.554       80.345       57.461    19755.499     6455.326     3301.709        5.063        1.476      267.771       56.408        0.044      341.980       17.066      864.855
03/16/2014  19:32:00     -290.112      -96.675      -10.709      155.502      190.376       72.910    24180.959    36242.955     5315.807        7.967        3.287      305.795       75.042        0.060      341.970       17.049      864.847
03/16/2014  19:33:00     -322.628      -99.137       -7.515      199.916      122.204       77.619    39966.553    14933.866     6024.649        8.744        3.046      337.516       88.639        0.069      342.030       17.151      864.841
03/16/2014  19:34:00     -273.541      -49.726      -18.032      123.433      119.456       62.971    15235.648    14269.762     3965.360        5.554        1.674      278.024       58.104        0.044      342.018       17.131      864.839
03/16/2014  19:35:00     -307.059     -103.137       -9.448      154.730      130.577       66.244    23941.314    17050.404     4388.268        7.519        2.269      323.918       80.866        0.062      341.975       17.057      864.831
03/16/2014  19:36:00     -235.322      -65.293       -0.693      143.582      109.346       59.642    20615.802    11956.555     3557.218        4.788        1.806      244.212       70.535        0.083      341.958       17.029      864.813
03/16/2014  19:37:00     -212.724      -88.311        9.763      146.176      127.115       73.698    21367.433    16158.243     5431.385        4.804        2.148      230.326       75.582        0.108      341.943       17.004      864.818
03/16/2014  19:38:00     -301.956     -150.670        1.049      192.639      145.187       71.929    37109.685    21079.227     5173.840        8.861        3.168      337.460       90.651        0.072      341.999       17.098      864.815
03/16/2014  19:39:00     -387.029     -294.575       -4.326      182.675      142.182       90.595    33369.991    20215.841     8207.540       14.918        3.090      486.380       99.991        0.042      342.005       17.107      864.801
03/16/2014  19:40:00     -256.616     -136.939       -4.715      111.124       93.026       57.867    12348.552     8653.902     3348.576        5.448        1.218      290.868       55.952        0.037      341.949       17.014      864.774
03/16/2014  19:41:00     -255.669     -116.878        6.476      167.156      147.565       74.307    27941.287    21775.568     5521.538        6.714        2.762      281.118       83.145        0.087      341.948       17.012      864.773
03/16/2014  19:42:00     -391.503     -104.627       -2.234      146.958      125.767       60.242    21596.726    15817.307     3629.130       10.263        2.052      405.242       76.063        0.035      342.029       17.150      864.778
03/16/2014  19:43:00     -327.170     -158.979      -15.384      101.821      102.056       52.408    10367.477    10415.406     2746.560        7.804        1.176      363.750       48.979        0.018      341.890       16.912      864.828
03/16/2014  19:44:00     -212.448      -40.541        2.475      146.067       88.699       57.901    21335.694     7867.461     3352.528        3.966        1.628      216.281       70.571        0.106      341.829       16.812      864.815
03/16/2014  19:45:00     -163.428      -36.178       19.749      110.287       86.854       54.046    12163.127     7543.602     2920.919        2.551        1.131      167.385       56.598        0.114      341.816       16.788      864.806
03/16/2014  19:46:00     -131.536      -69.650        0.813      101.081       67.560       53.081    10217.459     4564.388     2817.544        1.987        0.880      148.839       54.783        0.135      341.784       16.736      864.794
03/16/2014  19:47:00     -175.111     -104.761       -6.245      107.943       89.230       57.439    11651.764     7962.062     3299.229        3.229        1.146      204.056       56.347        0.076      341.709       16.606      864.793
03/16/2014  19:48:00     -129.159      -47.986       16.294      117.640      115.912       60.357    13839.151    13435.555     3642.946        2.508        1.546      137.785       54.698        0.158      341.697       16.586      864.774
03/16/2014  19:49:00     -186.392      -17.379       10.610      113.157       80.580       65.143    12804.471     6493.079     4243.635        2.934        1.177      187.200       68.082        0.132      341.661       16.526      864.737
03/16/2014  19:50:00     -240.092       -4.990        8.153      131.534       93.600       61.767    17301.285     8760.948     3815.215        4.380        1.494      240.144       65.321        0.074      341.699       16.589      864.739
03/16/2014  19:51:00     -193.139      -98.879       -5.052      109.962      105.295       48.728    12091.696    11087.039     2374.421        3.632        1.278      216.978       57.963        0.071      341.698       16.587      864.734
03/16/2014  19:52:00     -131.438      -15.704       16.071      107.154       74.099       50.993    11482.076     5490.647     2600.269        1.867        0.979      132.373       55.842        0.178      341.704       16.599      864.742
03/16/2014  19:53:00     -152.576     -101.943        2.800      149.677       82.678       48.003    22403.270     6835.684     2304.281        3.261        1.577      183.499       57.172        0.097      341.644       16.498      864.716
03/16/2014  19:54:00     -130.783      -71.343        6.244      105.801       82.049       60.373    11193.757     6732.027     3644.918        2.190        1.079      148.976       62.671        0.177      341.656       16.518      864.694
03/16/2014  19:55:00     -163.471      -68.828       -0.355       74.996       60.486       35.385     5624.471     3658.573     1252.130        2.100        0.527      177.370       28.813        0.026      341.634       16.480      864.693
03/16/2014  19:56:00     -271.208      -80.505       -4.578      179.095       97.512       64.580    32075.143     9508.608     4170.627        6.290        2.288      282.904       80.068        0.080      341.614       16.448      864.673
03/16/2014  19:57:00     -261.397      -67.963        6.252      140.679      117.294       63.622    19790.708    13757.780     4047.713        5.528        1.880      270.088       72.120        0.071      341.552       16.341      864.664
03/16/2014  19:58:00     -193.613     -149.134        7.841      172.286      134.471       88.596    29682.549    18082.472     7849.225        5.769        2.781      244.390       91.619        0.141      341.544       16.327      864.674
03/16/2014  19:59:00     -167.603      -61.607       12.231      151.836      113.682       68.564    23054.169    12923.513     4701.031        3.635        2.034      178.568       68.750        0.148      341.573       16.376      864.671
03/16/2014  20:00:00     -377.079      -79.041      -14.756      155.124      115.619       80.385    24063.565    13367.727     6461.677        9.626        2.195      385.274       77.458        0.040      341.570       16.369      864.647
03/16/2014  20:01:00     -297.860      -33.613        2.378      135.801      125.056       67.694    18442.000    15639.033     4582.489        6.425        1.933      299.751       73.663        0.060      341.563       16.359      864.666
03/16/2014  20:02:00     -218.118      -75.273       20.019      189.388      131.042       70.089    35867.703    17171.988     4912.500        5.579        2.898      230.741       90.616        0.154      341.535       16.313      864.658
03/16/2014  20:03:00     -199.542      -64.171       12.412      177.036      112.184       72.064    31341.865    12585.266     5193.211        4.659        2.456      209.607       76.515        0.133      341.514       16.276      864.641
03/16/2014  20:04:00     -374.872     -185.002      -12.846      184.332      132.755       79.365    33978.129    17623.845     6298.830       11.640        2.895      418.036       90.175        0.047      341.678       16.555      864.660
03/16/2014  20:05:00     -327.045     -211.494       -9.267      169.696      125.079       76.533    28796.804    15644.717     5857.309       10.103        2.515      389.472       87.995        0.051      341.667       16.536      864.651
03/16/2014  20:06:00     -360.329     -184.768      -23.715      155.862      149.298       73.267    24292.947    22289.890     5368.119       10.823        2.598      404.940       85.017        0.044      341.675       16.550      864.645
03/16/2014  20:07:00     -270.155      -65.849       -3.653      125.706      104.848       61.977    15801.959    10993.110     3841.105        5.398        1.532      278.065       63.040        0.051      341.592       16.408      864.660
03/16/2014  20:08:00     -343.589     -107.909       -9.290      188.868      133.605       78.456    35671.263    17850.182     6155.373        9.472        2.984      360.135       85.822        0.057      341.536       16.313      864.661
03/16/2014  20:09:00     -326.700      -52.457       -4.200      179.757      119.267       80.090    32312.588    14224.533     6414.365        8.122        2.648      330.884       86.012        0.068      341.493       16.241      864.618
03/16/2014  20:10:00     -316.931     -155.456       -8.276      151.152      132.835       73.002    22846.973    17645.022     5329.349        8.524        2.291      353.004       73.126        0.043      341.516       16.278      864.612
03/16/2014  20:11:00     -251.489     -189.173       -6.029       99.603      109.015       62.128     9920.770    11884.229     3859.949        6.236        1.283      314.695       62.565        0.040      341.511       16.270      864.589
03/16/2014  20:12:00     -251.131     -195.218       -1.422      151.488      111.233       66.976    22948.598    12372.710     4485.821        7.049        1.990      318.083       70.939        0.050      341.505       16.261      864.568
03/16/2014  20:13:00     -234.013     -189.786        5.370      144.073       98.480       63.907    20756.965     9698.228     4084.073        6.267        1.727      301.299       66.893        0.049      341.478       16.214      864.613
03/16/2014  20:14:00     -274.954     -247.343       -6.568      163.259      132.718       74.352    26653.415    17613.973     5528.234        9.330        2.490      369.836       87.350        0.056      341.460       16.184      864.657
03/16/2014  20:15:00     -250.454     -100.555        9.173      127.416      113.883       71.199    16234.755    12969.250     5069.366        5.359        1.714      269.886       68.696        0.065      341.413       16.105      864.651
03/16/2014  20:16:00     -233.969     -192.112      -11.179      126.913       75.364       59.138    16106.951     5679.664     3497.301        5.852        1.264      302.735       63.673        0.044      341.446       16.161      864.640
03/16/2014  20:17:00     -260.521     -172.083      -10.493      158.512      129.465       68.618    25126.074    16761.188     4708.492        7.209        2.330      312.224       85.319        0.075      341.455       16.176      864.584
03/16/2014  20:18:00     -245.266     -116.456        6.963      150.522      107.490       61.549    22656.920    11554.002     3788.318        5.587        1.900      271.509       57.030        0.044      341.437       16.145      864.531
03/16/2014  20:19:00     -254.503     -145.539        7.229      207.498      127.453       67.933    43055.434    16244.233     4614.840        7.495        3.196      293.178       94.664        0.104      341.515       16.279      864.517
03/16/2014  20:20:00     -253.034     -163.031      -11.905      117.360       87.451       57.626    13773.441     7647.720     3320.723        5.774        1.237      301.007       53.884        0.032      341.503       16.258      864.522
03/16/2014  20:21:00     -267.997     -202.051       11.457      146.335      112.732       74.222    21413.817    12708.558     5508.964        7.620        1.982      335.629       79.663        0.056      341.479       16.215      864.553
03/16/2014  20:22:00     -281.876     -176.824       -4.897      144.997       99.263       71.280    21024.080     9853.152     5080.787        7.334        1.798      332.747       71.359        0.046      341.410       16.100      864.568
03/16/2014  20:23:00     -350.142     -222.386       -9.318      115.404       83.924       61.039    13318.119     7043.261     3725.801        9.811        1.204      414.795       60.271        0.021      341.354       16.004      864.569
03/16/2014  20:24:00     -326.450     -220.854       -7.209      137.938      124.091       71.907    19026.983    15398.479     5170.591        9.749        1.980      394.140       66.517        0.028      341.402       16.085      864.564
03/16/2014  20:25:00     -290.216     -203.218      -19.102      166.915      114.652       61.211    27860.678    13144.973     3746.730        8.531        2.238      354.292       79.052        0.050      341.363       16.021      864.517
03/16/2014  20:26:00     -232.462     -181.282       -1.006      147.492      131.819       62.767    21753.771    17376.140     3939.747        6.498        2.153      294.791       77.952        0.070      341.300       15.914      864.479
03/16/2014  20:27:00     -299.930     -157.558        0.289      116.612      111.106       67.869    13598.429    12344.568     4606.264        7.266        1.527      338.796       62.881        0.034      341.309       15.930      864.471
03/16/2014  20:28:00     -299.609     -228.597       -3.805      150.497      106.294       74.330    22649.448    11298.395     5524.920        9.075        1.974      376.858       68.545        0.033      341.296       15.908      864.459
03/16/2014  20:29:00     -327.292     -152.352       -6.946      132.210      111.603       68.656    17479.432    12455.224     4713.578        8.251        1.732      361.014       71.536        0.039      341.300       15.915      864.468
03/16/2014  20:30:00     -249.006     -106.789       -6.950      120.961      101.902       59.764    14631.621    10383.930     3571.793        5.102        1.429      270.939       50.265        0.034      341.334       15.972      864.459
03/16/2014  20:31:00     -224.561     -196.464       -5.383      116.969      117.753       54.303    13681.719    13865.827     2948.845        5.977        1.525      298.371       58.500        0.038      341.321       15.950      864.467
03/16/2014  20:32:00     -141.309     -121.960       -3.484      126.156       85.003       47.095    15915.281     7225.433     2217.981        3.010        1.268      186.661       48.121        0.066      341.347       15.996      864.425
03/16/2014  20:33:00     -254.333     -159.088       -0.297      148.659       82.112       54.392    22099.491     6742.331     2958.470        6.089        1.590      299.991       48.823        0.026      341.448       16.163      864.401
03/16/2014  20:34:00     -339.198     -137.595      -12.770      205.436      132.610       91.484    42203.895    17585.460     8369.362       10.114        3.408      366.043       87.356        0.057      341.564       16.359      864.367
03/16/2014  20:35:00     -468.873     -307.835       -9.474      144.933      135.964       76.464    21005.488    18486.143     5846.756       18.001        2.267      560.896       69.419        0.015      341.680       16.558      864.385
03/16/2014  20:36:00     -314.566     -229.162        4.129      202.387      165.208      106.474    40960.540    27293.686    11336.742       11.552        3.980      389.187      101.091        0.067      341.594       16.412      864.437
03/16/2014  20:37:00     -223.879     -187.013       12.761      166.707      118.152       76.701    27791.166    13959.987     5883.090        6.644        2.382      291.711       82.256        0.080      341.527       16.298      864.451
03/16/2014  20:38:00     -167.486     -132.326      -16.238      105.299       72.117       47.097    11087.967     5200.793     2218.131        3.216        0.925      213.452       41.921        0.039      341.470       16.201      864.443
03/16/2014  20:39:00     -215.429     -171.514       -7.122      127.374       88.707       67.326    16224.098     7868.996     4532.781        5.225        1.431      275.367       62.529        0.052      341.465       16.193      864.398
03/16/2014  20:40:00     -190.203     -169.781       -4.951      125.460       88.494       57.368    15740.234     7831.243     3291.058        4.594        1.343      254.956       51.390        0.041      341.467       16.196      864.389
03/16/2014  20:41:00     -337.004     -191.239      -25.149      185.973      110.425       69.644    34585.787    12193.658     4850.320       10.119        2.581      387.484       79.205        0.042      341.570       16.370      864.393
03/16/2014  20:42:00     -273.918     -157.209      -18.604      172.510      105.749       63.367    29759.821    11182.852     4015.410        7.252        2.248      315.825       78.437        0.062      341.746       16.669      864.335
03/16/2014  20:43:00     -209.540      -87.097       12.199      167.151      103.078       64.616    27939.303    10625.008     4175.203        4.718        2.137      226.920       59.921        0.070      341.555       16.346      864.287
03/16/2014  20:44:00     -297.186     -119.236       11.425      187.542      141.959       75.929    35172.131    20152.471     5765.145        8.187        3.054      320.213       81.531        0.065      341.752       16.679      864.246
03/16/2014  20:45:00     -174.981     -146.886       18.323      160.634      103.564       60.975    25803.344    10725.545     3717.994        4.638        2.012      228.460       62.944        0.076      341.618       16.453      864.321
03/16/2014  20:46:00     -231.460     -200.570       -8.657      151.377      141.543       69.494    22914.845    20034.300     4829.436        7.082        2.389      306.271       75.753        0.061      341.592       16.407      864.377
03/16/2014  20:47:00     -141.681     -226.502       -5.848       76.062      117.526       53.170     5785.497    13812.244     2827.056        4.691        1.121      267.164       52.407        0.038      341.490       16.236      864.396
03/16/2014  20:48:00     -141.136     -174.982       -3.945       81.599      120.818       48.142     6658.413    14597.076     2317.616        3.706        1.179      224.807       45.369        0.041      341.418       16.114      864.399
03/16/2014  20:49:00     -185.024     -116.814       -3.340       99.269       80.324       53.275     9854.242     6451.886     2838.174        3.351        0.957      218.813       55.260        0.064      341.342       15.985      864.352
03/16/2014  20:50:00     -171.552     -189.074       -5.110       84.582       83.858       55.141     7154.186     7032.175     3040.499        4.121        0.861      255.301       46.592        0.033      341.345       15.990      864.321
03/16/2014  20:51:00     -237.545     -129.149        3.739      101.829       73.003       55.576    10369.102     5329.414     3088.732        4.595        0.939      270.383       55.150        0.042      341.294       15.904      864.308
03/16/2014  20:52:00     -245.089     -131.719        4.821      114.537       82.022       54.378    13118.695     6727.593     2956.953        5.012        1.140      278.242       53.558        0.037      341.246       15.822      864.298
03/16/2014  20:53:00     -231.443     -165.154        0.670      142.185       91.828       61.287    20216.699     8432.386     3756.085        5.662        1.620      284.327       61.459        0.047      341.161       15.679      864.288
03/16/2014  20:54:00     -134.273      -88.187       17.959      121.070       64.088       48.614    14657.978     4107.292     2363.347        2.362        1.056      160.643       50.032        0.097      341.066       15.520      864.205
03/16/2014  20:55:00     -252.010     -115.170       -0.111      142.579       88.799       61.608    20328.906     7885.230     3795.592        5.439        1.600      277.080       69.188        0.062      341.124       15.615      864.156
03/16/2014  20:56:00     -335.652     -209.382       -1.525      151.652      132.293       59.021    22998.459    17501.550     3483.526       10.024        2.199      395.605       59.642        0.023      341.441       16.152      864.135
03/16/2014  20:57:00     -200.078     -161.328        4.953      106.589      108.163       64.696    11361.224    11699.184     4185.631        4.666        1.362      257.017       63.947        0.062      341.358       16.012      864.182
03/16/2014  20:58:00     -282.009     -322.040      -14.460      165.337      145.655       80.774    27336.437    21215.373     6524.434       11.925        2.754      428.064       72.721        0.029      341.367       16.026      864.230
03/16/2014  20:59:00      -52.607     -250.560      -13.558      224.245      115.686       69.925    50285.980    13383.232     4889.553        6.713        3.428      256.023       59.632        0.054      341.305       15.922      864.169
03/16/2014  21:00:00        9.770     -125.658        3.355      110.817      113.875       50.640    12280.298    12967.456     2564.402        2.185        1.391      126.037       37.167        0.087      341.263       15.852      864.089
03/16/2014  21:01:00     -138.631     -191.996      -20.608      116.865      119.962       60.385    13657.378    14390.768     3646.398        4.409        1.585      236.814       37.828        0.026      341.318       15.945      864.096
03/16/2014  21:02:00     -166.281     -289.174       -3.536      224.357      179.660       83.380    50336.150    32277.642     6952.201       10.041        4.478      333.573       84.989        0.065      341.538       16.316      864.076
03/16/2014  21:03:00     -177.102     -284.388        1.148      131.647      172.719       83.820    17330.959    29831.697     7025.816        8.321        2.709      335.025       74.955        0.050      341.557       16.348      864.062
03/16/2014  21:04:00     -358.776     -142.489       10.348      212.102      140.260       80.968    44987.219    19672.978     6555.808       11.016        3.561      386.036       87.999        0.052      341.462       16.187      864.036
03/16/2014  21:05:00     -256.929     -239.201       26.173      210.518      171.252       93.532    44317.964    29327.259     8748.250       10.314        4.120      351.041       93.635        0.071      341.553       16.341      864.065
03/16/2014  21:06:00     -344.218     -227.900      -19.785      152.659      175.427       79.636    23304.788    30774.761     6341.941       11.561        3.021      412.826       85.381        0.043      341.517       16.281      864.118
03/16/2014  21:07:00     -412.833     -264.537      -14.569      221.228      125.491       93.244    48941.995    15748.042     8694.450       15.699        3.669      490.317      107.674        0.048      341.537       16.316      864.106
03/16/2014  21:08:00     -273.138     -213.438      -10.920      202.146      126.994       72.785    40863.202    16127.388     5297.696        9.127        3.114      346.641       85.478        0.061      341.518       16.283      864.089
03/16/2014  21:09:00     -192.991     -256.237       -4.324      132.999      125.967       73.565    17688.606    15867.603     5411.750        7.094        1.948      320.785       52.678        0.027      341.518       16.283      864.074
03/16/2014  21:10:00      -72.610     -187.954       30.651      115.561      174.882       77.466    13354.288    30583.567     6000.943        4.573        2.497      201.491       81.966        0.165      341.478       16.215      864.032
03/16/2014  21:11:00     -204.121     -314.410       -6.723      129.028      127.017       65.132    16648.218    16133.327     4242.223        8.879        1.851      374.859       60.523        0.026      341.544       16.326      864.043
03/16/2014  21:12:00     -126.723     -178.609        1.647      102.301       98.584       54.107    10465.441     9718.832     2927.599        3.553        1.156      218.998       52.060        0.057      341.479       16.217      864.018
03/16/2014  21:13:00     -134.735     -225.731        0.254       87.645      109.444       54.667     7681.580    11977.989     2988.494        4.587        1.132      262.885       57.575        0.048      341.453       16.173      864.011
03/16/2014  21:14:00     -195.066     -313.279      -12.152      122.945      121.791       68.910    15115.490    14832.983     4748.617        8.551        1.735      369.046       60.990        0.027      341.455       16.175      864.050
03/16/2014  21:15:00     -219.967     -196.138        2.243      175.794      190.260       84.233    30903.680    36198.707     7095.116        8.051        3.710      294.712       90.351        0.094      341.419       16.115      864.068
03/16/2014  21:16:00     -131.846     -227.883       -3.191      146.251      131.804       66.221    21389.297    17372.176     4385.239        5.623        2.157      263.275       58.821        0.050      341.470       16.202      863.964
03/16/2014  21:17:00      -46.828     -132.465       17.637      123.729      119.074       72.676    15308.788    14178.703     5281.743        2.740        1.738      140.499       58.296        0.172      341.474       16.209      863.851
03/16/2014  21:18:00     -197.390     -100.420       23.121      150.511       93.957       61.953    22653.623     8828.005     3838.172        4.244        1.766      221.466       66.881        0.091      341.414       16.108      863.850
03/16/2014  21:19:00     -315.023     -143.118        3.524      249.080      127.408       86.459    62040.796    16232.788     7475.162       10.272        4.287      346.009       98.429        0.081      341.321       15.949      863.845
03/16/2014  21:20:00     -396.367     -267.421      -10.442      184.078      162.360       83.553    33884.889    26360.660     6981.125       14.797        3.361      478.144       77.155        0.026      341.358       16.012      863.815
03/16/2014  21:21:00     -385.655     -281.279       -7.217      188.865      157.260      104.102    35669.850    24730.570    10837.193       14.955        3.562      477.334      103.209        0.047      341.332       15.966      863.765
03/16/2014  21:22:00     -481.628     -293.979      -26.319      170.824      156.384       81.585    29180.989    24455.959     6656.053       18.968        3.015      564.260       71.905        0.016      341.370       16.032      863.736
03/16/2014  21:23:00     -345.700     -107.694       -7.299      179.065      177.222       69.412    32064.390    31407.555     4818.091        9.971        3.415      362.086       87.467        0.058      341.396       16.075      863.649
03/16/2014  21:24:00     -188.158     -176.312       -2.319       80.979      122.243       45.297     6557.570    14943.322     2051.791        4.502        1.178      257.855       40.017        0.024      341.372       16.035      863.607
03/16/2014  21:25:00     -210.150     -193.614       -7.544      101.134       89.885       50.190    10228.035     8079.391     2519.061        5.126        1.041      285.743       49.108        0.030      341.326       15.956      863.654
03/16/2014  21:26:00     -301.817     -191.562      -12.118       88.344      111.040       56.402     7804.659    12329.811     3181.189        7.562        1.166      357.477       42.646        0.014      341.257       15.842      863.633
03/16/2014  21:27:00     -174.626      -67.424       19.478      146.001       74.908       60.733    21316.312     5611.229     3688.500        3.301        1.531      187.190       64.816        0.120      341.215       15.770      863.530
03/16/2014  21:28:00     -414.646     -296.520      -13.100      259.227      175.910       99.752    67198.885    30944.417     9950.524       18.404        5.405      509.760      115.574        0.051      341.253       15.836      863.527
03/16/2014  21:29:00     -458.265     -313.208      -34.726      203.752      179.185      105.881    41514.731    32107.145    11210.701       19.706        4.242      555.073      111.671        0.040      341.271       15.865      863.435
03/16/2014  21:30:00     -202.318     -167.872        9.840      164.746       88.654       73.913    27141.303     7859.488     5463.092        5.483        2.023      262.894       84.402        0.103      341.222       15.782      863.482
03/16/2014  21:31:00     -311.394     -198.974        6.476      173.307      132.878       81.589    30035.444    17656.519     6656.697        9.546        2.717      369.536       88.152        0.057      341.134       15.635      863.580
03/16/2014  21:32:00     -331.057     -212.482      -10.051      185.163      106.985       75.419    34285.327    11445.881     5688.010       10.312        2.571      393.379       81.657        0.043      341.079       15.541      863.573
03/16/2014  21:33:00     -270.682     -158.404        2.722      135.995      100.861       64.417    18494.712    10172.901     4149.488        6.559        1.641      313.625       63.155        0.041      341.031       15.458      863.572
03/16/2014  21:34:00     -197.115     -179.479      -14.745       98.643       97.831       46.884     9730.359     9570.951     2198.070        4.639        1.075      266.584       33.533        0.016      341.037       15.470      863.571
03/16/2014  21:35:00     -193.002     -201.941      -18.140      137.739       93.829       69.178    18971.973     8803.860     4785.639        5.545        1.628      279.339       71.577        0.066      341.078       15.538      863.561
03/16/2014  21:36:00     -140.422     -188.154       11.540       80.911       87.150       52.258     6546.556     7595.191     2730.876        3.606        0.844      234.777       44.162        0.035      341.015       15.432      863.547
03/16/2014  21:37:00     -160.154     -259.758      -13.822       94.338      104.073       60.294     8899.721    10831.098     3635.409        5.834        1.168      305.162       48.671        0.025      341.018       15.438      863.575
03/16/2014  21:38:00     -157.672     -291.093      -16.968      109.008      127.431       61.414    11882.706    16238.732     3771.694        7.088        1.595      331.052       61.399        0.034      340.999       15.404      863.589
03/16/2014  21:39:00     -247.053     -160.081      -10.932       96.377       81.700       58.719     9288.504     6674.967     3447.933        5.309        0.971      294.382       62.377        0.045      341.058       15.503      863.546
03/16/2014  21:40:00     -263.369     -156.823        4.572      167.589      105.757       51.547    28086.218    11184.549     2657.097        6.794        2.096      306.524       56.859        0.034      341.089       15.557      863.509
03/16/2014  21:41:00     -312.430     -223.028        3.417      258.407      221.235       85.133    66774.385    48945.146     7247.603       13.514        6.148      383.867      106.623        0.077      341.101       15.578      863.471
03/16/2014  21:42:00     -268.869     -198.121       -9.620      151.787      148.647       72.800    23039.196    22095.820     5299.814        8.102        2.522      333.980       86.075        0.066      341.136       15.638      863.385
03/16/2014  21:43:00     -149.809     -130.069       -5.448      105.186       89.095       53.060    11064.106     7938.006     2815.317        3.060        1.091      198.395       55.565        0.078      341.191       15.730      863.390
03/16/2014  21:44:00     -148.067      -88.223       10.611      119.581       90.803       49.035    14299.616     8245.208     2404.451        2.738        1.247      172.358       49.764        0.083      341.167       15.689      863.354
03/16/2014  21:45:00     -237.523     -145.606       -2.094      184.910      114.198       74.308    34191.779    13041.268     5521.750        6.518        2.638      278.600       81.412        0.085      341.125       15.620      863.315
03/16/2014  21:46:00     -336.775     -211.764       -7.429      146.722      112.365       70.543    21527.284    12625.810     4976.339        9.872        1.956      397.821       77.250        0.038      341.106       15.585      863.292
03/16/2014  21:47:00     -254.370     -140.298      -10.323      148.560      125.736       69.462    22070.089    15809.450     4824.991        6.359        2.135      290.495       68.485        0.056      341.066       15.518      863.240
03/16/2014  21:48:00     -289.888     -164.104        4.912      163.922      105.381       74.141    26870.440    11105.153     5496.913        7.722        2.174      333.114       79.080        0.056      341.008       15.420      863.244
03/16/2014  21:49:00     -160.622     -164.898       14.137      118.935       93.580       67.705    14145.490     8757.289     4583.940        4.033        1.374      230.197       64.979        0.080      341.024       15.445      863.283
03/16/2014  21:50:00     -305.805     -212.236       -6.532      146.111      120.745       70.474    21348.361    14579.407     4966.615        8.974        2.045      372.238       73.130        0.039      341.029       15.457      863.262
03/16/2014  21:51:00     -307.133     -173.638        8.311      181.001      165.212       99.011    32761.457    27295.037     9803.192        9.719        3.493      352.819       99.684        0.080      341.075       15.532      863.174
03/16/2014  21:52:00     -642.976     -266.955      -20.373      208.894      208.615       99.441    43636.663    43520.361     9888.572       29.105        4.852      696.192      113.283        0.026      341.108       15.588      863.104
03/16/2014  21:53:00     -214.141     -122.426        4.381      219.900      168.589       80.183    48355.973    28422.281     6429.308        7.202        4.160      246.667      103.780        0.177      341.245       15.822      863.069
03/16/2014  21:54:00     -378.250     -261.281       -9.370      185.645      151.920       80.277    34464.136    23079.642     6444.380       13.770        3.199      459.718       76.808        0.028      341.138       15.640      863.038
03/16/2014  21:55:00     -240.497     -214.012        0.853      167.408      131.979       86.288    28025.566    17418.536     7445.553        7.825        2.644      321.932       83.552        0.067      341.154       15.667      863.091
03/16/2014  21:56:00     -275.588        8.014       -3.295      188.680      125.430       86.484    35600.134    15732.566     7479.469        6.741        2.941      275.704       89.435        0.105      341.156       15.670      863.039
03/16/2014  21:57:00     -247.951     -102.313        2.268      177.291      123.970       68.694    31432.066    15368.530     4718.902        6.173        2.576      268.230       74.652        0.077      341.128       15.624      862.983
03/16/2014  21:58:00     -475.869     -131.410      -20.331      238.809      137.388       95.065    57029.727    18875.446     9037.421       16.452        4.247      493.679       96.627        0.038      341.081       15.542      863.047
03/16/2014  21:59:00     -419.552     -126.927      -17.046      185.457      162.183       81.965    34394.229    26303.410     6718.265       12.991        3.371      438.331       93.847        0.046      341.034       15.465      863.032
03/16/2014  22:00:00     -382.440     -252.965      -12.708      182.190      180.642       81.629    33193.177    32631.599     6663.294       14.144        3.624      458.532       73.497        0.026      341.040       15.474      863.007
03/16/2014  22:01:00     -332.837     -202.338      -14.324      128.235      170.538       62.166    16444.177    29083.316     3864.600       10.065        2.470      389.515       67.023        0.030      341.096       15.569      862.871
03/16/2014  22:02:00     -249.786      -83.516       -1.270      143.401       94.786       64.711    20563.909     8984.473     4187.485        5.155        1.687      263.378       70.618        0.072      340.975       15.364      862.745
03/16/2014  22:03:00     -338.590     -185.388       10.030      213.796      190.901       87.544    45708.686    36443.234     7664.033       11.945        4.491      386.020       87.001        0.051      340.949       15.321      862.838
03/16/2014  22:04:00     -498.260     -111.630       -5.142      254.050      179.457       91.784    64541.595    32204.817     8424.297       18.294        5.259      510.612      101.407        0.039      340.902       15.240      862.953
03/16/2014  22:05:00     -606.578     -175.862      -19.497      215.965      185.671      103.542    46641.073    34473.903    10721.039       24.552        4.592      631.557      103.457        0.027      340.978       15.368      862.918
03/16/2014  22:06:00     -478.937      -96.800       -1.074      226.274      151.984       73.952    51199.985    23099.058     5468.915       15.924        3.988      488.621       94.120        0.037      341.009       15.421      862.833
03/16/2014  22:07:00     -220.017      -39.884       24.163      143.137      101.590       72.517    20488.204    10320.510     5258.666        4.332        1.803      223.602       79.286        0.126      340.963       15.343      862.783
03/16/2014  22:08:00     -283.464     -135.865        1.448      149.845      188.134       78.849    22453.388    35394.573     6217.150        8.143        3.203      314.343       83.178        0.070      340.954       15.328      862.825
03/16/2014  22:09:00     -340.771     -195.871      -10.961      146.231      159.387       75.450    21383.422    25404.090     5692.649       10.353        2.624      393.052       73.916        0.035      340.928       15.284      862.929
03/16/2014  22:10:00     -381.828      -70.748      -10.776      185.494      127.222       74.700    34407.920    16185.339     5580.087       10.353        2.809      388.327       79.985        0.042      340.893       15.225      862.894
03/16/2014  22:11:00     -306.852      -78.688       13.806      195.971      149.082       83.925    38404.453    22225.486     7043.412        8.409        3.384      316.780       92.631        0.086      340.873       15.191      862.840
03/16/2014  22:12:00     -315.132     -149.752       -8.645      185.941      153.400       61.955    34573.926    23531.528     3838.444        9.186        3.097      348.904       65.895        0.036      340.954       15.329      862.846
03/16/2014  22:13:00     -270.376     -136.069        4.673      126.740      113.902       64.410    16062.933    12973.742     4148.704        6.241        1.659      302.684       49.182        0.026      340.896       15.231      862.766
03/16/2014  22:14:00     -183.732      -76.684       11.397      146.962      121.924       65.684    21597.723    14865.463     4314.431        4.026        2.039      199.092       68.892        0.120      340.838       15.131      862.817
03/16/2014  22:15:00      -10.489      -60.566       -9.199       65.447       66.282       45.654     4283.367     4393.363     2084.325        0.731        0.538       61.468       20.559        0.112      340.830       15.121      862.836
03/16/2014  22:16:00      -16.573        7.760       29.320       26.794       38.586       19.967      717.905     1488.888      398.669        0.190        0.130       18.299       12.480        0.465      340.694       14.890      862.725
03/16/2014  22:17:00     -130.400     -162.866      -17.584       69.600       87.925       33.721     4844.195     7730.874     1137.103        2.877        0.686      208.637       24.294        0.014      340.845       15.143      862.734
03/16/2014  22:18:00     -152.992     -153.858        9.077      119.927      124.991       51.757    14382.564    15622.796     2678.774        3.992        1.634      216.976       60.420        0.078      340.726       14.943      862.794
03/16/2014  22:19:00     -133.732      -83.054        9.828      111.171       81.131       59.091    12358.906     6582.247     3491.757        2.365        1.122      157.423       67.475        0.184      340.694       14.889      862.774
03/16/2014  22:20:00     -202.967     -120.163      -21.986       99.849       87.212       51.748     9969.842     7605.879     2677.905        3.818        1.013      235.870       40.663        0.030      340.710       14.917      862.801
03/16/2014  22:21:00     -192.419       -2.921      -21.664       78.351       77.788       43.457     6138.937     6051.041     1888.528        2.579        0.704      192.441       42.674        0.049      340.552       14.649      862.832
03/16/2014  22:22:00     -233.683       11.773        1.129      132.640       79.270       48.457    17593.406     6283.707     2348.129        4.048        1.311      233.980       55.592        0.056      340.489       14.542      862.763
03/16/2014  22:23:00     -318.353     -102.641       -6.030      102.821       98.673       52.728    10572.129     9736.342     2780.246        6.750        1.154      334.490       52.073        0.024      340.288       14.202      862.745
03/16/2014  22:24:00     -354.781     -134.570       -3.720      121.700       86.797       54.420    14810.802     7533.663     2961.545        8.464        1.265      379.445       52.582        0.019      340.247       14.131      862.756
03/16/2014  22:25:00     -286.830      -99.249      -11.068      183.440      132.815       63.509    33650.305    17639.924     4033.432        7.377        2.766      303.516       75.287        0.062      340.364       14.331      862.722
03/16/2014  22:26:00     -401.283     -121.951        6.571      226.102      143.623       75.911    51122.330    20627.485     5762.518       12.671        3.876      419.404       97.570        0.054      340.538       14.625      862.706
03/16/2014  22:27:00     -454.302     -121.108        2.671      153.343      123.343       68.075    23514.228    15213.436     4634.182       13.220        2.168      470.167       74.462        0.025      340.607       14.740      862.700
03/16/2014  22:28:00     -332.534     -108.000       -4.257      164.542      112.063       75.444    27074.200    12558.154     5691.821        8.378        2.266      349.632       89.273        0.065      340.578       14.691      862.726
03/16/2014  22:29:00     -284.573     -112.072       -8.640      147.121      110.258       65.184    21644.661    12156.776     4248.959        6.583        1.903      305.846       66.114        0.047      340.402       14.395      862.699
03/16/2014  22:30:00     -167.395      -48.014       -0.419      115.709       96.196       57.525    13388.514     9253.746     3309.144        2.813        1.298      174.144       50.188        0.083      340.337       14.285      862.670
03/16/2014  22:31:00      -86.471     -120.607       21.841      125.326       81.616       57.479    15706.692     6661.157     3303.836        2.408        1.284      148.402       71.819        0.234      340.286       14.199      862.639
03/16/2014  22:32:00     -232.284     -130.921       -3.827      151.565       89.660       67.266    22971.808     8038.877     4524.722        5.332        1.777      266.639       76.843        0.083      340.173       14.008      862.610
03/16/2014  22:33:00     -212.674     -107.468      -10.776      129.412       64.597       37.250    16747.586     4172.815     1387.575        3.960        1.115      238.285       45.611        0.037      340.151       13.971      862.607
03/16/2014  22:34:00     -260.297     -138.320       14.633      202.921      150.963       68.734    41176.743    22789.764     4724.391        7.788        3.435      294.766       95.036        0.104      340.155       13.977      862.631
03/16/2014  22:35:00     -338.240     -146.765        1.318      179.363      127.164       72.614    32171.074    16170.618     5272.765        9.477        2.681      368.709       87.602        0.056      340.218       14.082      862.608
03/16/2014  22:36:00     -248.510     -109.102      -14.499      122.960      106.625       52.837    15119.183    11368.970     2791.763        5.157        1.464      271.405       48.902        0.032      340.315       14.247      862.549
03/16/2014  22:37:00     -337.367     -114.565       -2.104      185.663      125.363       72.727    34470.910    15715.942     5289.174        9.120        2.774      356.289       94.446        0.070      340.217       14.082      862.470
03/16/2014  22:38:00     -306.286     -129.377       -9.931      131.912       94.694       53.512    17400.645     8967.003     2863.537        6.993        1.462      332.490       41.302        0.015      340.528       14.606      862.428
03/16/2014  22:39:00     -294.802      -92.618      -13.193      129.982       78.245       53.591    16895.430     6122.331     2871.946        6.077        1.294      309.009       49.724        0.026      340.407       14.404      862.431
03/16/2014  22:40:00     -361.565     -146.166        6.626      149.494      131.924       67.814    22348.435    17403.983     4598.719        9.824        2.218      389.992       65.311        0.028      340.268       14.168      862.447
03/16/2014  22:41:00     -315.421      -39.746        4.945      165.434      111.705       76.468    27368.365    12478.109     5847.288        7.338        2.285      317.915       81.489        0.066      340.272       14.174      862.454
03/16/2014  22:42:00     -243.169      -16.964        4.198      156.951       97.606       59.508    24633.658     9526.843     3541.246        4.856        1.885      243.760       69.681        0.082      340.254       14.145      862.441
03/16/2014  22:43:00     -196.459     -138.832        1.530      106.028       89.312       48.870    11241.855     7976.641     2388.320        3.974        1.080      240.563       50.955        0.045      340.267       14.165      862.448
03/16/2014  22:44:00     -231.538     -202.849        3.646      141.164      103.812       63.386    19927.230    10776.976     4017.764        6.474        1.736      307.828       65.363        0.045      340.305       14.231      862.454
03/16/2014  22:45:00     -290.458     -151.432        0.158      162.749      109.609       65.099    26487.374    12014.226     4237.888        7.501        2.137      327.563       64.234        0.038      340.384       14.364      862.431
03/16/2014  22:46:00     -182.156      -73.407        5.287      126.629       59.838       51.112    16034.903     3580.561     2612.445        3.041        1.111      196.391       56.527        0.083      340.273       14.178      862.455
03/16/2014  22:47:00     -202.881     -140.135       -9.680      161.285      104.176       58.750    26012.954    10852.723     3451.513        5.060        2.016      246.573       78.928        0.102      340.210       14.071      862.433
03/16/2014  22:48:00     -332.105     -128.436      -18.310      133.007      127.320       55.359    17690.814    16210.508     3064.672        8.204        1.848      356.075       48.613        0.019      340.171       14.003      862.421
03/16/2014  22:49:00     -216.132      -63.468        6.613      147.721       99.431       52.235    21821.393     9886.533     2728.508        4.260        1.722      225.258       65.383        0.084      340.098       13.881      862.408
03/16/2014  22:50:00     -149.766      -82.170        7.878      110.369       82.381       48.820    12181.421     6786.638     2383.404        2.529        1.068      170.827       57.703        0.114      340.123       13.924      862.421
03/16/2014  22:51:00     -252.023     -117.332        0.262       87.665       73.697       44.725     7685.214     5431.238     2000.340        4.620        0.756      277.997       42.844        0.024      340.039       13.781      862.392
03/16/2014  22:52:00     -238.777     -136.636       -6.430      109.955      105.260       58.258    12090.157    11079.626     3393.952        5.114        1.328      275.107       29.827        0.012      340.130       13.936      862.385
03/16/2014  22:53:00     -262.156     -141.708      -15.930      206.893       86.134       50.422    42804.509     7419.080     2542.366        7.090        2.638      298.005       53.258        0.032      340.224       14.094      862.373
03/16/2014  22:54:00       26.694     -214.692      -27.175      110.515      115.519       73.285    12213.604    13344.665     5370.719        3.923        1.546      216.345       67.105        0.096      340.336       14.284      862.337
03/16/2014  22:55:00      -67.496     -247.580      -32.680       72.700       69.848       46.181     5285.251     4878.793     2132.698        3.961        0.615      256.615       30.933        0.015      340.351       14.307      862.320
03/16/2014  22:56:00     -119.479     -152.093        7.646      126.683       70.216       54.162    16048.579     4930.342     2933.484        3.068        1.196      193.410       50.069        0.067      340.319       14.255      862.333
03/16/2014  22:57:00      -76.227      -99.818       -1.353       90.492       70.669       48.080     8188.725     4994.170     2311.729        1.563        0.775      125.595       48.892        0.152      340.245       14.132      862.300
03/16/2014  22:58:00     -171.983     -149.496      -11.658       55.050       54.352       33.121     3030.457     2954.132     1097.007        2.957        0.354      227.876       22.750        0.010      340.149       13.967      862.301
03/16/2014  22:59:00      -96.155     -111.745       11.268       84.289       65.907       40.979     7104.718     4343.764     1679.304        1.749        0.656      147.420       30.596        0.043      340.120       13.920      862.282
03/16/2014  23:00:00     -297.439     -168.801       -7.409      170.073       86.630       61.886    28924.795     7504.827     3829.857        7.863        2.013      342.000       69.954        0.042      340.069       13.832      862.233
03/16/2014  23:01:00     -305.088     -110.255      -11.112      141.294      102.037       73.054    19963.900    10411.609     5336.937        7.053        1.786      324.399       76.844        0.056      340.004       13.722      862.180
03/16/2014  23:02:00     -451.091     -150.947      -18.167      169.544      128.609       72.609    28745.261    16540.307     5272.098       13.857        2.528      475.676       81.105        0.029      339.997       13.709      862.149
03/16/2014  23:03:00     -509.065     -163.661      -10.436      175.887      167.113       79.860    30936.295    27926.754     6377.641       17.563        3.262      534.726       79.236        0.022      340.048       13.796      862.139
03/16/2014  23:04:00     -391.777     -151.318      -23.015      168.535      115.404       69.458    28404.061    13318.084     4824.412       11.172        2.327      419.984       78.966        0.035      340.080       13.851      862.153
03/16/2014  23:05:00     -254.876     -184.428       -4.683      112.961       85.708       59.395    12760.212     7345.813     3527.717        6.131        1.182      314.603       54.591        0.030      340.071       13.835      862.176
03/16/2014  23:06:00     -195.375     -102.640       -6.363      152.059      114.591       71.153    23121.967    13131.147     5062.799        4.502        2.066      220.695       86.296        0.153      340.074       13.843      862.074
03/16/2014  23:07:00     -164.085     -110.658       -1.798      130.412       96.314       60.434    17007.403     9276.295     3652.212        3.455        1.497      197.912       74.169        0.140      340.094       13.875      862.014
03/16/2014  23:08:00     -249.632     -170.060      -10.826       96.799      106.442       52.959     9370.087    11329.935     2804.624        5.742        1.175      302.054       51.979        0.030      340.060       13.816      861.984
03/16/2014  23:09:00     -221.479      -94.988       -2.565      136.764       88.186       49.115    18704.510     7776.852     2412.267        4.348        1.445      240.988       55.090        0.052      339.988       13.696      861.947
03/16/2014  23:10:00     -165.261      -99.236       -5.113      133.329      114.234       54.508    17776.599    13049.406     2971.145        3.548        1.690      192.766       63.528        0.109      339.934       13.605      861.945
03/16/2014  23:11:00     -197.836      -96.867       13.321      111.218       92.568       51.956    12369.366     8568.857     2699.405        3.616        1.182      220.278       52.030        0.056      340.063       13.822      861.921
03/16/2014  23:12:00     -195.159     -101.297       11.616      140.034       67.587       49.245    19609.449     4568.061     2425.084        3.754        1.330      219.882       56.883        0.067      339.968       13.662      861.911
03/16/2014  23:13:00     -225.043      -87.906       -5.517      117.663       67.970       37.190    13844.667     4619.871     1383.107        3.912        0.992      241.603       42.350        0.031      339.948       13.629      861.884
03/16/2014  23:14:00     -173.013     -100.138       -3.793       97.771       57.853       43.428     9559.186     3346.917     1886.018        2.738        0.740      199.902       45.834        0.053      339.907       13.559      861.850
03/16/2014  23:15:00     -137.501      -55.841       16.723       98.190       81.305       50.794     9641.281     6610.528     2580.053        2.056        0.942      148.407       52.105        0.123      339.834       13.436      861.806
03/16/2014  23:16:00     -362.352     -138.203      -21.810      114.766       91.900       61.187    13171.306     8445.674     3743.795        8.811        1.268      387.813       58.994        0.023      339.925       13.589      861.780
03/16/2014  23:17:00     -207.157     -134.652      -10.821      139.367      111.285       63.779    19423.246    12384.312     4067.817        4.851        1.794      247.074       69.088        0.078      339.876       13.507      861.746
03/16/2014  23:18:00     -244.383     -104.700       -0.444      128.157      114.350       50.807    16424.293    13075.811     2581.318        5.138        1.604      265.866       54.674        0.042      339.874       13.501      861.745
03/16/2014  23:19:00     -217.419     -145.216        2.718      129.534      109.089       61.432    16779.089    11900.340     3773.891        5.040        1.623      261.454       66.726        0.065      339.954       13.637      861.724
03/16/2014  23:20:00     -270.923     -106.036       -5.825      158.881      122.356       65.272    25243.315    14971.021     4260.488        6.457        2.224      290.935       64.832        0.050      339.977       13.675      861.702
03/16/2014  23:21:00     -213.661     -112.938        1.709      159.975      125.358       73.389    25592.052    15714.677     5386.018        5.254        2.335      241.674       80.543        0.111      340.027       13.761      861.672
03/16/2014  23:22:00     -356.783      -97.929       11.428      177.248      145.438       85.077    31416.777    21152.191     7238.080        9.840        2.990      369.979       86.647        0.055      340.111       13.902      861.687
03/16/2014  23:23:00     -204.147     -164.066        0.467      135.468      123.694       75.029    18351.648    15300.234     5629.406        5.393        1.964      261.904       72.652        0.077      340.104       13.891      861.704
03/16/2014  23:24:00     -366.737     -190.410      -13.058      197.965      128.348       76.909    39190.286    16473.232     5915.052       11.624        3.079      413.222       89.128        0.047      340.130       13.934      861.648
03/16/2014  23:25:00     -344.123     -130.736       -6.822      126.682      126.684       72.765    16048.213    16048.921     5294.708        8.647        1.870      368.120       67.948        0.034      340.107       13.895      861.635
03/16/2014  23:26:00     -275.070      -26.416       -1.425      107.342       92.771       58.743    11522.348     8606.485     3450.720        4.997        1.179      276.336       54.082        0.038      340.057       13.811      861.637
03/16/2014  23:27:00     -217.980     -125.005        0.860      132.393       99.754       51.573    17527.817     9950.864     2659.782        4.663        1.507      251.280       52.614        0.044      340.011       13.735      861.652
03/16/2014  23:28:00     -305.624     -102.148        0.919      119.587       85.975       57.746    14300.975     7391.700     3334.591        6.443        1.251      322.243       51.734        0.026      340.031       13.767      861.628
03/16/2014  23:29:00     -200.829     -149.756        3.288       98.652       92.753       53.866     9732.184     8603.088     2901.597        4.200        1.062      250.518       52.369        0.044      339.984       13.689      861.605
03/16/2014  23:30:00     -171.293     -124.841        7.490      121.213       68.405       51.667    14692.521     4679.306     2669.499        3.351        1.102      211.959       60.340        0.081      339.940       13.616      861.592
03/16/2014  23:31:00     -273.208     -174.651      -10.472      138.464       81.150       56.611    19172.205     6585.256     3204.849        6.710        1.448      324.261       58.227        0.032      339.988       13.696      861.574
03/16/2014  23:32:00     -278.207     -141.680       -4.976      120.997      106.872       67.784    14640.288    11421.577     4594.718        6.407        1.533      312.205       69.844        0.050      339.970       13.664      861.555
03/16/2014  23:33:00     -201.216     -199.420       -9.922      108.560      129.922       68.381    11785.191    16879.763     4675.938        5.684        1.667      283.295       66.565        0.055      340.021       13.750      861.554
03/16/2014  23:34:00     -210.278     -202.435       -5.475      122.546      103.979       70.673    15017.612    10811.700     4994.618        5.802        1.541      291.885       62.570        0.046      339.957       13.642      861.601
03/16/2014  23:35:00     -280.580     -143.332        0.618      161.826      105.130       69.325    26187.808    11052.223     4805.972        7.065        2.102      315.070       77.864        0.061      340.035       13.774      861.590
03/16/2014  23:36:00     -450.949     -286.800       -7.232      231.650      182.996      101.508    53661.877    33487.402    10303.804       19.154        4.873      534.424      121.496        0.052      340.068       13.828      861.599
03/16/2014  23:37:00     -197.669     -134.960        9.334      138.595      113.641       67.840    19208.678    12914.219     4602.290        4.704        1.836      239.348       75.686        0.100      340.023       13.755      861.583
03/16/2014  23:38:00     -424.343     -233.075      -25.057      157.382      166.328       75.268    24769.237    27665.038     5665.284       14.655        2.905      484.139       76.761        0.025      340.083       13.855      861.603
03/16/2014  23:39:00     -370.110     -232.168      -22.196      124.493      130.935       65.482    15498.595    17144.001     4287.859       11.415        1.847      436.902       56.946        0.017      340.051       13.800      861.619
03/16/2014  23:40:00     -429.877     -219.740      -13.484      195.080      154.883       80.494    38056.395    23988.742     6479.299       15.088        3.426      482.784       93.754        0.038      340.051       13.802      861.622
03/16/2014  23:41:00     -485.055     -303.021      -24.047      280.236      204.607      106.780    78532.072    41863.835    11402.046       22.971        6.590      571.927      131.689        0.053      340.070       13.834      861.603
03/16/2014  23:42:00     -555.557     -228.722      -34.051      239.387      188.382       95.093    57306.034    35487.890     9042.663       23.196        5.092      600.798      106.288        0.031      340.061       13.817      861.581
03/16/2014  23:43:00     -370.865     -199.183        3.096      174.720      110.895       84.931    30527.114    12297.683     7213.300       11.362        2.502      420.969       88.884        0.045      340.009       13.730      861.592
03/16/2014  23:44:00     -244.139     -165.511       -8.602      126.753      122.341       62.253    16066.307    14967.372     3875.413        6.098        1.745      294.954       56.802        0.037      339.990       13.699      861.569
03/16/2014  23:45:00     -234.773     -204.253       -7.359      145.052      138.456       56.233    21040.164    19170.090     3162.109        7.012        2.169      311.187       49.425        0.025      339.968       13.662      861.539
03/16/2014  23:46:00     -384.182     -272.968      -30.591      135.957      137.703       65.192    18484.279    18962.021     4249.950       13.236        2.085      471.283       69.622        0.022      339.983       13.687      861.540
03/16/2014  23:47:00     -182.653      -88.829       16.543      142.760      111.758       67.011    20380.446    12489.948     4490.452        3.944        1.868      203.107       81.658        0.162      339.923       13.587      861.533
03/16/2014  23:48:00     -121.010     -101.070       11.581      123.057       89.411       61.321    15143.010     7994.303     3760.310        2.594        1.345      157.666       67.010        0.181      339.925       13.591      861.487
03/16/2014  23:49:00     -179.388     -148.809        3.681      120.106       87.505       52.676    14425.484     7657.151     2774.742        3.959        1.243      233.076       54.718        0.055      339.952       13.634      861.443
03/16/2014  23:50:00     -376.761     -243.763        9.551      240.244      174.528       93.844    57716.950    30460.178     8806.717       14.920        4.849      448.742      100.545        0.050      339.959       13.646      861.380
03/16/2014  23:51:00     -440.991     -150.179      -11.856      227.222      176.973       94.656    51629.924    31319.531     8959.804       15.452        4.595      465.861      107.417        0.053      340.026       13.759      861.327
03/16/2014  23:52:00     -479.427     -192.458      -27.265      277.760      177.757       94.995    77150.757    31597.705     9023.980       19.268        5.889      516.615      116.861        0.051      340.035       13.774      861.299
03/16/2014  23:53:00     -391.630     -195.177       -5.925      342.479      228.399      106.213   117291.900    52166.165    11281.215       18.609        9.037      437.571      154.597        0.125      340.010       13.734      861.288
03/16/2014  23:54:00     -528.990     -312.313       -2.500      280.844      239.091      133.680    78873.519    57164.294    17870.256       26.561        7.695      614.304      140.781        0.053      340.021       13.752      861.259
03/16/2014  23:55:00     -351.592     -171.599       -0.924      292.930      168.712       93.985    85808.143    28463.856     8833.215       13.806        6.155      391.233      127.388        0.106      339.973       13.669      861.268
03/16/2014  23:56:00     -270.864     -174.169        3.824      159.990      141.351       87.210    25596.869    19980.138     7605.595        7.844        2.659      322.028       88.151        0.075      339.977       13.675      861.242
03/16/2014  23:57:00     -450.291     -312.061       -5.547      234.592      247.266      125.534    55033.364    61140.248    15758.695       21.603        6.597      547.854      135.983        0.062      340.003       13.721      861.171
03/16/2014  23:58:00     -624.803     -271.937      -19.338      293.159      213.465      119.905    85942.332    45567.443    14377.286       30.527        7.294      681.417      147.073        0.047      339.975       13.673      861.147
03/16/2014  23:59:00     -503.358     -145.246       20.476      287.245      239.681      124.621    82509.934    57447.053    15530.344       21.516        7.774      523.894      136.205        0.068      339.933       13.602      861.081
